<?xml version="1.0" encoding="UTF-8" standalone="no" ?>
<gpx xmlns="http://www.topografix.com/GPX/1/1" xmlns:xsi="http://www.w3.org/2001/XMLSchema-instance" xsi:schemaLocation="http://www.topografix.com/GPX/1/1 http://www.topografix.com/GPX/1/1/gpx.xsd" version="1.1" creator="VisuGPX - https://www.visugpx.com">
  <metadata>
    <name>marche jmk Anthée</name>
    <desc><![CDATA[Marche de Jean-Marie Keymolen organisée le 19 mars 2017 à Anthée]]></desc>
  </metadata>
  <trk>
    <name><![CDATA[2017-03-19 17:19:31]]></name>
    <trkseg>
      <trkpt lat="50.24" lon="4.76073">
        <ele>264.02</ele>
        <time>2017-03-19T09:04:27Z</time>
      </trkpt>
      <trkpt lat="50.24" lon="4.76073">
        <ele>264.02</ele>
        <time>2017-03-19T09:04:28Z</time>
      </trkpt>
      <trkpt lat="50.24" lon="4.76072">
        <ele>265.94</ele>
        <time>2017-03-19T09:04:33Z</time>
      </trkpt>
      <trkpt lat="50.24" lon="4.7607">
        <ele>264.98</ele>
        <time>2017-03-19T09:04:55Z</time>
      </trkpt>
      <trkpt lat="50.24" lon="4.76072">
        <ele>265.46</ele>
        <time>2017-03-19T09:05:15Z</time>
      </trkpt>
      <trkpt lat="50.24001" lon="4.76076">
        <ele>264.98</ele>
        <time>2017-03-19T09:05:28Z</time>
      </trkpt>
      <trkpt lat="50.24002" lon="4.76079">
        <ele>264.98</ele>
        <time>2017-03-19T09:05:32Z</time>
      </trkpt>
      <trkpt lat="50.24002" lon="4.76098">
        <ele>264.5</ele>
        <time>2017-03-19T09:05:46Z</time>
      </trkpt>
      <trkpt lat="50.24002" lon="4.76103">
        <ele>264.5</ele>
        <time>2017-03-19T09:05:49Z</time>
      </trkpt>
      <trkpt lat="50.24001" lon="4.76107">
        <ele>264.5</ele>
        <time>2017-03-19T09:05:52Z</time>
      </trkpt>
      <trkpt lat="50.23997" lon="4.76111">
        <ele>263.54</ele>
        <time>2017-03-19T09:05:56Z</time>
      </trkpt>
      <trkpt lat="50.23995" lon="4.76114">
        <ele>263.54</ele>
        <time>2017-03-19T09:05:59Z</time>
      </trkpt>
      <trkpt lat="50.23987" lon="4.76116">
        <ele>263.06</ele>
        <time>2017-03-19T09:06:11Z</time>
      </trkpt>
      <trkpt lat="50.23974" lon="4.76122">
        <ele>263.06</ele>
        <time>2017-03-19T09:06:23Z</time>
      </trkpt>
      <trkpt lat="50.23958" lon="4.7613">
        <ele>261.62</ele>
        <time>2017-03-19T09:06:40Z</time>
      </trkpt>
      <trkpt lat="50.23944" lon="4.76137">
        <ele>260.17</ele>
        <time>2017-03-19T09:06:55Z</time>
      </trkpt>
      <trkpt lat="50.23926" lon="4.76146">
        <ele>258.25</ele>
        <time>2017-03-19T09:07:13Z</time>
      </trkpt>
      <trkpt lat="50.23909" lon="4.76157">
        <ele>257.29</ele>
        <time>2017-03-19T09:07:30Z</time>
      </trkpt>
      <trkpt lat="50.23908" lon="4.7616">
        <ele>257.29</ele>
        <time>2017-03-19T09:07:33Z</time>
      </trkpt>
      <trkpt lat="50.23903" lon="4.76177">
        <ele>256.81</ele>
        <time>2017-03-19T09:07:47Z</time>
      </trkpt>
      <trkpt lat="50.23902" lon="4.76181">
        <ele>255.85</ele>
        <time>2017-03-19T09:07:50Z</time>
      </trkpt>
      <trkpt lat="50.23897" lon="4.76194">
        <ele>255.37</ele>
        <time>2017-03-19T09:07:59Z</time>
      </trkpt>
      <trkpt lat="50.23897" lon="4.76199">
        <ele>254.89</ele>
        <time>2017-03-19T09:08:02Z</time>
      </trkpt>
      <trkpt lat="50.23895" lon="4.76221">
        <ele>253.93</ele>
        <time>2017-03-19T09:08:16Z</time>
      </trkpt>
      <trkpt lat="50.239" lon="4.76245">
        <ele>253.93</ele>
        <time>2017-03-19T09:08:31Z</time>
      </trkpt>
      <trkpt lat="50.23907" lon="4.76272">
        <ele>253.93</ele>
        <time>2017-03-19T09:08:47Z</time>
      </trkpt>
      <trkpt lat="50.23913" lon="4.76295">
        <ele>255.37</ele>
        <time>2017-03-19T09:09:00Z</time>
      </trkpt>
      <trkpt lat="50.23918" lon="4.76322">
        <ele>255.85</ele>
        <time>2017-03-19T09:09:16Z</time>
      </trkpt>
      <trkpt lat="50.23922" lon="4.76336">
        <ele>255.85</ele>
        <time>2017-03-19T09:09:25Z</time>
      </trkpt>
      <trkpt lat="50.23925" lon="4.76364">
        <ele>255.85</ele>
        <time>2017-03-19T09:09:41Z</time>
      </trkpt>
      <trkpt lat="50.2393" lon="4.76389">
        <ele>255.85</ele>
        <time>2017-03-19T09:09:55Z</time>
      </trkpt>
      <trkpt lat="50.23931" lon="4.76397">
        <ele>254.41</ele>
        <time>2017-03-19T09:10:00Z</time>
      </trkpt>
      <trkpt lat="50.23933" lon="4.76415">
        <ele>254.41</ele>
        <time>2017-03-19T09:10:10Z</time>
      </trkpt>
      <trkpt lat="50.23935" lon="4.76443">
        <ele>254.41</ele>
        <time>2017-03-19T09:10:26Z</time>
      </trkpt>
      <trkpt lat="50.23935" lon="4.76445">
        <ele>254.41</ele>
        <time>2017-03-19T09:10:27Z</time>
      </trkpt>
      <trkpt lat="50.23935" lon="4.76474">
        <ele>254.41</ele>
        <time>2017-03-19T09:10:43Z</time>
      </trkpt>
      <trkpt lat="50.23935" lon="4.7649">
        <ele>254.41</ele>
        <time>2017-03-19T09:10:52Z</time>
      </trkpt>
      <trkpt lat="50.23936" lon="4.76521">
        <ele>254.41</ele>
        <time>2017-03-19T09:11:09Z</time>
      </trkpt>
      <trkpt lat="50.23936" lon="4.76523">
        <ele>254.41</ele>
        <time>2017-03-19T09:11:10Z</time>
      </trkpt>
      <trkpt lat="50.23936" lon="4.76527">
        <ele>254.41</ele>
        <time>2017-03-19T09:11:12Z</time>
      </trkpt>
      <trkpt lat="50.23936" lon="4.76537">
        <ele>254.41</ele>
        <time>2017-03-19T09:11:19Z</time>
      </trkpt>
      <trkpt lat="50.23938" lon="4.76553">
        <ele>254.41</ele>
        <time>2017-03-19T09:11:27Z</time>
      </trkpt>
      <trkpt lat="50.23939" lon="4.76571">
        <ele>254.41</ele>
        <time>2017-03-19T09:11:37Z</time>
      </trkpt>
      <trkpt lat="50.23941" lon="4.7659">
        <ele>254.41</ele>
        <time>2017-03-19T09:11:48Z</time>
      </trkpt>
      <trkpt lat="50.23942" lon="4.76618">
        <ele>254.41</ele>
        <time>2017-03-19T09:12:04Z</time>
      </trkpt>
      <trkpt lat="50.23942" lon="4.76643">
        <ele>254.41</ele>
        <time>2017-03-19T09:12:18Z</time>
      </trkpt>
      <trkpt lat="50.23943" lon="4.76672">
        <ele>254.41</ele>
        <time>2017-03-19T09:12:34Z</time>
      </trkpt>
      <trkpt lat="50.23945" lon="4.76701">
        <ele>254.41</ele>
        <time>2017-03-19T09:12:50Z</time>
      </trkpt>
      <trkpt lat="50.23946" lon="4.76729">
        <ele>254.41</ele>
        <time>2017-03-19T09:13:06Z</time>
      </trkpt>
      <trkpt lat="50.23946" lon="4.76732">
        <ele>255.85</ele>
        <time>2017-03-19T09:13:08Z</time>
      </trkpt>
      <trkpt lat="50.23947" lon="4.76762">
        <ele>255.85</ele>
        <time>2017-03-19T09:13:24Z</time>
      </trkpt>
      <trkpt lat="50.23948" lon="4.76786">
        <ele>255.85</ele>
        <time>2017-03-19T09:13:38Z</time>
      </trkpt>
      <trkpt lat="50.23948" lon="4.76788">
        <ele>255.85</ele>
        <time>2017-03-19T09:13:39Z</time>
      </trkpt>
      <trkpt lat="50.23949" lon="4.7681">
        <ele>255.85</ele>
        <time>2017-03-19T09:13:51Z</time>
      </trkpt>
      <trkpt lat="50.23949" lon="4.76814">
        <ele>255.85</ele>
        <time>2017-03-19T09:13:53Z</time>
      </trkpt>
      <trkpt lat="50.23949" lon="4.76817">
        <ele>255.85</ele>
        <time>2017-03-19T09:13:55Z</time>
      </trkpt>
      <trkpt lat="50.23951" lon="4.76845">
        <ele>256.33</ele>
        <time>2017-03-19T09:14:11Z</time>
      </trkpt>
      <trkpt lat="50.23952" lon="4.76872">
        <ele>256.33</ele>
        <time>2017-03-19T09:14:26Z</time>
      </trkpt>
      <trkpt lat="50.23952" lon="4.76884">
        <ele>256.81</ele>
        <time>2017-03-19T09:14:33Z</time>
      </trkpt>
      <trkpt lat="50.23953" lon="4.76912">
        <ele>257.29</ele>
        <time>2017-03-19T09:14:49Z</time>
      </trkpt>
      <trkpt lat="50.23955" lon="4.76936">
        <ele>257.77</ele>
        <time>2017-03-19T09:15:02Z</time>
      </trkpt>
      <trkpt lat="50.23958" lon="4.76964">
        <ele>258.25</ele>
        <time>2017-03-19T09:15:19Z</time>
      </trkpt>
      <trkpt lat="50.23961" lon="4.76983">
        <ele>258.73</ele>
        <time>2017-03-19T09:15:30Z</time>
      </trkpt>
      <trkpt lat="50.23966" lon="4.77004">
        <ele>259.21</ele>
        <time>2017-03-19T09:15:43Z</time>
      </trkpt>
      <trkpt lat="50.23966" lon="4.77007">
        <ele>259.21</ele>
        <time>2017-03-19T09:15:45Z</time>
      </trkpt>
      <trkpt lat="50.23968" lon="4.77013">
        <ele>260.17</ele>
        <time>2017-03-19T09:16:00Z</time>
      </trkpt>
      <trkpt lat="50.2397" lon="4.77022">
        <ele>260.65</ele>
        <time>2017-03-19T09:16:12Z</time>
      </trkpt>
      <trkpt lat="50.23972" lon="4.77045">
        <ele>259.21</ele>
        <time>2017-03-19T09:16:28Z</time>
      </trkpt>
      <trkpt lat="50.23974" lon="4.77053">
        <ele>259.21</ele>
        <time>2017-03-19T09:16:34Z</time>
      </trkpt>
      <trkpt lat="50.2398" lon="4.77073">
        <ele>260.65</ele>
        <time>2017-03-19T09:16:46Z</time>
      </trkpt>
      <trkpt lat="50.23987" lon="4.77101">
        <ele>261.14</ele>
        <time>2017-03-19T09:17:03Z</time>
      </trkpt>
      <trkpt lat="50.23993" lon="4.77126">
        <ele>261.14</ele>
        <time>2017-03-19T09:17:18Z</time>
      </trkpt>
      <trkpt lat="50.23997" lon="4.77152">
        <ele>261.62</ele>
        <time>2017-03-19T09:17:33Z</time>
      </trkpt>
      <trkpt lat="50.23998" lon="4.77174">
        <ele>261.62</ele>
        <time>2017-03-19T09:17:45Z</time>
      </trkpt>
      <trkpt lat="50.23996" lon="4.77199">
        <ele>261.62</ele>
        <time>2017-03-19T09:17:59Z</time>
      </trkpt>
      <trkpt lat="50.23995" lon="4.77227">
        <ele>262.1</ele>
        <time>2017-03-19T09:18:15Z</time>
      </trkpt>
      <trkpt lat="50.23995" lon="4.77235">
        <ele>262.1</ele>
        <time>2017-03-19T09:18:20Z</time>
      </trkpt>
      <trkpt lat="50.23994" lon="4.77242">
        <ele>262.1</ele>
        <time>2017-03-19T09:18:24Z</time>
      </trkpt>
      <trkpt lat="50.23991" lon="4.77274">
        <ele>262.1</ele>
        <time>2017-03-19T09:18:42Z</time>
      </trkpt>
      <trkpt lat="50.23991" lon="4.77278">
        <ele>261.14</ele>
        <time>2017-03-19T09:18:44Z</time>
      </trkpt>
      <trkpt lat="50.23988" lon="4.77309">
        <ele>261.14</ele>
        <time>2017-03-19T09:19:01Z</time>
      </trkpt>
      <trkpt lat="50.23986" lon="4.77337">
        <ele>260.65</ele>
        <time>2017-03-19T09:19:16Z</time>
      </trkpt>
      <trkpt lat="50.23985" lon="4.77365">
        <ele>260.65</ele>
        <time>2017-03-19T09:19:31Z</time>
      </trkpt>
      <trkpt lat="50.23982" lon="4.77395">
        <ele>259.69</ele>
        <time>2017-03-19T09:19:48Z</time>
      </trkpt>
      <trkpt lat="50.23981" lon="4.77422">
        <ele>259.21</ele>
        <time>2017-03-19T09:20:03Z</time>
      </trkpt>
      <trkpt lat="50.23981" lon="4.77448">
        <ele>258.73</ele>
        <time>2017-03-19T09:20:17Z</time>
      </trkpt>
      <trkpt lat="50.2398" lon="4.77475">
        <ele>258.73</ele>
        <time>2017-03-19T09:20:32Z</time>
      </trkpt>
      <trkpt lat="50.2398" lon="4.775">
        <ele>257.77</ele>
        <time>2017-03-19T09:20:46Z</time>
      </trkpt>
      <trkpt lat="50.23978" lon="4.77529">
        <ele>257.77</ele>
        <time>2017-03-19T09:21:02Z</time>
      </trkpt>
      <trkpt lat="50.23976" lon="4.77554">
        <ele>256.81</ele>
        <time>2017-03-19T09:21:16Z</time>
      </trkpt>
      <trkpt lat="50.23971" lon="4.77581">
        <ele>254.89</ele>
        <time>2017-03-19T09:21:31Z</time>
      </trkpt>
      <trkpt lat="50.23967" lon="4.77604">
        <ele>253.44</ele>
        <time>2017-03-19T09:21:44Z</time>
      </trkpt>
      <trkpt lat="50.23962" lon="4.7763">
        <ele>252.48</ele>
        <time>2017-03-19T09:21:59Z</time>
      </trkpt>
      <trkpt lat="50.23956" lon="4.7766">
        <ele>251.04</ele>
        <time>2017-03-19T09:22:16Z</time>
      </trkpt>
      <trkpt lat="50.2395" lon="4.77686">
        <ele>250.08</ele>
        <time>2017-03-19T09:22:31Z</time>
      </trkpt>
      <trkpt lat="50.23947" lon="4.77706">
        <ele>249.12</ele>
        <time>2017-03-19T09:22:42Z</time>
      </trkpt>
      <trkpt lat="50.2394" lon="4.77735">
        <ele>248.16</ele>
        <time>2017-03-19T09:22:58Z</time>
      </trkpt>
      <trkpt lat="50.23931" lon="4.77755">
        <ele>246.23</ele>
        <time>2017-03-19T09:23:12Z</time>
      </trkpt>
      <trkpt lat="50.23919" lon="4.77778">
        <ele>245.27</ele>
        <time>2017-03-19T09:23:28Z</time>
      </trkpt>
      <trkpt lat="50.23908" lon="4.77797">
        <ele>244.31</ele>
        <time>2017-03-19T09:23:42Z</time>
      </trkpt>
      <trkpt lat="50.23896" lon="4.77822">
        <ele>242.87</ele>
        <time>2017-03-19T09:23:58Z</time>
      </trkpt>
      <trkpt lat="50.23885" lon="4.77846">
        <ele>242.39</ele>
        <time>2017-03-19T09:24:14Z</time>
      </trkpt>
      <trkpt lat="50.23875" lon="4.7787">
        <ele>241.43</ele>
        <time>2017-03-19T09:24:29Z</time>
      </trkpt>
      <trkpt lat="50.23864" lon="4.77896">
        <ele>240.95</ele>
        <time>2017-03-19T09:24:46Z</time>
      </trkpt>
      <trkpt lat="50.23851" lon="4.77923">
        <ele>240.47</ele>
        <time>2017-03-19T09:25:04Z</time>
      </trkpt>
      <trkpt lat="50.2384" lon="4.77949">
        <ele>239.99</ele>
        <time>2017-03-19T09:25:21Z</time>
      </trkpt>
      <trkpt lat="50.23833" lon="4.77965">
        <ele>240.95</ele>
        <time>2017-03-19T09:25:31Z</time>
      </trkpt>
      <trkpt lat="50.2383" lon="4.7797">
        <ele>239.51</ele>
        <time>2017-03-19T09:25:35Z</time>
      </trkpt>
      <trkpt lat="50.23822" lon="4.77993">
        <ele>239.51</ele>
        <time>2017-03-19T09:25:49Z</time>
      </trkpt>
      <trkpt lat="50.23816" lon="4.78011">
        <ele>240.47</ele>
        <time>2017-03-19T09:26:01Z</time>
      </trkpt>
      <trkpt lat="50.23815" lon="4.78012">
        <ele>239.02</ele>
        <time>2017-03-19T09:26:06Z</time>
      </trkpt>
      <trkpt lat="50.23812" lon="4.78014">
        <ele>239.02</ele>
        <time>2017-03-19T09:26:09Z</time>
      </trkpt>
      <trkpt lat="50.23808" lon="4.78019">
        <ele>240.47</ele>
        <time>2017-03-19T09:26:14Z</time>
      </trkpt>
      <trkpt lat="50.23805" lon="4.78018">
        <ele>239.99</ele>
        <time>2017-03-19T09:26:18Z</time>
      </trkpt>
      <trkpt lat="50.23804" lon="4.78017">
        <ele>238.06</ele>
        <time>2017-03-19T09:26:20Z</time>
      </trkpt>
      <trkpt lat="50.23801" lon="4.78016">
        <ele>239.51</ele>
        <time>2017-03-19T09:26:38Z</time>
      </trkpt>
      <trkpt lat="50.23802" lon="4.78016">
        <ele>240.47</ele>
        <time>2017-03-19T09:27:04Z</time>
      </trkpt>
      <trkpt lat="50.23801" lon="4.78047">
        <ele>238.54</ele>
        <time>2017-03-19T09:27:17Z</time>
      </trkpt>
      <trkpt lat="50.23788" lon="4.7809">
        <ele>237.1</ele>
        <time>2017-03-19T09:27:35Z</time>
      </trkpt>
      <trkpt lat="50.23772" lon="4.78134">
        <ele>235.66</ele>
        <time>2017-03-19T09:27:53Z</time>
      </trkpt>
      <trkpt lat="50.23764" lon="4.78173">
        <ele>235.18</ele>
        <time>2017-03-19T09:28:08Z</time>
      </trkpt>
      <trkpt lat="50.2376" lon="4.78217">
        <ele>234.7</ele>
        <time>2017-03-19T09:28:24Z</time>
      </trkpt>
      <trkpt lat="50.23758" lon="4.78263">
        <ele>234.22</ele>
        <time>2017-03-19T09:28:41Z</time>
      </trkpt>
      <trkpt lat="50.23757" lon="4.78308">
        <ele>233.74</ele>
        <time>2017-03-19T09:29:00Z</time>
      </trkpt>
      <trkpt lat="50.23758" lon="4.78337">
        <ele>233.74</ele>
        <time>2017-03-19T09:29:15Z</time>
      </trkpt>
      <trkpt lat="50.23757" lon="4.78351">
        <ele>234.7</ele>
        <time>2017-03-19T09:29:23Z</time>
      </trkpt>
      <trkpt lat="50.23755" lon="4.78382">
        <ele>235.18</ele>
        <time>2017-03-19T09:29:40Z</time>
      </trkpt>
      <trkpt lat="50.23753" lon="4.78415">
        <ele>235.66</ele>
        <time>2017-03-19T09:29:58Z</time>
      </trkpt>
      <trkpt lat="50.23752" lon="4.78444">
        <ele>236.14</ele>
        <time>2017-03-19T09:30:14Z</time>
      </trkpt>
      <trkpt lat="50.23749" lon="4.78471">
        <ele>236.62</ele>
        <time>2017-03-19T09:30:29Z</time>
      </trkpt>
      <trkpt lat="50.23746" lon="4.78497">
        <ele>236.62</ele>
        <time>2017-03-19T09:30:44Z</time>
      </trkpt>
      <trkpt lat="50.23743" lon="4.78524">
        <ele>236.62</ele>
        <time>2017-03-19T09:30:59Z</time>
      </trkpt>
      <trkpt lat="50.2374" lon="4.78551">
        <ele>236.62</ele>
        <time>2017-03-19T09:31:14Z</time>
      </trkpt>
      <trkpt lat="50.23738" lon="4.78572">
        <ele>235.66</ele>
        <time>2017-03-19T09:31:26Z</time>
      </trkpt>
      <trkpt lat="50.23731" lon="4.78598">
        <ele>235.66</ele>
        <time>2017-03-19T09:31:42Z</time>
      </trkpt>
      <trkpt lat="50.23723" lon="4.78623">
        <ele>235.18</ele>
        <time>2017-03-19T09:31:57Z</time>
      </trkpt>
      <trkpt lat="50.23714" lon="4.7865">
        <ele>235.18</ele>
        <time>2017-03-19T09:32:13Z</time>
      </trkpt>
      <trkpt lat="50.23706" lon="4.78677">
        <ele>233.74</ele>
        <time>2017-03-19T09:32:30Z</time>
      </trkpt>
      <trkpt lat="50.23701" lon="4.78691">
        <ele>235.66</ele>
        <time>2017-03-19T09:32:39Z</time>
      </trkpt>
      <trkpt lat="50.23699" lon="4.78697">
        <ele>234.22</ele>
        <time>2017-03-19T09:32:43Z</time>
      </trkpt>
      <trkpt lat="50.23693" lon="4.78718">
        <ele>233.74</ele>
        <time>2017-03-19T09:32:57Z</time>
      </trkpt>
      <trkpt lat="50.23683" lon="4.78744">
        <ele>233.74</ele>
        <time>2017-03-19T09:33:14Z</time>
      </trkpt>
      <trkpt lat="50.23681" lon="4.78749">
        <ele>233.74</ele>
        <time>2017-03-19T09:33:18Z</time>
      </trkpt>
      <trkpt lat="50.2368" lon="4.78751">
        <ele>233.74</ele>
        <time>2017-03-19T09:33:19Z</time>
      </trkpt>
      <trkpt lat="50.23667" lon="4.78773">
        <ele>233.74</ele>
        <time>2017-03-19T09:33:35Z</time>
      </trkpt>
      <trkpt lat="50.23651" lon="4.78794">
        <ele>235.18</ele>
        <time>2017-03-19T09:33:54Z</time>
      </trkpt>
      <trkpt lat="50.23633" lon="4.78814">
        <ele>236.62</ele>
        <time>2017-03-19T09:34:12Z</time>
      </trkpt>
      <trkpt lat="50.23631" lon="4.78816">
        <ele>237.1</ele>
        <time>2017-03-19T09:34:14Z</time>
      </trkpt>
      <trkpt lat="50.23616" lon="4.7883">
        <ele>237.1</ele>
        <time>2017-03-19T09:34:29Z</time>
      </trkpt>
      <trkpt lat="50.23601" lon="4.78843">
        <ele>236.14</ele>
        <time>2017-03-19T09:34:46Z</time>
      </trkpt>
      <trkpt lat="50.2359" lon="4.78842">
        <ele>237.58</ele>
        <time>2017-03-19T09:34:56Z</time>
      </trkpt>
      <trkpt lat="50.2358" lon="4.7884">
        <ele>237.58</ele>
        <time>2017-03-19T09:35:10Z</time>
      </trkpt>
      <trkpt lat="50.23575" lon="4.78837">
        <ele>237.58</ele>
        <time>2017-03-19T09:35:26Z</time>
      </trkpt>
      <trkpt lat="50.23561" lon="4.78843">
        <ele>237.58</ele>
        <time>2017-03-19T09:35:40Z</time>
      </trkpt>
      <trkpt lat="50.23545" lon="4.78853">
        <ele>237.58</ele>
        <time>2017-03-19T09:35:53Z</time>
      </trkpt>
      <trkpt lat="50.23541" lon="4.78855">
        <ele>236.62</ele>
        <time>2017-03-19T09:35:57Z</time>
      </trkpt>
      <trkpt lat="50.23523" lon="4.78864">
        <ele>236.62</ele>
        <time>2017-03-19T09:36:12Z</time>
      </trkpt>
      <trkpt lat="50.23507" lon="4.78874">
        <ele>236.62</ele>
        <time>2017-03-19T09:36:27Z</time>
      </trkpt>
      <trkpt lat="50.23497" lon="4.78878">
        <ele>236.62</ele>
        <time>2017-03-19T09:36:37Z</time>
      </trkpt>
      <trkpt lat="50.2348" lon="4.78887">
        <ele>237.58</ele>
        <time>2017-03-19T09:36:54Z</time>
      </trkpt>
      <trkpt lat="50.2346" lon="4.78899">
        <ele>237.58</ele>
        <time>2017-03-19T09:37:12Z</time>
      </trkpt>
      <trkpt lat="50.23444" lon="4.78909">
        <ele>238.06</ele>
        <time>2017-03-19T09:37:27Z</time>
      </trkpt>
      <trkpt lat="50.23439" lon="4.78912">
        <ele>238.06</ele>
        <time>2017-03-19T09:37:32Z</time>
      </trkpt>
      <trkpt lat="50.23434" lon="4.78916">
        <ele>238.06</ele>
        <time>2017-03-19T09:37:36Z</time>
      </trkpt>
      <trkpt lat="50.23432" lon="4.78918">
        <ele>236.62</ele>
        <time>2017-03-19T09:37:38Z</time>
      </trkpt>
      <trkpt lat="50.23417" lon="4.78929">
        <ele>236.14</ele>
        <time>2017-03-19T09:37:53Z</time>
      </trkpt>
      <trkpt lat="50.23404" lon="4.78941">
        <ele>235.18</ele>
        <time>2017-03-19T09:38:06Z</time>
      </trkpt>
      <trkpt lat="50.23399" lon="4.78944">
        <ele>235.18</ele>
        <time>2017-03-19T09:38:10Z</time>
      </trkpt>
      <trkpt lat="50.23381" lon="4.78953">
        <ele>234.7</ele>
        <time>2017-03-19T09:38:27Z</time>
      </trkpt>
      <trkpt lat="50.23379" lon="4.78954">
        <ele>234.7</ele>
        <time>2017-03-19T09:38:29Z</time>
      </trkpt>
      <trkpt lat="50.23361" lon="4.78965">
        <ele>235.66</ele>
        <time>2017-03-19T09:38:46Z</time>
      </trkpt>
      <trkpt lat="50.23347" lon="4.78974">
        <ele>236.14</ele>
        <time>2017-03-19T09:39:00Z</time>
      </trkpt>
      <trkpt lat="50.23337" lon="4.78981">
        <ele>236.14</ele>
        <time>2017-03-19T09:39:12Z</time>
      </trkpt>
      <trkpt lat="50.23334" lon="4.78983">
        <ele>234.7</ele>
        <time>2017-03-19T09:39:15Z</time>
      </trkpt>
      <trkpt lat="50.23325" lon="4.78987">
        <ele>234.22</ele>
        <time>2017-03-19T09:39:23Z</time>
      </trkpt>
      <trkpt lat="50.23306" lon="4.78998">
        <ele>233.74</ele>
        <time>2017-03-19T09:39:40Z</time>
      </trkpt>
      <trkpt lat="50.2329" lon="4.7901">
        <ele>233.74</ele>
        <time>2017-03-19T09:39:55Z</time>
      </trkpt>
      <trkpt lat="50.23271" lon="4.79023">
        <ele>233.26</ele>
        <time>2017-03-19T09:40:13Z</time>
      </trkpt>
      <trkpt lat="50.23258" lon="4.79034">
        <ele>232.78</ele>
        <time>2017-03-19T09:40:26Z</time>
      </trkpt>
      <trkpt lat="50.23244" lon="4.79048">
        <ele>231.81</ele>
        <time>2017-03-19T09:40:42Z</time>
      </trkpt>
      <trkpt lat="50.23228" lon="4.79062">
        <ele>231.33</ele>
        <time>2017-03-19T09:40:57Z</time>
      </trkpt>
      <trkpt lat="50.23213" lon="4.79076">
        <ele>230.37</ele>
        <time>2017-03-19T09:41:13Z</time>
      </trkpt>
      <trkpt lat="50.23211" lon="4.79079">
        <ele>230.37</ele>
        <time>2017-03-19T09:41:16Z</time>
      </trkpt>
      <trkpt lat="50.23194" lon="4.79098">
        <ele>228.93</ele>
        <time>2017-03-19T09:41:33Z</time>
      </trkpt>
      <trkpt lat="50.23179" lon="4.79117">
        <ele>227.97</ele>
        <time>2017-03-19T09:41:49Z</time>
      </trkpt>
      <trkpt lat="50.23163" lon="4.79136">
        <ele>226.53</ele>
        <time>2017-03-19T09:42:05Z</time>
      </trkpt>
      <trkpt lat="50.23155" lon="4.79148">
        <ele>226.53</ele>
        <time>2017-03-19T09:42:16Z</time>
      </trkpt>
      <trkpt lat="50.23146" lon="4.79163">
        <ele>226.53</ele>
        <time>2017-03-19T09:42:31Z</time>
      </trkpt>
      <trkpt lat="50.23145" lon="4.79166">
        <ele>226.53</ele>
        <time>2017-03-19T09:42:33Z</time>
      </trkpt>
      <trkpt lat="50.23149" lon="4.79186">
        <ele>226.05</ele>
        <time>2017-03-19T09:42:46Z</time>
      </trkpt>
      <trkpt lat="50.23151" lon="4.79194">
        <ele>227.49</ele>
        <time>2017-03-19T09:42:51Z</time>
      </trkpt>
      <trkpt lat="50.23153" lon="4.79201">
        <ele>227.01</ele>
        <time>2017-03-19T09:42:56Z</time>
      </trkpt>
      <trkpt lat="50.23155" lon="4.79206">
        <ele>228.45</ele>
        <time>2017-03-19T09:43:00Z</time>
      </trkpt>
      <trkpt lat="50.23166" lon="4.79232">
        <ele>227.97</ele>
        <time>2017-03-19T09:43:18Z</time>
      </trkpt>
      <trkpt lat="50.23169" lon="4.79236">
        <ele>227.01</ele>
        <time>2017-03-19T09:43:21Z</time>
      </trkpt>
      <trkpt lat="50.23179" lon="4.79254">
        <ele>228.45</ele>
        <time>2017-03-19T09:43:37Z</time>
      </trkpt>
      <trkpt lat="50.23193" lon="4.79272">
        <ele>228.93</ele>
        <time>2017-03-19T09:43:53Z</time>
      </trkpt>
      <trkpt lat="50.23195" lon="4.79276">
        <ele>228.93</ele>
        <time>2017-03-19T09:43:56Z</time>
      </trkpt>
      <trkpt lat="50.23209" lon="4.79289">
        <ele>229.41</ele>
        <time>2017-03-19T09:44:13Z</time>
      </trkpt>
      <trkpt lat="50.23221" lon="4.793">
        <ele>229.41</ele>
        <time>2017-03-19T09:44:27Z</time>
      </trkpt>
      <trkpt lat="50.23236" lon="4.79313">
        <ele>230.37</ele>
        <time>2017-03-19T09:44:41Z</time>
      </trkpt>
      <trkpt lat="50.23253" lon="4.79321">
        <ele>230.85</ele>
        <time>2017-03-19T09:44:57Z</time>
      </trkpt>
      <trkpt lat="50.2327" lon="4.7933">
        <ele>231.33</ele>
        <time>2017-03-19T09:45:14Z</time>
      </trkpt>
      <trkpt lat="50.23283" lon="4.79335">
        <ele>233.26</ele>
        <time>2017-03-19T09:45:29Z</time>
      </trkpt>
      <trkpt lat="50.23301" lon="4.79351">
        <ele>233.74</ele>
        <time>2017-03-19T09:45:48Z</time>
      </trkpt>
      <trkpt lat="50.23314" lon="4.79369">
        <ele>234.7</ele>
        <time>2017-03-19T09:46:07Z</time>
      </trkpt>
      <trkpt lat="50.23321" lon="4.79387">
        <ele>236.14</ele>
        <time>2017-03-19T09:46:22Z</time>
      </trkpt>
      <trkpt lat="50.23332" lon="4.79406">
        <ele>236.14</ele>
        <time>2017-03-19T09:46:38Z</time>
      </trkpt>
      <trkpt lat="50.23337" lon="4.79417">
        <ele>237.1</ele>
        <time>2017-03-19T09:46:47Z</time>
      </trkpt>
      <trkpt lat="50.23335" lon="4.79427">
        <ele>237.58</ele>
        <time>2017-03-19T09:46:55Z</time>
      </trkpt>
      <trkpt lat="50.23322" lon="4.79443">
        <ele>237.58</ele>
        <time>2017-03-19T09:47:11Z</time>
      </trkpt>
      <trkpt lat="50.23321" lon="4.79443">
        <ele>237.58</ele>
        <time>2017-03-19T09:47:12Z</time>
      </trkpt>
      <trkpt lat="50.23307" lon="4.79453">
        <ele>236.14</ele>
        <time>2017-03-19T09:47:28Z</time>
      </trkpt>
      <trkpt lat="50.23293" lon="4.79464">
        <ele>234.7</ele>
        <time>2017-03-19T09:47:43Z</time>
      </trkpt>
      <trkpt lat="50.23286" lon="4.79471">
        <ele>234.22</ele>
        <time>2017-03-19T09:47:50Z</time>
      </trkpt>
      <trkpt lat="50.2328" lon="4.79477">
        <ele>234.22</ele>
        <time>2017-03-19T09:47:56Z</time>
      </trkpt>
      <trkpt lat="50.23262" lon="4.79498">
        <ele>233.26</ele>
        <time>2017-03-19T09:48:15Z</time>
      </trkpt>
      <trkpt lat="50.23247" lon="4.79515">
        <ele>231.33</ele>
        <time>2017-03-19T09:48:30Z</time>
      </trkpt>
      <trkpt lat="50.23233" lon="4.79531">
        <ele>230.37</ele>
        <time>2017-03-19T09:48:45Z</time>
      </trkpt>
      <trkpt lat="50.23232" lon="4.79532">
        <ele>230.37</ele>
        <time>2017-03-19T09:48:46Z</time>
      </trkpt>
      <trkpt lat="50.23213" lon="4.79544">
        <ele>227.97</ele>
        <time>2017-03-19T09:49:03Z</time>
      </trkpt>
      <trkpt lat="50.23201" lon="4.79548">
        <ele>226.53</ele>
        <time>2017-03-19T09:49:13Z</time>
      </trkpt>
      <trkpt lat="50.23186" lon="4.7954">
        <ele>224.61</ele>
        <time>2017-03-19T09:49:29Z</time>
      </trkpt>
      <trkpt lat="50.23167" lon="4.79536">
        <ele>223.16</ele>
        <time>2017-03-19T09:49:46Z</time>
      </trkpt>
      <trkpt lat="50.23148" lon="4.79542">
        <ele>221.72</ele>
        <time>2017-03-19T09:50:02Z</time>
      </trkpt>
      <trkpt lat="50.23131" lon="4.79546">
        <ele>220.76</ele>
        <time>2017-03-19T09:50:18Z</time>
      </trkpt>
      <trkpt lat="50.23113" lon="4.79552">
        <ele>219.32</ele>
        <time>2017-03-19T09:50:35Z</time>
      </trkpt>
      <trkpt lat="50.23112" lon="4.79552">
        <ele>219.32</ele>
        <time>2017-03-19T09:50:37Z</time>
      </trkpt>
      <trkpt lat="50.23106" lon="4.79555">
        <ele>218.84</ele>
        <time>2017-03-19T09:50:43Z</time>
      </trkpt>
      <trkpt lat="50.23091" lon="4.79559">
        <ele>218.84</ele>
        <time>2017-03-19T09:50:56Z</time>
      </trkpt>
      <trkpt lat="50.2307" lon="4.79563">
        <ele>218.36</ele>
        <time>2017-03-19T09:51:14Z</time>
      </trkpt>
      <trkpt lat="50.23051" lon="4.79568">
        <ele>216.91</ele>
        <time>2017-03-19T09:51:30Z</time>
      </trkpt>
      <trkpt lat="50.23034" lon="4.79574">
        <ele>215.95</ele>
        <time>2017-03-19T09:51:46Z</time>
      </trkpt>
      <trkpt lat="50.23017" lon="4.79586">
        <ele>214.51</ele>
        <time>2017-03-19T09:52:02Z</time>
      </trkpt>
      <trkpt lat="50.23004" lon="4.79603">
        <ele>212.59</ele>
        <time>2017-03-19T09:52:17Z</time>
      </trkpt>
      <trkpt lat="50.22991" lon="4.79623">
        <ele>212.11</ele>
        <time>2017-03-19T09:52:32Z</time>
      </trkpt>
      <trkpt lat="50.22977" lon="4.79645">
        <ele>211.15</ele>
        <time>2017-03-19T09:52:49Z</time>
      </trkpt>
      <trkpt lat="50.22961" lon="4.79665">
        <ele>210.67</ele>
        <time>2017-03-19T09:53:06Z</time>
      </trkpt>
      <trkpt lat="50.22945" lon="4.79678">
        <ele>209.7</ele>
        <time>2017-03-19T09:53:21Z</time>
      </trkpt>
      <trkpt lat="50.22941" lon="4.7968">
        <ele>209.22</ele>
        <time>2017-03-19T09:53:25Z</time>
      </trkpt>
      <trkpt lat="50.22924" lon="4.79684">
        <ele>207.3</ele>
        <time>2017-03-19T09:53:41Z</time>
      </trkpt>
      <trkpt lat="50.22913" lon="4.79686">
        <ele>208.26</ele>
        <time>2017-03-19T09:53:50Z</time>
      </trkpt>
      <trkpt lat="50.22905" lon="4.79686">
        <ele>207.78</ele>
        <time>2017-03-19T09:53:57Z</time>
      </trkpt>
      <trkpt lat="50.22888" lon="4.79685">
        <ele>206.34</ele>
        <time>2017-03-19T09:54:12Z</time>
      </trkpt>
      <trkpt lat="50.22869" lon="4.79684">
        <ele>204.9</ele>
        <time>2017-03-19T09:54:29Z</time>
      </trkpt>
      <trkpt lat="50.22863" lon="4.79684">
        <ele>204.42</ele>
        <time>2017-03-19T09:54:36Z</time>
      </trkpt>
      <trkpt lat="50.2284" lon="4.79685">
        <ele>203.46</ele>
        <time>2017-03-19T09:54:55Z</time>
      </trkpt>
      <trkpt lat="50.22819" lon="4.79688">
        <ele>202.98</ele>
        <time>2017-03-19T09:55:13Z</time>
      </trkpt>
      <trkpt lat="50.22801" lon="4.79688">
        <ele>201.53</ele>
        <time>2017-03-19T09:55:29Z</time>
      </trkpt>
      <trkpt lat="50.22783" lon="4.7969">
        <ele>201.53</ele>
        <time>2017-03-19T09:55:45Z</time>
      </trkpt>
      <trkpt lat="50.22768" lon="4.79691">
        <ele>202.49</ele>
        <time>2017-03-19T09:55:58Z</time>
      </trkpt>
      <trkpt lat="50.2275" lon="4.79693">
        <ele>202.49</ele>
        <time>2017-03-19T09:56:14Z</time>
      </trkpt>
      <trkpt lat="50.22735" lon="4.79697">
        <ele>201.05</ele>
        <time>2017-03-19T09:56:27Z</time>
      </trkpt>
      <trkpt lat="50.2272" lon="4.79701">
        <ele>200.57</ele>
        <time>2017-03-19T09:56:40Z</time>
      </trkpt>
      <trkpt lat="50.22709" lon="4.79706">
        <ele>200.09</ele>
        <time>2017-03-19T09:56:50Z</time>
      </trkpt>
      <trkpt lat="50.2269" lon="4.79714">
        <ele>199.61</ele>
        <time>2017-03-19T09:57:07Z</time>
      </trkpt>
      <trkpt lat="50.22675" lon="4.7972">
        <ele>199.13</ele>
        <time>2017-03-19T09:57:20Z</time>
      </trkpt>
      <trkpt lat="50.22661" lon="4.79724">
        <ele>198.65</ele>
        <time>2017-03-19T09:57:33Z</time>
      </trkpt>
      <trkpt lat="50.22645" lon="4.79734">
        <ele>197.69</ele>
        <time>2017-03-19T09:57:49Z</time>
      </trkpt>
      <trkpt lat="50.22634" lon="4.79751">
        <ele>196.25</ele>
        <time>2017-03-19T09:58:04Z</time>
      </trkpt>
      <trkpt lat="50.22628" lon="4.79769">
        <ele>195.77</ele>
        <time>2017-03-19T09:58:17Z</time>
      </trkpt>
      <trkpt lat="50.22615" lon="4.7979">
        <ele>195.28</ele>
        <time>2017-03-19T09:58:32Z</time>
      </trkpt>
      <trkpt lat="50.22604" lon="4.79797">
        <ele>194.32</ele>
        <time>2017-03-19T09:58:42Z</time>
      </trkpt>
      <trkpt lat="50.22592" lon="4.79797">
        <ele>195.28</ele>
        <time>2017-03-19T09:58:52Z</time>
      </trkpt>
      <trkpt lat="50.22584" lon="4.79795">
        <ele>193.84</ele>
        <time>2017-03-19T09:59:03Z</time>
      </trkpt>
      <trkpt lat="50.22582" lon="4.79794">
        <ele>193.36</ele>
        <time>2017-03-19T09:59:17Z</time>
      </trkpt>
      <trkpt lat="50.22582" lon="4.79794">
        <ele>194.32</ele>
        <time>2017-03-19T09:59:37Z</time>
      </trkpt>
      <trkpt lat="50.2258" lon="4.79797">
        <ele>194.32</ele>
        <time>2017-03-19T09:59:50Z</time>
      </trkpt>
      <trkpt lat="50.22579" lon="4.79798">
        <ele>194.32</ele>
        <time>2017-03-19T10:00:03Z</time>
      </trkpt>
      <trkpt lat="50.22575" lon="4.79795">
        <ele>192.88</ele>
        <time>2017-03-19T10:00:11Z</time>
      </trkpt>
      <trkpt lat="50.22561" lon="4.79788">
        <ele>191.92</ele>
        <time>2017-03-19T10:00:26Z</time>
      </trkpt>
      <trkpt lat="50.2255" lon="4.79786">
        <ele>190.48</ele>
        <time>2017-03-19T10:00:39Z</time>
      </trkpt>
      <trkpt lat="50.22534" lon="4.79791">
        <ele>190.48</ele>
        <time>2017-03-19T10:00:53Z</time>
      </trkpt>
      <trkpt lat="50.22523" lon="4.79805">
        <ele>189.04</ele>
        <time>2017-03-19T10:01:06Z</time>
      </trkpt>
      <trkpt lat="50.22511" lon="4.79823">
        <ele>187.59</ele>
        <time>2017-03-19T10:01:22Z</time>
      </trkpt>
      <trkpt lat="50.225" lon="4.79839">
        <ele>186.15</ele>
        <time>2017-03-19T10:01:37Z</time>
      </trkpt>
      <trkpt lat="50.22495" lon="4.79843">
        <ele>185.19</ele>
        <time>2017-03-19T10:01:43Z</time>
      </trkpt>
      <trkpt lat="50.22479" lon="4.7985">
        <ele>184.71</ele>
        <time>2017-03-19T10:01:57Z</time>
      </trkpt>
      <trkpt lat="50.22467" lon="4.79865">
        <ele>182.79</ele>
        <time>2017-03-19T10:02:10Z</time>
      </trkpt>
      <trkpt lat="50.22457" lon="4.79889">
        <ele>180.87</ele>
        <time>2017-03-19T10:02:27Z</time>
      </trkpt>
      <trkpt lat="50.22456" lon="4.79893">
        <ele>180.87</ele>
        <time>2017-03-19T10:02:30Z</time>
      </trkpt>
      <trkpt lat="50.22458" lon="4.7992">
        <ele>180.87</ele>
        <time>2017-03-19T10:02:45Z</time>
      </trkpt>
      <trkpt lat="50.22459" lon="4.79922">
        <ele>181.83</ele>
        <time>2017-03-19T10:02:47Z</time>
      </trkpt>
      <trkpt lat="50.22475" lon="4.79932">
        <ele>183.27</ele>
        <time>2017-03-19T10:03:03Z</time>
      </trkpt>
      <trkpt lat="50.2249" lon="4.79946">
        <ele>185.19</ele>
        <time>2017-03-19T10:03:18Z</time>
      </trkpt>
      <trkpt lat="50.22505" lon="4.79962">
        <ele>187.59</ele>
        <time>2017-03-19T10:03:35Z</time>
      </trkpt>
      <trkpt lat="50.22506" lon="4.79963">
        <ele>187.59</ele>
        <time>2017-03-19T10:03:36Z</time>
      </trkpt>
      <trkpt lat="50.22517" lon="4.79979">
        <ele>189.04</ele>
        <time>2017-03-19T10:03:52Z</time>
      </trkpt>
      <trkpt lat="50.22521" lon="4.79995">
        <ele>190.96</ele>
        <time>2017-03-19T10:04:06Z</time>
      </trkpt>
      <trkpt lat="50.22522" lon="4.79998">
        <ele>190.96</ele>
        <time>2017-03-19T10:04:08Z</time>
      </trkpt>
      <trkpt lat="50.22533" lon="4.80024">
        <ele>192.4</ele>
        <time>2017-03-19T10:04:27Z</time>
      </trkpt>
      <trkpt lat="50.22537" lon="4.80027">
        <ele>192.4</ele>
        <time>2017-03-19T10:04:43Z</time>
      </trkpt>
      <trkpt lat="50.22544" lon="4.80041">
        <ele>192.4</ele>
        <time>2017-03-19T10:04:56Z</time>
      </trkpt>
      <trkpt lat="50.22557" lon="4.80056">
        <ele>192.4</ele>
        <time>2017-03-19T10:05:10Z</time>
      </trkpt>
      <trkpt lat="50.22566" lon="4.80065">
        <ele>193.36</ele>
        <time>2017-03-19T10:05:21Z</time>
      </trkpt>
      <trkpt lat="50.22569" lon="4.80068">
        <ele>193.36</ele>
        <time>2017-03-19T10:05:25Z</time>
      </trkpt>
      <trkpt lat="50.22572" lon="4.80071">
        <ele>193.36</ele>
        <time>2017-03-19T10:05:36Z</time>
      </trkpt>
      <trkpt lat="50.22573" lon="4.80071">
        <ele>193.36</ele>
        <time>2017-03-19T10:05:48Z</time>
      </trkpt>
      <trkpt lat="50.22573" lon="4.80073">
        <ele>193.36</ele>
        <time>2017-03-19T10:06:09Z</time>
      </trkpt>
      <trkpt lat="50.22575" lon="4.80074">
        <ele>193.36</ele>
        <time>2017-03-19T10:06:34Z</time>
      </trkpt>
      <trkpt lat="50.22583" lon="4.80075">
        <ele>193.36</ele>
        <time>2017-03-19T10:06:48Z</time>
      </trkpt>
      <trkpt lat="50.226" lon="4.80078">
        <ele>193.36</ele>
        <time>2017-03-19T10:07:03Z</time>
      </trkpt>
      <trkpt lat="50.2261" lon="4.80082">
        <ele>193.36</ele>
        <time>2017-03-19T10:07:16Z</time>
      </trkpt>
      <trkpt lat="50.22618" lon="4.80084">
        <ele>192.4</ele>
        <time>2017-03-19T10:07:23Z</time>
      </trkpt>
      <trkpt lat="50.22624" lon="4.80084">
        <ele>192.4</ele>
        <time>2017-03-19T10:07:28Z</time>
      </trkpt>
      <trkpt lat="50.22627" lon="4.80084">
        <ele>192.4</ele>
        <time>2017-03-19T10:07:31Z</time>
      </trkpt>
      <trkpt lat="50.22644" lon="4.80087">
        <ele>192.4</ele>
        <time>2017-03-19T10:07:47Z</time>
      </trkpt>
      <trkpt lat="50.22661" lon="4.80092">
        <ele>191.92</ele>
        <time>2017-03-19T10:08:02Z</time>
      </trkpt>
      <trkpt lat="50.22676" lon="4.80097">
        <ele>191.92</ele>
        <time>2017-03-19T10:08:16Z</time>
      </trkpt>
      <trkpt lat="50.22693" lon="4.80103">
        <ele>191.92</ele>
        <time>2017-03-19T10:08:32Z</time>
      </trkpt>
      <trkpt lat="50.22709" lon="4.80111">
        <ele>192.88</ele>
        <time>2017-03-19T10:08:47Z</time>
      </trkpt>
      <trkpt lat="50.22726" lon="4.80118">
        <ele>193.84</ele>
        <time>2017-03-19T10:09:03Z</time>
      </trkpt>
      <trkpt lat="50.22744" lon="4.80125">
        <ele>194.32</ele>
        <time>2017-03-19T10:09:19Z</time>
      </trkpt>
      <trkpt lat="50.22761" lon="4.80133">
        <ele>194.8</ele>
        <time>2017-03-19T10:09:36Z</time>
      </trkpt>
      <trkpt lat="50.22778" lon="4.8014">
        <ele>194.8</ele>
        <time>2017-03-19T10:09:52Z</time>
      </trkpt>
      <trkpt lat="50.22794" lon="4.80148">
        <ele>195.28</ele>
        <time>2017-03-19T10:10:07Z</time>
      </trkpt>
      <trkpt lat="50.2281" lon="4.80167">
        <ele>196.25</ele>
        <time>2017-03-19T10:10:27Z</time>
      </trkpt>
      <trkpt lat="50.22817" lon="4.80188">
        <ele>196.73</ele>
        <time>2017-03-19T10:10:41Z</time>
      </trkpt>
      <trkpt lat="50.22826" lon="4.8021">
        <ele>196.73</ele>
        <time>2017-03-19T10:10:56Z</time>
      </trkpt>
      <trkpt lat="50.22837" lon="4.80231">
        <ele>197.69</ele>
        <time>2017-03-19T10:11:11Z</time>
      </trkpt>
      <trkpt lat="50.22848" lon="4.80247">
        <ele>197.69</ele>
        <time>2017-03-19T10:11:25Z</time>
      </trkpt>
      <trkpt lat="50.22862" lon="4.80262">
        <ele>198.17</ele>
        <time>2017-03-19T10:11:40Z</time>
      </trkpt>
      <trkpt lat="50.22863" lon="4.80264">
        <ele>198.65</ele>
        <time>2017-03-19T10:11:42Z</time>
      </trkpt>
      <trkpt lat="50.22877" lon="4.80275">
        <ele>199.13</ele>
        <time>2017-03-19T10:11:56Z</time>
      </trkpt>
      <trkpt lat="50.22889" lon="4.80287">
        <ele>200.09</ele>
        <time>2017-03-19T10:12:10Z</time>
      </trkpt>
      <trkpt lat="50.229" lon="4.80296">
        <ele>200.57</ele>
        <time>2017-03-19T10:12:22Z</time>
      </trkpt>
      <trkpt lat="50.22912" lon="4.80309">
        <ele>200.57</ele>
        <time>2017-03-19T10:12:35Z</time>
      </trkpt>
      <trkpt lat="50.22924" lon="4.80324">
        <ele>201.05</ele>
        <time>2017-03-19T10:12:49Z</time>
      </trkpt>
      <trkpt lat="50.22938" lon="4.80339">
        <ele>201.53</ele>
        <time>2017-03-19T10:13:04Z</time>
      </trkpt>
      <trkpt lat="50.22954" lon="4.80351">
        <ele>202.01</ele>
        <time>2017-03-19T10:13:20Z</time>
      </trkpt>
      <trkpt lat="50.2297" lon="4.80364">
        <ele>202.01</ele>
        <time>2017-03-19T10:13:35Z</time>
      </trkpt>
      <trkpt lat="50.22984" lon="4.80376">
        <ele>202.01</ele>
        <time>2017-03-19T10:13:51Z</time>
      </trkpt>
      <trkpt lat="50.22997" lon="4.80388">
        <ele>202.49</ele>
        <time>2017-03-19T10:14:05Z</time>
      </trkpt>
      <trkpt lat="50.23008" lon="4.80402">
        <ele>202.98</ele>
        <time>2017-03-19T10:14:17Z</time>
      </trkpt>
      <trkpt lat="50.23013" lon="4.8041">
        <ele>201.53</ele>
        <time>2017-03-19T10:14:24Z</time>
      </trkpt>
      <trkpt lat="50.23022" lon="4.80422">
        <ele>201.53</ele>
        <time>2017-03-19T10:14:34Z</time>
      </trkpt>
      <trkpt lat="50.23036" lon="4.80436">
        <ele>201.53</ele>
        <time>2017-03-19T10:14:49Z</time>
      </trkpt>
      <trkpt lat="50.23051" lon="4.80446">
        <ele>202.98</ele>
        <time>2017-03-19T10:15:03Z</time>
      </trkpt>
      <trkpt lat="50.23069" lon="4.80455">
        <ele>202.98</ele>
        <time>2017-03-19T10:15:18Z</time>
      </trkpt>
      <trkpt lat="50.23085" lon="4.8046">
        <ele>203.94</ele>
        <time>2017-03-19T10:15:32Z</time>
      </trkpt>
      <trkpt lat="50.23103" lon="4.80464">
        <ele>203.94</ele>
        <time>2017-03-19T10:15:48Z</time>
      </trkpt>
      <trkpt lat="50.23109" lon="4.80464">
        <ele>202.49</ele>
        <time>2017-03-19T10:15:53Z</time>
      </trkpt>
      <trkpt lat="50.23127" lon="4.80473">
        <ele>202.01</ele>
        <time>2017-03-19T10:16:10Z</time>
      </trkpt>
      <trkpt lat="50.23129" lon="4.80476">
        <ele>202.01</ele>
        <time>2017-03-19T10:16:13Z</time>
      </trkpt>
      <trkpt lat="50.23152" lon="4.80496">
        <ele>201.05</ele>
        <time>2017-03-19T10:16:34Z</time>
      </trkpt>
      <trkpt lat="50.23164" lon="4.8052">
        <ele>201.05</ele>
        <time>2017-03-19T10:16:51Z</time>
      </trkpt>
      <trkpt lat="50.23162" lon="4.80544">
        <ele>201.05</ele>
        <time>2017-03-19T10:17:04Z</time>
      </trkpt>
      <trkpt lat="50.23149" lon="4.80556">
        <ele>202.01</ele>
        <time>2017-03-19T10:17:16Z</time>
      </trkpt>
      <trkpt lat="50.23147" lon="4.80557">
        <ele>202.01</ele>
        <time>2017-03-19T10:17:18Z</time>
      </trkpt>
      <trkpt lat="50.23141" lon="4.80562">
        <ele>202.01</ele>
        <time>2017-03-19T10:17:23Z</time>
      </trkpt>
      <trkpt lat="50.23139" lon="4.80562">
        <ele>202.49</ele>
        <time>2017-03-19T10:17:25Z</time>
      </trkpt>
      <trkpt lat="50.23132" lon="4.80565">
        <ele>202.98</ele>
        <time>2017-03-19T10:17:32Z</time>
      </trkpt>
      <trkpt lat="50.2313" lon="4.80569">
        <ele>203.46</ele>
        <time>2017-03-19T10:17:37Z</time>
      </trkpt>
      <trkpt lat="50.23124" lon="4.80578">
        <ele>204.42</ele>
        <time>2017-03-19T10:17:48Z</time>
      </trkpt>
      <trkpt lat="50.23117" lon="4.80596">
        <ele>206.34</ele>
        <time>2017-03-19T10:18:02Z</time>
      </trkpt>
      <trkpt lat="50.23115" lon="4.806">
        <ele>207.3</ele>
        <time>2017-03-19T10:18:05Z</time>
      </trkpt>
      <trkpt lat="50.23113" lon="4.80612">
        <ele>209.22</ele>
        <time>2017-03-19T10:18:20Z</time>
      </trkpt>
      <trkpt lat="50.23113" lon="4.80617">
        <ele>209.22</ele>
        <time>2017-03-19T10:18:25Z</time>
      </trkpt>
      <trkpt lat="50.23104" lon="4.80637">
        <ele>210.67</ele>
        <time>2017-03-19T10:18:39Z</time>
      </trkpt>
      <trkpt lat="50.23098" lon="4.80658">
        <ele>212.59</ele>
        <time>2017-03-19T10:18:53Z</time>
      </trkpt>
      <trkpt lat="50.23092" lon="4.8068">
        <ele>214.03</ele>
        <time>2017-03-19T10:19:08Z</time>
      </trkpt>
      <trkpt lat="50.23086" lon="4.80703">
        <ele>215.47</ele>
        <time>2017-03-19T10:19:23Z</time>
      </trkpt>
      <trkpt lat="50.23083" lon="4.80718">
        <ele>216.43</ele>
        <time>2017-03-19T10:19:38Z</time>
      </trkpt>
      <trkpt lat="50.23077" lon="4.80732">
        <ele>216.91</ele>
        <time>2017-03-19T10:19:50Z</time>
      </trkpt>
      <trkpt lat="50.23069" lon="4.80749">
        <ele>217.88</ele>
        <time>2017-03-19T10:20:03Z</time>
      </trkpt>
      <trkpt lat="50.23058" lon="4.80771">
        <ele>220.76</ele>
        <time>2017-03-19T10:20:20Z</time>
      </trkpt>
      <trkpt lat="50.23056" lon="4.80777">
        <ele>220.76</ele>
        <time>2017-03-19T10:20:25Z</time>
      </trkpt>
      <trkpt lat="50.23047" lon="4.80801">
        <ele>221.24</ele>
        <time>2017-03-19T10:20:40Z</time>
      </trkpt>
      <trkpt lat="50.23045" lon="4.80808">
        <ele>221.24</ele>
        <time>2017-03-19T10:20:45Z</time>
      </trkpt>
      <trkpt lat="50.23038" lon="4.80828">
        <ele>223.16</ele>
        <time>2017-03-19T10:20:59Z</time>
      </trkpt>
      <trkpt lat="50.23033" lon="4.80849">
        <ele>224.12</ele>
        <time>2017-03-19T10:21:13Z</time>
      </trkpt>
      <trkpt lat="50.23033" lon="4.8085">
        <ele>224.12</ele>
        <time>2017-03-19T10:21:14Z</time>
      </trkpt>
      <trkpt lat="50.23031" lon="4.80856">
        <ele>224.12</ele>
        <time>2017-03-19T10:21:18Z</time>
      </trkpt>
      <trkpt lat="50.23029" lon="4.80865">
        <ele>224.12</ele>
        <time>2017-03-19T10:21:23Z</time>
      </trkpt>
      <trkpt lat="50.23025" lon="4.80875">
        <ele>225.09</ele>
        <time>2017-03-19T10:21:29Z</time>
      </trkpt>
      <trkpt lat="50.23024" lon="4.80878">
        <ele>225.09</ele>
        <time>2017-03-19T10:21:31Z</time>
      </trkpt>
      <trkpt lat="50.23017" lon="4.80898">
        <ele>225.09</ele>
        <time>2017-03-19T10:21:45Z</time>
      </trkpt>
      <trkpt lat="50.23014" lon="4.80908">
        <ele>226.05</ele>
        <time>2017-03-19T10:21:51Z</time>
      </trkpt>
      <trkpt lat="50.23009" lon="4.80929">
        <ele>226.05</ele>
        <time>2017-03-19T10:22:06Z</time>
      </trkpt>
      <trkpt lat="50.23005" lon="4.80937">
        <ele>226.53</ele>
        <time>2017-03-19T10:22:18Z</time>
      </trkpt>
      <trkpt lat="50.23001" lon="4.80934">
        <ele>225.09</ele>
        <time>2017-03-19T10:22:31Z</time>
      </trkpt>
      <trkpt lat="50.23" lon="4.80934">
        <ele>221.72</ele>
        <time>2017-03-19T10:22:34Z</time>
      </trkpt>
      <trkpt lat="50.22999" lon="4.80934">
        <ele>227.49</ele>
        <time>2017-03-19T10:22:35Z</time>
      </trkpt>
      <trkpt lat="50.22999" lon="4.80933">
        <ele>226.53</ele>
        <time>2017-03-19T10:22:59Z</time>
      </trkpt>
      <trkpt lat="50.22999" lon="4.80933">
        <ele>220.28</ele>
        <time>2017-03-19T10:23:07Z</time>
      </trkpt>
      <trkpt lat="50.22999" lon="4.80933">
        <ele>232.3</ele>
        <time>2017-03-19T10:23:08Z</time>
      </trkpt>
      <trkpt lat="50.22999" lon="4.80933">
        <ele>225.09</ele>
        <time>2017-03-19T10:23:09Z</time>
      </trkpt>
      <trkpt lat="50.23001" lon="4.80934">
        <ele>227.49</ele>
        <time>2017-03-19T10:23:11Z</time>
      </trkpt>
      <trkpt lat="50.23002" lon="4.80952">
        <ele>226.05</ele>
        <time>2017-03-19T10:23:20Z</time>
      </trkpt>
      <trkpt lat="50.22995" lon="4.80995">
        <ele>226.53</ele>
        <time>2017-03-19T10:23:39Z</time>
      </trkpt>
      <trkpt lat="50.22988" lon="4.81032">
        <ele>226.05</ele>
        <time>2017-03-19T10:23:59Z</time>
      </trkpt>
      <trkpt lat="50.22985" lon="4.81063">
        <ele>225.57</ele>
        <time>2017-03-19T10:24:17Z</time>
      </trkpt>
      <trkpt lat="50.22986" lon="4.81097">
        <ele>225.09</ele>
        <time>2017-03-19T10:24:36Z</time>
      </trkpt>
      <trkpt lat="50.22986" lon="4.8111">
        <ele>224.61</ele>
        <time>2017-03-19T10:24:43Z</time>
      </trkpt>
      <trkpt lat="50.22988" lon="4.81137">
        <ele>224.12</ele>
        <time>2017-03-19T10:24:58Z</time>
      </trkpt>
      <trkpt lat="50.22991" lon="4.81163">
        <ele>223.16</ele>
        <time>2017-03-19T10:25:13Z</time>
      </trkpt>
      <trkpt lat="50.22997" lon="4.81196">
        <ele>222.68</ele>
        <time>2017-03-19T10:25:31Z</time>
      </trkpt>
      <trkpt lat="50.23004" lon="4.81226">
        <ele>221.72</ele>
        <time>2017-03-19T10:25:49Z</time>
      </trkpt>
      <trkpt lat="50.23012" lon="4.81255">
        <ele>221.72</ele>
        <time>2017-03-19T10:26:06Z</time>
      </trkpt>
      <trkpt lat="50.23025" lon="4.81285">
        <ele>221.24</ele>
        <time>2017-03-19T10:26:24Z</time>
      </trkpt>
      <trkpt lat="50.23035" lon="4.81309">
        <ele>220.76</ele>
        <time>2017-03-19T10:26:38Z</time>
      </trkpt>
      <trkpt lat="50.23043" lon="4.81331">
        <ele>220.76</ele>
        <time>2017-03-19T10:26:52Z</time>
      </trkpt>
      <trkpt lat="50.23049" lon="4.81346">
        <ele>220.28</ele>
        <time>2017-03-19T10:27:01Z</time>
      </trkpt>
      <trkpt lat="50.23052" lon="4.81353">
        <ele>220.28</ele>
        <time>2017-03-19T10:27:17Z</time>
      </trkpt>
      <trkpt lat="50.23053" lon="4.81357">
        <ele>220.28</ele>
        <time>2017-03-19T10:27:24Z</time>
      </trkpt>
      <trkpt lat="50.23062" lon="4.81376">
        <ele>220.28</ele>
        <time>2017-03-19T10:27:38Z</time>
      </trkpt>
      <trkpt lat="50.23073" lon="4.81399">
        <ele>219.8</ele>
        <time>2017-03-19T10:27:54Z</time>
      </trkpt>
      <trkpt lat="50.23082" lon="4.8142">
        <ele>219.8</ele>
        <time>2017-03-19T10:28:08Z</time>
      </trkpt>
      <trkpt lat="50.23092" lon="4.81443">
        <ele>219.32</ele>
        <time>2017-03-19T10:28:23Z</time>
      </trkpt>
      <trkpt lat="50.23101" lon="4.81462">
        <ele>219.32</ele>
        <time>2017-03-19T10:28:36Z</time>
      </trkpt>
      <trkpt lat="50.23111" lon="4.81483">
        <ele>219.32</ele>
        <time>2017-03-19T10:28:50Z</time>
      </trkpt>
      <trkpt lat="50.2312" lon="4.81506">
        <ele>218.84</ele>
        <time>2017-03-19T10:29:04Z</time>
      </trkpt>
      <trkpt lat="50.2313" lon="4.81526">
        <ele>218.36</ele>
        <time>2017-03-19T10:29:18Z</time>
      </trkpt>
      <trkpt lat="50.23131" lon="4.81528">
        <ele>218.36</ele>
        <time>2017-03-19T10:29:19Z</time>
      </trkpt>
      <trkpt lat="50.23141" lon="4.81549">
        <ele>217.88</ele>
        <time>2017-03-19T10:29:33Z</time>
      </trkpt>
      <trkpt lat="50.23152" lon="4.81571">
        <ele>217.4</ele>
        <time>2017-03-19T10:29:47Z</time>
      </trkpt>
      <trkpt lat="50.23162" lon="4.81592">
        <ele>217.4</ele>
        <time>2017-03-19T10:30:01Z</time>
      </trkpt>
      <trkpt lat="50.23166" lon="4.81603">
        <ele>216.91</ele>
        <time>2017-03-19T10:30:09Z</time>
      </trkpt>
      <trkpt lat="50.23171" lon="4.8161">
        <ele>216.91</ele>
        <time>2017-03-19T10:30:15Z</time>
      </trkpt>
      <trkpt lat="50.23175" lon="4.81622">
        <ele>216.43</ele>
        <time>2017-03-19T10:30:27Z</time>
      </trkpt>
      <trkpt lat="50.23185" lon="4.81642">
        <ele>215.47</ele>
        <time>2017-03-19T10:30:41Z</time>
      </trkpt>
      <trkpt lat="50.23194" lon="4.81661">
        <ele>214.99</ele>
        <time>2017-03-19T10:30:54Z</time>
      </trkpt>
      <trkpt lat="50.23203" lon="4.8168">
        <ele>214.03</ele>
        <time>2017-03-19T10:31:07Z</time>
      </trkpt>
      <trkpt lat="50.23205" lon="4.81684">
        <ele>214.03</ele>
        <time>2017-03-19T10:31:10Z</time>
      </trkpt>
      <trkpt lat="50.23208" lon="4.81691">
        <ele>213.55</ele>
        <time>2017-03-19T10:31:15Z</time>
      </trkpt>
      <trkpt lat="50.23221" lon="4.81714">
        <ele>214.03</ele>
        <time>2017-03-19T10:31:31Z</time>
      </trkpt>
      <trkpt lat="50.23232" lon="4.81735">
        <ele>213.55</ele>
        <time>2017-03-19T10:31:46Z</time>
      </trkpt>
      <trkpt lat="50.23243" lon="4.81754">
        <ele>213.55</ele>
        <time>2017-03-19T10:32:00Z</time>
      </trkpt>
      <trkpt lat="50.23255" lon="4.81773">
        <ele>213.55</ele>
        <time>2017-03-19T10:32:14Z</time>
      </trkpt>
      <trkpt lat="50.23267" lon="4.81792">
        <ele>213.55</ele>
        <time>2017-03-19T10:32:29Z</time>
      </trkpt>
      <trkpt lat="50.23278" lon="4.8181">
        <ele>213.55</ele>
        <time>2017-03-19T10:32:43Z</time>
      </trkpt>
      <trkpt lat="50.23289" lon="4.81831">
        <ele>215.47</ele>
        <time>2017-03-19T10:32:58Z</time>
      </trkpt>
      <trkpt lat="50.23299" lon="4.8185">
        <ele>215.95</ele>
        <time>2017-03-19T10:33:12Z</time>
      </trkpt>
      <trkpt lat="50.23302" lon="4.81855">
        <ele>215.95</ele>
        <time>2017-03-19T10:33:16Z</time>
      </trkpt>
      <trkpt lat="50.23305" lon="4.81861">
        <ele>216.43</ele>
        <time>2017-03-19T10:33:20Z</time>
      </trkpt>
      <trkpt lat="50.23318" lon="4.81886">
        <ele>216.43</ele>
        <time>2017-03-19T10:33:37Z</time>
      </trkpt>
      <trkpt lat="50.23327" lon="4.81905">
        <ele>216.43</ele>
        <time>2017-03-19T10:33:51Z</time>
      </trkpt>
      <trkpt lat="50.23338" lon="4.81926">
        <ele>216.91</ele>
        <time>2017-03-19T10:34:06Z</time>
      </trkpt>
      <trkpt lat="50.23347" lon="4.81943">
        <ele>216.91</ele>
        <time>2017-03-19T10:34:19Z</time>
      </trkpt>
      <trkpt lat="50.23358" lon="4.81965">
        <ele>216.91</ele>
        <time>2017-03-19T10:34:35Z</time>
      </trkpt>
      <trkpt lat="50.23364" lon="4.81979">
        <ele>216.91</ele>
        <time>2017-03-19T10:34:45Z</time>
      </trkpt>
      <trkpt lat="50.23373" lon="4.81998">
        <ele>216.91</ele>
        <time>2017-03-19T10:34:59Z</time>
      </trkpt>
      <trkpt lat="50.2338" lon="4.82015">
        <ele>215.47</ele>
        <time>2017-03-19T10:35:10Z</time>
      </trkpt>
      <trkpt lat="50.23389" lon="4.82038">
        <ele>215.47</ele>
        <time>2017-03-19T10:35:25Z</time>
      </trkpt>
      <trkpt lat="50.23394" lon="4.82051">
        <ele>215.47</ele>
        <time>2017-03-19T10:35:34Z</time>
      </trkpt>
      <trkpt lat="50.23402" lon="4.82073">
        <ele>215.47</ele>
        <time>2017-03-19T10:35:48Z</time>
      </trkpt>
      <trkpt lat="50.23412" lon="4.82095">
        <ele>215.47</ele>
        <time>2017-03-19T10:36:03Z</time>
      </trkpt>
      <trkpt lat="50.2342" lon="4.82117">
        <ele>214.99</ele>
        <time>2017-03-19T10:36:17Z</time>
      </trkpt>
      <trkpt lat="50.23429" lon="4.82131">
        <ele>214.99</ele>
        <time>2017-03-19T10:36:31Z</time>
      </trkpt>
      <trkpt lat="50.23433" lon="4.8214">
        <ele>214.99</ele>
        <time>2017-03-19T10:36:41Z</time>
      </trkpt>
      <trkpt lat="50.23435" lon="4.8215">
        <ele>214.99</ele>
        <time>2017-03-19T10:36:48Z</time>
      </trkpt>
      <trkpt lat="50.23447" lon="4.8217">
        <ele>214.99</ele>
        <time>2017-03-19T10:37:04Z</time>
      </trkpt>
      <trkpt lat="50.23456" lon="4.82189">
        <ele>214.99</ele>
        <time>2017-03-19T10:37:18Z</time>
      </trkpt>
      <trkpt lat="50.23466" lon="4.82209">
        <ele>214.99</ele>
        <time>2017-03-19T10:37:33Z</time>
      </trkpt>
      <trkpt lat="50.23474" lon="4.82225">
        <ele>214.99</ele>
        <time>2017-03-19T10:37:46Z</time>
      </trkpt>
      <trkpt lat="50.23484" lon="4.82242">
        <ele>214.99</ele>
        <time>2017-03-19T10:37:59Z</time>
      </trkpt>
      <trkpt lat="50.23494" lon="4.82258">
        <ele>216.43</ele>
        <time>2017-03-19T10:38:13Z</time>
      </trkpt>
      <trkpt lat="50.23505" lon="4.82274">
        <ele>216.43</ele>
        <time>2017-03-19T10:38:27Z</time>
      </trkpt>
      <trkpt lat="50.23515" lon="4.82288">
        <ele>216.43</ele>
        <time>2017-03-19T10:38:40Z</time>
      </trkpt>
      <trkpt lat="50.23528" lon="4.82305">
        <ele>216.43</ele>
        <time>2017-03-19T10:38:55Z</time>
      </trkpt>
      <trkpt lat="50.2354" lon="4.82321">
        <ele>214.99</ele>
        <time>2017-03-19T10:39:09Z</time>
      </trkpt>
      <trkpt lat="50.23546" lon="4.82329">
        <ele>214.99</ele>
        <time>2017-03-19T10:39:17Z</time>
      </trkpt>
      <trkpt lat="50.23559" lon="4.82346">
        <ele>214.99</ele>
        <time>2017-03-19T10:39:33Z</time>
      </trkpt>
      <trkpt lat="50.2357" lon="4.8236">
        <ele>214.99</ele>
        <time>2017-03-19T10:39:46Z</time>
      </trkpt>
      <trkpt lat="50.23581" lon="4.82375">
        <ele>214.99</ele>
        <time>2017-03-19T10:39:59Z</time>
      </trkpt>
      <trkpt lat="50.23594" lon="4.82393">
        <ele>214.99</ele>
        <time>2017-03-19T10:40:14Z</time>
      </trkpt>
      <trkpt lat="50.23605" lon="4.82411">
        <ele>214.99</ele>
        <time>2017-03-19T10:40:29Z</time>
      </trkpt>
      <trkpt lat="50.23616" lon="4.82426">
        <ele>214.99</ele>
        <time>2017-03-19T10:40:43Z</time>
      </trkpt>
      <trkpt lat="50.23625" lon="4.82442">
        <ele>214.03</ele>
        <time>2017-03-19T10:40:57Z</time>
      </trkpt>
      <trkpt lat="50.23635" lon="4.82455">
        <ele>213.55</ele>
        <time>2017-03-19T10:41:11Z</time>
      </trkpt>
      <trkpt lat="50.23644" lon="4.82464">
        <ele>210.19</ele>
        <time>2017-03-19T10:41:22Z</time>
      </trkpt>
      <trkpt lat="50.23658" lon="4.82486">
        <ele>210.67</ele>
        <time>2017-03-19T10:41:38Z</time>
      </trkpt>
      <trkpt lat="50.23669" lon="4.82503">
        <ele>210.19</ele>
        <time>2017-03-19T10:41:51Z</time>
      </trkpt>
      <trkpt lat="50.23671" lon="4.82505">
        <ele>210.19</ele>
        <time>2017-03-19T10:41:53Z</time>
      </trkpt>
      <trkpt lat="50.23674" lon="4.8251">
        <ele>210.19</ele>
        <time>2017-03-19T10:41:57Z</time>
      </trkpt>
      <trkpt lat="50.23694" lon="4.82531">
        <ele>209.7</ele>
        <time>2017-03-19T10:42:18Z</time>
      </trkpt>
      <trkpt lat="50.23713" lon="4.82535">
        <ele>209.22</ele>
        <time>2017-03-19T10:42:37Z</time>
      </trkpt>
      <trkpt lat="50.2373" lon="4.82537">
        <ele>210.67</ele>
        <time>2017-03-19T10:42:57Z</time>
      </trkpt>
      <trkpt lat="50.23749" lon="4.82543">
        <ele>211.63</ele>
        <time>2017-03-19T10:43:18Z</time>
      </trkpt>
      <trkpt lat="50.23767" lon="4.82552">
        <ele>214.03</ele>
        <time>2017-03-19T10:43:39Z</time>
      </trkpt>
      <trkpt lat="50.23785" lon="4.82567">
        <ele>215.47</ele>
        <time>2017-03-19T10:44:00Z</time>
      </trkpt>
      <trkpt lat="50.23802" lon="4.82589">
        <ele>218.84</ele>
        <time>2017-03-19T10:44:24Z</time>
      </trkpt>
      <trkpt lat="50.23817" lon="4.82604">
        <ele>221.24</ele>
        <time>2017-03-19T10:44:43Z</time>
      </trkpt>
      <trkpt lat="50.23831" lon="4.82613">
        <ele>224.12</ele>
        <time>2017-03-19T10:44:59Z</time>
      </trkpt>
      <trkpt lat="50.23844" lon="4.82629">
        <ele>226.53</ele>
        <time>2017-03-19T10:45:15Z</time>
      </trkpt>
      <trkpt lat="50.23853" lon="4.82638">
        <ele>227.97</ele>
        <time>2017-03-19T10:45:26Z</time>
      </trkpt>
      <trkpt lat="50.23868" lon="4.82651">
        <ele>229.89</ele>
        <time>2017-03-19T10:45:43Z</time>
      </trkpt>
      <trkpt lat="50.2388" lon="4.82668">
        <ele>230.37</ele>
        <time>2017-03-19T10:45:57Z</time>
      </trkpt>
      <trkpt lat="50.23883" lon="4.82675">
        <ele>232.3</ele>
        <time>2017-03-19T10:46:03Z</time>
      </trkpt>
      <trkpt lat="50.23893" lon="4.82696">
        <ele>233.26</ele>
        <time>2017-03-19T10:46:19Z</time>
      </trkpt>
      <trkpt lat="50.23902" lon="4.82717">
        <ele>234.7</ele>
        <time>2017-03-19T10:46:35Z</time>
      </trkpt>
      <trkpt lat="50.23906" lon="4.82728">
        <ele>235.18</ele>
        <time>2017-03-19T10:46:43Z</time>
      </trkpt>
      <trkpt lat="50.23911" lon="4.82748">
        <ele>236.14</ele>
        <time>2017-03-19T10:46:57Z</time>
      </trkpt>
      <trkpt lat="50.23918" lon="4.82767">
        <ele>237.58</ele>
        <time>2017-03-19T10:47:12Z</time>
      </trkpt>
      <trkpt lat="50.23919" lon="4.82769">
        <ele>237.58</ele>
        <time>2017-03-19T10:47:14Z</time>
      </trkpt>
      <trkpt lat="50.23919" lon="4.82773">
        <ele>237.58</ele>
        <time>2017-03-19T10:47:16Z</time>
      </trkpt>
      <trkpt lat="50.23921" lon="4.82777">
        <ele>238.06</ele>
        <time>2017-03-19T10:47:20Z</time>
      </trkpt>
      <trkpt lat="50.23923" lon="4.82784">
        <ele>238.06</ele>
        <time>2017-03-19T10:47:25Z</time>
      </trkpt>
      <trkpt lat="50.23927" lon="4.82794">
        <ele>239.02</ele>
        <time>2017-03-19T10:47:32Z</time>
      </trkpt>
      <trkpt lat="50.2394" lon="4.82808">
        <ele>239.02</ele>
        <time>2017-03-19T10:47:47Z</time>
      </trkpt>
      <trkpt lat="50.23948" lon="4.82819">
        <ele>239.51</ele>
        <time>2017-03-19T10:47:59Z</time>
      </trkpt>
      <trkpt lat="50.23956" lon="4.82827">
        <ele>239.51</ele>
        <time>2017-03-19T10:48:08Z</time>
      </trkpt>
      <trkpt lat="50.23967" lon="4.8284">
        <ele>239.99</ele>
        <time>2017-03-19T10:48:21Z</time>
      </trkpt>
      <trkpt lat="50.2398" lon="4.82859">
        <ele>240.95</ele>
        <time>2017-03-19T10:48:35Z</time>
      </trkpt>
      <trkpt lat="50.23988" lon="4.82871">
        <ele>240.47</ele>
        <time>2017-03-19T10:48:48Z</time>
      </trkpt>
      <trkpt lat="50.23986" lon="4.82873">
        <ele>239.51</ele>
        <time>2017-03-19T10:48:52Z</time>
      </trkpt>
      <trkpt lat="50.23984" lon="4.82873">
        <ele>240.47</ele>
        <time>2017-03-19T10:49:08Z</time>
      </trkpt>
      <trkpt lat="50.23986" lon="4.82872">
        <ele>240.47</ele>
        <time>2017-03-19T10:49:21Z</time>
      </trkpt>
      <trkpt lat="50.23985" lon="4.82871">
        <ele>239.02</ele>
        <time>2017-03-19T10:49:25Z</time>
      </trkpt>
      <trkpt lat="50.23984" lon="4.82869">
        <ele>240.47</ele>
        <time>2017-03-19T10:49:41Z</time>
      </trkpt>
      <trkpt lat="50.2399" lon="4.82877">
        <ele>240.47</ele>
        <time>2017-03-19T10:50:04Z</time>
      </trkpt>
      <trkpt lat="50.23998" lon="4.8289">
        <ele>240.47</ele>
        <time>2017-03-19T10:50:14Z</time>
      </trkpt>
      <trkpt lat="50.2401" lon="4.82908">
        <ele>240.95</ele>
        <time>2017-03-19T10:50:30Z</time>
      </trkpt>
      <trkpt lat="50.24023" lon="4.82933">
        <ele>241.43</ele>
        <time>2017-03-19T10:50:48Z</time>
      </trkpt>
      <trkpt lat="50.24034" lon="4.82953">
        <ele>241.43</ele>
        <time>2017-03-19T10:51:03Z</time>
      </trkpt>
      <trkpt lat="50.24044" lon="4.82974">
        <ele>242.39</ele>
        <time>2017-03-19T10:51:19Z</time>
      </trkpt>
      <trkpt lat="50.24051" lon="4.82985">
        <ele>242.39</ele>
        <time>2017-03-19T10:51:27Z</time>
      </trkpt>
      <trkpt lat="50.2406" lon="4.83011">
        <ele>242.87</ele>
        <time>2017-03-19T10:51:44Z</time>
      </trkpt>
      <trkpt lat="50.24066" lon="4.8303">
        <ele>242.87</ele>
        <time>2017-03-19T10:51:55Z</time>
      </trkpt>
      <trkpt lat="50.24073" lon="4.8305">
        <ele>242.87</ele>
        <time>2017-03-19T10:52:09Z</time>
      </trkpt>
      <trkpt lat="50.24078" lon="4.83063">
        <ele>242.87</ele>
        <time>2017-03-19T10:52:18Z</time>
      </trkpt>
      <trkpt lat="50.24086" lon="4.83089">
        <ele>242.87</ele>
        <time>2017-03-19T10:52:35Z</time>
      </trkpt>
      <trkpt lat="50.24088" lon="4.83095">
        <ele>242.87</ele>
        <time>2017-03-19T10:52:39Z</time>
      </trkpt>
      <trkpt lat="50.24095" lon="4.8312">
        <ele>242.87</ele>
        <time>2017-03-19T10:52:54Z</time>
      </trkpt>
      <trkpt lat="50.24105" lon="4.83148">
        <ele>242.87</ele>
        <time>2017-03-19T10:53:11Z</time>
      </trkpt>
      <trkpt lat="50.24111" lon="4.83169">
        <ele>242.87</ele>
        <time>2017-03-19T10:53:25Z</time>
      </trkpt>
      <trkpt lat="50.24119" lon="4.83195">
        <ele>242.87</ele>
        <time>2017-03-19T10:53:41Z</time>
      </trkpt>
      <trkpt lat="50.24125" lon="4.83215">
        <ele>243.35</ele>
        <time>2017-03-19T10:53:53Z</time>
      </trkpt>
      <trkpt lat="50.24132" lon="4.83237">
        <ele>243.83</ele>
        <time>2017-03-19T10:54:07Z</time>
      </trkpt>
      <trkpt lat="50.24138" lon="4.83254">
        <ele>243.83</ele>
        <time>2017-03-19T10:54:19Z</time>
      </trkpt>
      <trkpt lat="50.24146" lon="4.83276">
        <ele>243.83</ele>
        <time>2017-03-19T10:54:33Z</time>
      </trkpt>
      <trkpt lat="50.24152" lon="4.83297">
        <ele>244.79</ele>
        <time>2017-03-19T10:54:46Z</time>
      </trkpt>
      <trkpt lat="50.24155" lon="4.83307">
        <ele>245.27</ele>
        <time>2017-03-19T10:54:53Z</time>
      </trkpt>
      <trkpt lat="50.2416" lon="4.83334">
        <ele>245.27</ele>
        <time>2017-03-19T10:55:09Z</time>
      </trkpt>
      <trkpt lat="50.24169" lon="4.83359">
        <ele>245.75</ele>
        <time>2017-03-19T10:55:25Z</time>
      </trkpt>
      <trkpt lat="50.24176" lon="4.83381">
        <ele>246.72</ele>
        <time>2017-03-19T10:55:40Z</time>
      </trkpt>
      <trkpt lat="50.24185" lon="4.83408">
        <ele>247.2</ele>
        <time>2017-03-19T10:55:57Z</time>
      </trkpt>
      <trkpt lat="50.24188" lon="4.83417">
        <ele>247.2</ele>
        <time>2017-03-19T10:56:03Z</time>
      </trkpt>
      <trkpt lat="50.24196" lon="4.8344">
        <ele>248.64</ele>
        <time>2017-03-19T10:56:19Z</time>
      </trkpt>
      <trkpt lat="50.24199" lon="4.83458">
        <ele>249.12</ele>
        <time>2017-03-19T10:56:33Z</time>
      </trkpt>
      <trkpt lat="50.24182" lon="4.83466">
        <ele>248.16</ele>
        <time>2017-03-19T10:56:48Z</time>
      </trkpt>
      <trkpt lat="50.2416" lon="4.83471">
        <ele>245.75</ele>
        <time>2017-03-19T10:57:07Z</time>
      </trkpt>
      <trkpt lat="50.24142" lon="4.83474">
        <ele>243.83</ele>
        <time>2017-03-19T10:57:24Z</time>
      </trkpt>
      <trkpt lat="50.24125" lon="4.83481">
        <ele>241.91</ele>
        <time>2017-03-19T10:57:40Z</time>
      </trkpt>
      <trkpt lat="50.2411" lon="4.83497">
        <ele>240.95</ele>
        <time>2017-03-19T10:57:56Z</time>
      </trkpt>
      <trkpt lat="50.24099" lon="4.83518">
        <ele>239.02</ele>
        <time>2017-03-19T10:58:11Z</time>
      </trkpt>
      <trkpt lat="50.24092" lon="4.83541">
        <ele>239.02</ele>
        <time>2017-03-19T10:58:26Z</time>
      </trkpt>
      <trkpt lat="50.24086" lon="4.83563">
        <ele>238.06</ele>
        <time>2017-03-19T10:58:40Z</time>
      </trkpt>
      <trkpt lat="50.24084" lon="4.83589">
        <ele>238.06</ele>
        <time>2017-03-19T10:58:54Z</time>
      </trkpt>
      <trkpt lat="50.24085" lon="4.83603">
        <ele>238.06</ele>
        <time>2017-03-19T10:59:02Z</time>
      </trkpt>
      <trkpt lat="50.24084" lon="4.8363">
        <ele>237.58</ele>
        <time>2017-03-19T10:59:17Z</time>
      </trkpt>
      <trkpt lat="50.24083" lon="4.83652">
        <ele>237.58</ele>
        <time>2017-03-19T10:59:29Z</time>
      </trkpt>
      <trkpt lat="50.24081" lon="4.83676">
        <ele>237.58</ele>
        <time>2017-03-19T10:59:43Z</time>
      </trkpt>
      <trkpt lat="50.24079" lon="4.83694">
        <ele>238.54</ele>
        <time>2017-03-19T10:59:54Z</time>
      </trkpt>
      <trkpt lat="50.24088" lon="4.83699">
        <ele>239.02</ele>
        <time>2017-03-19T11:00:09Z</time>
      </trkpt>
      <trkpt lat="50.24097" lon="4.83699">
        <ele>240.95</ele>
        <time>2017-03-19T11:00:23Z</time>
      </trkpt>
      <trkpt lat="50.24108" lon="4.83697">
        <ele>242.39</ele>
        <time>2017-03-19T11:00:36Z</time>
      </trkpt>
      <trkpt lat="50.24125" lon="4.83693">
        <ele>244.31</ele>
        <time>2017-03-19T11:00:53Z</time>
      </trkpt>
      <trkpt lat="50.24138" lon="4.83691">
        <ele>246.23</ele>
        <time>2017-03-19T11:01:08Z</time>
      </trkpt>
      <trkpt lat="50.24149" lon="4.83687">
        <ele>247.2</ele>
        <time>2017-03-19T11:01:21Z</time>
      </trkpt>
      <trkpt lat="50.24166" lon="4.83684">
        <ele>249.12</ele>
        <time>2017-03-19T11:01:39Z</time>
      </trkpt>
      <trkpt lat="50.24175" lon="4.83687">
        <ele>249.6</ele>
        <time>2017-03-19T11:01:50Z</time>
      </trkpt>
      <trkpt lat="50.24184" lon="4.83693">
        <ele>250.08</ele>
        <time>2017-03-19T11:02:06Z</time>
      </trkpt>
      <trkpt lat="50.24183" lon="4.83697">
        <ele>250.56</ele>
        <time>2017-03-19T11:02:26Z</time>
      </trkpt>
      <trkpt lat="50.24183" lon="4.83696">
        <ele>250.56</ele>
        <time>2017-03-19T11:02:40Z</time>
      </trkpt>
      <trkpt lat="50.24182" lon="4.83698">
        <ele>250.56</ele>
        <time>2017-03-19T11:03:02Z</time>
      </trkpt>
      <trkpt lat="50.24178" lon="4.83699">
        <ele>250.56</ele>
        <time>2017-03-19T11:03:24Z</time>
      </trkpt>
      <trkpt lat="50.24183" lon="4.837">
        <ele>250.56</ele>
        <time>2017-03-19T11:03:50Z</time>
      </trkpt>
      <trkpt lat="50.24186" lon="4.83711">
        <ele>250.08</ele>
        <time>2017-03-19T11:04:14Z</time>
      </trkpt>
      <trkpt lat="50.24186" lon="4.83716">
        <ele>250.08</ele>
        <time>2017-03-19T11:04:31Z</time>
      </trkpt>
      <trkpt lat="50.24184" lon="4.83715">
        <ele>250.08</ele>
        <time>2017-03-19T11:04:51Z</time>
      </trkpt>
      <trkpt lat="50.24179" lon="4.83724">
        <ele>250.08</ele>
        <time>2017-03-19T11:05:04Z</time>
      </trkpt>
      <trkpt lat="50.24176" lon="4.83716">
        <ele>250.08</ele>
        <time>2017-03-19T11:05:18Z</time>
      </trkpt>
      <trkpt lat="50.2417" lon="4.83713">
        <ele>250.56</ele>
        <time>2017-03-19T11:05:34Z</time>
      </trkpt>
      <trkpt lat="50.24174" lon="4.83707">
        <ele>250.56</ele>
        <time>2017-03-19T11:05:52Z</time>
      </trkpt>
      <trkpt lat="50.24175" lon="4.8371">
        <ele>250.56</ele>
        <time>2017-03-19T11:06:07Z</time>
      </trkpt>
      <trkpt lat="50.24176" lon="4.83708">
        <ele>250.56</ele>
        <time>2017-03-19T11:06:24Z</time>
      </trkpt>
      <trkpt lat="50.24177" lon="4.83707">
        <ele>250.56</ele>
        <time>2017-03-19T11:06:52Z</time>
      </trkpt>
      <trkpt lat="50.24176" lon="4.837">
        <ele>251.04</ele>
        <time>2017-03-19T11:07:13Z</time>
      </trkpt>
      <trkpt lat="50.24177" lon="4.83703">
        <ele>251.04</ele>
        <time>2017-03-19T11:07:32Z</time>
      </trkpt>
      <trkpt lat="50.2418" lon="4.83704">
        <ele>249.6</ele>
        <time>2017-03-19T11:07:55Z</time>
      </trkpt>
      <trkpt lat="50.24179" lon="4.83701">
        <ele>250.08</ele>
        <time>2017-03-19T11:08:18Z</time>
      </trkpt>
      <trkpt lat="50.24179" lon="4.837">
        <ele>250.08</ele>
        <time>2017-03-19T11:08:40Z</time>
      </trkpt>
      <trkpt lat="50.24176" lon="4.83702">
        <ele>250.08</ele>
        <time>2017-03-19T11:09:00Z</time>
      </trkpt>
      <trkpt lat="50.24173" lon="4.83708">
        <ele>250.08</ele>
        <time>2017-03-19T11:09:30Z</time>
      </trkpt>
      <trkpt lat="50.24172" lon="4.8371">
        <ele>250.08</ele>
        <time>2017-03-19T11:09:53Z</time>
      </trkpt>
      <trkpt lat="50.24175" lon="4.83708">
        <ele>251.52</ele>
        <time>2017-03-19T11:10:13Z</time>
      </trkpt>
      <trkpt lat="50.24176" lon="4.8371">
        <ele>251.52</ele>
        <time>2017-03-19T11:10:36Z</time>
      </trkpt>
      <trkpt lat="50.24175" lon="4.83707">
        <ele>252</ele>
        <time>2017-03-19T11:11:00Z</time>
      </trkpt>
      <trkpt lat="50.24178" lon="4.83704">
        <ele>252</ele>
        <time>2017-03-19T11:11:20Z</time>
      </trkpt>
      <trkpt lat="50.24177" lon="4.83703">
        <ele>252</ele>
        <time>2017-03-19T11:11:37Z</time>
      </trkpt>
      <trkpt lat="50.24178" lon="4.83705">
        <ele>252</ele>
        <time>2017-03-19T11:11:57Z</time>
      </trkpt>
      <trkpt lat="50.24177" lon="4.83706">
        <ele>252.48</ele>
        <time>2017-03-19T11:12:14Z</time>
      </trkpt>
      <trkpt lat="50.24175" lon="4.83709">
        <ele>252.48</ele>
        <time>2017-03-19T11:12:40Z</time>
      </trkpt>
      <trkpt lat="50.24175" lon="4.83711">
        <ele>252.48</ele>
        <time>2017-03-19T11:13:02Z</time>
      </trkpt>
      <trkpt lat="50.24179" lon="4.83704">
        <ele>252.48</ele>
        <time>2017-03-19T11:13:27Z</time>
      </trkpt>
      <trkpt lat="50.24175" lon="4.83704">
        <ele>251.52</ele>
        <time>2017-03-19T11:13:48Z</time>
      </trkpt>
      <trkpt lat="50.24175" lon="4.83705">
        <ele>251.52</ele>
        <time>2017-03-19T11:14:10Z</time>
      </trkpt>
      <trkpt lat="50.24174" lon="4.83706">
        <ele>252.48</ele>
        <time>2017-03-19T11:14:21Z</time>
      </trkpt>
      <trkpt lat="50.24178" lon="4.83707">
        <ele>252.48</ele>
        <time>2017-03-19T11:14:43Z</time>
      </trkpt>
      <trkpt lat="50.24175" lon="4.83709">
        <ele>252.48</ele>
        <time>2017-03-19T11:15:04Z</time>
      </trkpt>
      <trkpt lat="50.24174" lon="4.83709">
        <ele>252.48</ele>
        <time>2017-03-19T11:15:29Z</time>
      </trkpt>
      <trkpt lat="50.24176" lon="4.83707">
        <ele>252.48</ele>
        <time>2017-03-19T11:15:51Z</time>
      </trkpt>
      <trkpt lat="50.24175" lon="4.83706">
        <ele>252.48</ele>
        <time>2017-03-19T11:16:09Z</time>
      </trkpt>
      <trkpt lat="50.24173" lon="4.83702">
        <ele>251.04</ele>
        <time>2017-03-19T11:16:36Z</time>
      </trkpt>
      <trkpt lat="50.24174" lon="4.83702">
        <ele>252.48</ele>
        <time>2017-03-19T11:16:46Z</time>
      </trkpt>
      <trkpt lat="50.2418" lon="4.83703">
        <ele>252.96</ele>
        <time>2017-03-19T11:17:11Z</time>
      </trkpt>
      <trkpt lat="50.24179" lon="4.83706">
        <ele>251.52</ele>
        <time>2017-03-19T11:17:31Z</time>
      </trkpt>
      <trkpt lat="50.24176" lon="4.83706">
        <ele>251.52</ele>
        <time>2017-03-19T11:17:48Z</time>
      </trkpt>
      <trkpt lat="50.24175" lon="4.83711">
        <ele>251.52</ele>
        <time>2017-03-19T11:18:18Z</time>
      </trkpt>
      <trkpt lat="50.24173" lon="4.83709">
        <ele>252</ele>
        <time>2017-03-19T11:18:46Z</time>
      </trkpt>
      <trkpt lat="50.24172" lon="4.83702">
        <ele>251.52</ele>
        <time>2017-03-19T11:19:17Z</time>
      </trkpt>
      <trkpt lat="50.24176" lon="4.83706">
        <ele>251.04</ele>
        <time>2017-03-19T11:19:32Z</time>
      </trkpt>
      <trkpt lat="50.24176" lon="4.83705">
        <ele>252.48</ele>
        <time>2017-03-19T11:19:35Z</time>
      </trkpt>
      <trkpt lat="50.24177" lon="4.83707">
        <ele>252.48</ele>
        <time>2017-03-19T11:20:07Z</time>
      </trkpt>
      <trkpt lat="50.24176" lon="4.83706">
        <ele>252.48</ele>
        <time>2017-03-19T11:20:28Z</time>
      </trkpt>
      <trkpt lat="50.24176" lon="4.83707">
        <ele>252.48</ele>
        <time>2017-03-19T11:20:53Z</time>
      </trkpt>
      <trkpt lat="50.24176" lon="4.8371">
        <ele>252.48</ele>
        <time>2017-03-19T11:21:21Z</time>
      </trkpt>
      <trkpt lat="50.24177" lon="4.83708">
        <ele>252.48</ele>
        <time>2017-03-19T11:21:44Z</time>
      </trkpt>
      <trkpt lat="50.24175" lon="4.8371">
        <ele>252.48</ele>
        <time>2017-03-19T11:22:09Z</time>
      </trkpt>
      <trkpt lat="50.24176" lon="4.83702">
        <ele>252.48</ele>
        <time>2017-03-19T11:22:33Z</time>
      </trkpt>
      <trkpt lat="50.24177" lon="4.83701">
        <ele>251.52</ele>
        <time>2017-03-19T11:23:02Z</time>
      </trkpt>
      <trkpt lat="50.24179" lon="4.83702">
        <ele>251.52</ele>
        <time>2017-03-19T11:23:26Z</time>
      </trkpt>
      <trkpt lat="50.24179" lon="4.83703">
        <ele>251.52</ele>
        <time>2017-03-19T11:23:54Z</time>
      </trkpt>
      <trkpt lat="50.24179" lon="4.83708">
        <ele>252.48</ele>
        <time>2017-03-19T11:24:22Z</time>
      </trkpt>
      <trkpt lat="50.24179" lon="4.83712">
        <ele>252.48</ele>
        <time>2017-03-19T11:24:46Z</time>
      </trkpt>
      <trkpt lat="50.24179" lon="4.83706">
        <ele>252.48</ele>
        <time>2017-03-19T11:25:14Z</time>
      </trkpt>
      <trkpt lat="50.24179" lon="4.83707">
        <ele>251.04</ele>
        <time>2017-03-19T11:25:17Z</time>
      </trkpt>
      <trkpt lat="50.24179" lon="4.83707">
        <ele>253.44</ele>
        <time>2017-03-19T11:25:19Z</time>
      </trkpt>
      <trkpt lat="50.24176" lon="4.83711">
        <ele>251.52</ele>
        <time>2017-03-19T11:25:34Z</time>
      </trkpt>
      <trkpt lat="50.24175" lon="4.83716">
        <ele>251.52</ele>
        <time>2017-03-19T11:25:52Z</time>
      </trkpt>
      <trkpt lat="50.24176" lon="4.83718">
        <ele>251.52</ele>
        <time>2017-03-19T11:26:13Z</time>
      </trkpt>
      <trkpt lat="50.24177" lon="4.83714">
        <ele>251.52</ele>
        <time>2017-03-19T11:26:32Z</time>
      </trkpt>
      <trkpt lat="50.24176" lon="4.83713">
        <ele>251.52</ele>
        <time>2017-03-19T11:26:51Z</time>
      </trkpt>
      <trkpt lat="50.24178" lon="4.83716">
        <ele>252.48</ele>
        <time>2017-03-19T11:27:14Z</time>
      </trkpt>
      <trkpt lat="50.2418" lon="4.83717">
        <ele>252.48</ele>
        <time>2017-03-19T11:27:48Z</time>
      </trkpt>
      <trkpt lat="50.24181" lon="4.83715">
        <ele>252.96</ele>
        <time>2017-03-19T11:28:18Z</time>
      </trkpt>
      <trkpt lat="50.24177" lon="4.83712">
        <ele>252.96</ele>
        <time>2017-03-19T11:28:41Z</time>
      </trkpt>
      <trkpt lat="50.24177" lon="4.83712">
        <ele>252.96</ele>
        <time>2017-03-19T11:29:11Z</time>
      </trkpt>
      <trkpt lat="50.24179" lon="4.83715">
        <ele>252.96</ele>
        <time>2017-03-19T11:29:34Z</time>
      </trkpt>
      <trkpt lat="50.24179" lon="4.83714">
        <ele>252.96</ele>
        <time>2017-03-19T11:29:58Z</time>
      </trkpt>
      <trkpt lat="50.24182" lon="4.8371">
        <ele>252.96</ele>
        <time>2017-03-19T11:30:22Z</time>
      </trkpt>
      <trkpt lat="50.24181" lon="4.83713">
        <ele>252.96</ele>
        <time>2017-03-19T11:30:42Z</time>
      </trkpt>
      <trkpt lat="50.24182" lon="4.83714">
        <ele>249.12</ele>
        <time>2017-03-19T11:30:59Z</time>
      </trkpt>
      <trkpt lat="50.24182" lon="4.83714">
        <ele>255.37</ele>
        <time>2017-03-19T11:31:00Z</time>
      </trkpt>
      <trkpt lat="50.24179" lon="4.83716">
        <ele>252</ele>
        <time>2017-03-19T11:31:10Z</time>
      </trkpt>
      <trkpt lat="50.24179" lon="4.83718">
        <ele>251.52</ele>
        <time>2017-03-19T11:31:31Z</time>
      </trkpt>
      <trkpt lat="50.24173" lon="4.83714">
        <ele>251.52</ele>
        <time>2017-03-19T11:31:54Z</time>
      </trkpt>
      <trkpt lat="50.24175" lon="4.83718">
        <ele>251.52</ele>
        <time>2017-03-19T11:32:19Z</time>
      </trkpt>
      <trkpt lat="50.24176" lon="4.83719">
        <ele>252.96</ele>
        <time>2017-03-19T11:32:26Z</time>
      </trkpt>
      <trkpt lat="50.24177" lon="4.8372">
        <ele>252.96</ele>
        <time>2017-03-19T11:32:53Z</time>
      </trkpt>
      <trkpt lat="50.24177" lon="4.83718">
        <ele>252.96</ele>
        <time>2017-03-19T11:33:19Z</time>
      </trkpt>
      <trkpt lat="50.24176" lon="4.83713">
        <ele>252.96</ele>
        <time>2017-03-19T11:33:41Z</time>
      </trkpt>
      <trkpt lat="50.24175" lon="4.83713">
        <ele>252.96</ele>
        <time>2017-03-19T11:34:05Z</time>
      </trkpt>
      <trkpt lat="50.24177" lon="4.83716">
        <ele>252.96</ele>
        <time>2017-03-19T11:34:32Z</time>
      </trkpt>
      <trkpt lat="50.24178" lon="4.83718">
        <ele>251.04</ele>
        <time>2017-03-19T11:34:58Z</time>
      </trkpt>
      <trkpt lat="50.24178" lon="4.83717">
        <ele>251.04</ele>
        <time>2017-03-19T11:34:59Z</time>
      </trkpt>
      <trkpt lat="50.24178" lon="4.83716">
        <ele>253.44</ele>
        <time>2017-03-19T11:35:01Z</time>
      </trkpt>
      <trkpt lat="50.24177" lon="4.83715">
        <ele>252</ele>
        <time>2017-03-19T11:35:03Z</time>
      </trkpt>
      <trkpt lat="50.24175" lon="4.83712">
        <ele>252.96</ele>
        <time>2017-03-19T11:35:25Z</time>
      </trkpt>
      <trkpt lat="50.24174" lon="4.83714">
        <ele>252.96</ele>
        <time>2017-03-19T11:35:42Z</time>
      </trkpt>
      <trkpt lat="50.24171" lon="4.8371">
        <ele>252.96</ele>
        <time>2017-03-19T11:36:08Z</time>
      </trkpt>
      <trkpt lat="50.2417" lon="4.83707">
        <ele>252.96</ele>
        <time>2017-03-19T11:36:34Z</time>
      </trkpt>
      <trkpt lat="50.24172" lon="4.83709">
        <ele>253.44</ele>
        <time>2017-03-19T11:37:04Z</time>
      </trkpt>
      <trkpt lat="50.24173" lon="4.83707">
        <ele>253.44</ele>
        <time>2017-03-19T11:37:37Z</time>
      </trkpt>
      <trkpt lat="50.24175" lon="4.83704">
        <ele>253.44</ele>
        <time>2017-03-19T11:38:13Z</time>
      </trkpt>
      <trkpt lat="50.24176" lon="4.8371">
        <ele>253.44</ele>
        <time>2017-03-19T11:38:37Z</time>
      </trkpt>
      <trkpt lat="50.24179" lon="4.83712">
        <ele>253.93</ele>
        <time>2017-03-19T11:38:57Z</time>
      </trkpt>
      <trkpt lat="50.24177" lon="4.83712">
        <ele>252</ele>
        <time>2017-03-19T11:39:21Z</time>
      </trkpt>
      <trkpt lat="50.24177" lon="4.83714">
        <ele>253.44</ele>
        <time>2017-03-19T11:39:29Z</time>
      </trkpt>
      <trkpt lat="50.24177" lon="4.83713">
        <ele>251.52</ele>
        <time>2017-03-19T11:39:36Z</time>
      </trkpt>
      <trkpt lat="50.24178" lon="4.83713">
        <ele>252</ele>
        <time>2017-03-19T11:40:00Z</time>
      </trkpt>
      <trkpt lat="50.24174" lon="4.83712">
        <ele>252</ele>
        <time>2017-03-19T11:40:29Z</time>
      </trkpt>
      <trkpt lat="50.24177" lon="4.83709">
        <ele>252</ele>
        <time>2017-03-19T11:40:55Z</time>
      </trkpt>
      <trkpt lat="50.24179" lon="4.83714">
        <ele>252.48</ele>
        <time>2017-03-19T11:41:25Z</time>
      </trkpt>
      <trkpt lat="50.24172" lon="4.83714">
        <ele>252.96</ele>
        <time>2017-03-19T11:41:53Z</time>
      </trkpt>
      <trkpt lat="50.24173" lon="4.83713">
        <ele>251.52</ele>
        <time>2017-03-19T11:41:55Z</time>
      </trkpt>
      <trkpt lat="50.24175" lon="4.83708">
        <ele>252.48</ele>
        <time>2017-03-19T11:42:18Z</time>
      </trkpt>
      <trkpt lat="50.24164" lon="4.83704">
        <ele>251.04</ele>
        <time>2017-03-19T11:42:41Z</time>
      </trkpt>
      <trkpt lat="50.24164" lon="4.83705">
        <ele>251.04</ele>
        <time>2017-03-19T11:42:42Z</time>
      </trkpt>
      <trkpt lat="50.24164" lon="4.83714">
        <ele>251.52</ele>
        <time>2017-03-19T11:43:09Z</time>
      </trkpt>
      <trkpt lat="50.24171" lon="4.83713">
        <ele>251.52</ele>
        <time>2017-03-19T11:43:36Z</time>
      </trkpt>
      <trkpt lat="50.24167" lon="4.83709">
        <ele>252.48</ele>
        <time>2017-03-19T11:44:05Z</time>
      </trkpt>
      <trkpt lat="50.24169" lon="4.83711">
        <ele>252.96</ele>
        <time>2017-03-19T11:44:34Z</time>
      </trkpt>
      <trkpt lat="50.24173" lon="4.83711">
        <ele>252.96</ele>
        <time>2017-03-19T11:45:04Z</time>
      </trkpt>
      <trkpt lat="50.2417" lon="4.83712">
        <ele>253.44</ele>
        <time>2017-03-19T11:45:33Z</time>
      </trkpt>
      <trkpt lat="50.24158" lon="4.8371">
        <ele>252</ele>
        <time>2017-03-19T11:46:00Z</time>
      </trkpt>
      <trkpt lat="50.24162" lon="4.8371">
        <ele>252.96</ele>
        <time>2017-03-19T11:46:10Z</time>
      </trkpt>
      <trkpt lat="50.24171" lon="4.83709">
        <ele>252.96</ele>
        <time>2017-03-19T11:46:40Z</time>
      </trkpt>
      <trkpt lat="50.24169" lon="4.83706">
        <ele>252.96</ele>
        <time>2017-03-19T11:47:06Z</time>
      </trkpt>
      <trkpt lat="50.24174" lon="4.83706">
        <ele>252.48</ele>
        <time>2017-03-19T11:47:30Z</time>
      </trkpt>
      <trkpt lat="50.24175" lon="4.83707">
        <ele>252.96</ele>
        <time>2017-03-19T11:47:55Z</time>
      </trkpt>
      <trkpt lat="50.24167" lon="4.83706">
        <ele>252.96</ele>
        <time>2017-03-19T11:48:21Z</time>
      </trkpt>
      <trkpt lat="50.24164" lon="4.83701">
        <ele>252.96</ele>
        <time>2017-03-19T11:48:53Z</time>
      </trkpt>
      <trkpt lat="50.24164" lon="4.83703">
        <ele>253.44</ele>
        <time>2017-03-19T11:49:21Z</time>
      </trkpt>
      <trkpt lat="50.24175" lon="4.83709">
        <ele>253.44</ele>
        <time>2017-03-19T11:49:48Z</time>
      </trkpt>
      <trkpt lat="50.24173" lon="4.83702">
        <ele>253.44</ele>
        <time>2017-03-19T11:50:17Z</time>
      </trkpt>
      <trkpt lat="50.24171" lon="4.83703">
        <ele>253.44</ele>
        <time>2017-03-19T11:50:43Z</time>
      </trkpt>
      <trkpt lat="50.24176" lon="4.83707">
        <ele>253.44</ele>
        <time>2017-03-19T11:51:07Z</time>
      </trkpt>
      <trkpt lat="50.24174" lon="4.83706">
        <ele>253.44</ele>
        <time>2017-03-19T11:51:35Z</time>
      </trkpt>
      <trkpt lat="50.24175" lon="4.83706">
        <ele>253.44</ele>
        <time>2017-03-19T11:52:04Z</time>
      </trkpt>
      <trkpt lat="50.24172" lon="4.83706">
        <ele>253.44</ele>
        <time>2017-03-19T11:52:25Z</time>
      </trkpt>
      <trkpt lat="50.2417" lon="4.83707">
        <ele>252</ele>
        <time>2017-03-19T11:52:35Z</time>
      </trkpt>
      <trkpt lat="50.24166" lon="4.8371">
        <ele>252</ele>
        <time>2017-03-19T11:52:59Z</time>
      </trkpt>
      <trkpt lat="50.24168" lon="4.83714">
        <ele>252.96</ele>
        <time>2017-03-19T11:53:28Z</time>
      </trkpt>
      <trkpt lat="50.2417" lon="4.83717">
        <ele>253.44</ele>
        <time>2017-03-19T11:53:53Z</time>
      </trkpt>
      <trkpt lat="50.24171" lon="4.83708">
        <ele>252.96</ele>
        <time>2017-03-19T11:54:17Z</time>
      </trkpt>
      <trkpt lat="50.24176" lon="4.83712">
        <ele>252.96</ele>
        <time>2017-03-19T11:54:46Z</time>
      </trkpt>
      <trkpt lat="50.2417" lon="4.83712">
        <ele>252.96</ele>
        <time>2017-03-19T11:55:14Z</time>
      </trkpt>
      <trkpt lat="50.24165" lon="4.83709">
        <ele>252.96</ele>
        <time>2017-03-19T11:55:43Z</time>
      </trkpt>
      <trkpt lat="50.24169" lon="4.83715">
        <ele>252.96</ele>
        <time>2017-03-19T11:56:10Z</time>
      </trkpt>
      <trkpt lat="50.24171" lon="4.83717">
        <ele>253.44</ele>
        <time>2017-03-19T11:56:44Z</time>
      </trkpt>
      <trkpt lat="50.24172" lon="4.83713">
        <ele>253.93</ele>
        <time>2017-03-19T11:57:19Z</time>
      </trkpt>
      <trkpt lat="50.2417" lon="4.83711">
        <ele>253.93</ele>
        <time>2017-03-19T11:57:54Z</time>
      </trkpt>
      <trkpt lat="50.24158" lon="4.8372">
        <ele>253.93</ele>
        <time>2017-03-19T11:58:24Z</time>
      </trkpt>
      <trkpt lat="50.24165" lon="4.83715">
        <ele>253.93</ele>
        <time>2017-03-19T11:58:54Z</time>
      </trkpt>
      <trkpt lat="50.24165" lon="4.83704">
        <ele>254.41</ele>
        <time>2017-03-19T11:59:26Z</time>
      </trkpt>
      <trkpt lat="50.24166" lon="4.83708">
        <ele>254.41</ele>
        <time>2017-03-19T12:00:07Z</time>
      </trkpt>
      <trkpt lat="50.2417" lon="4.837">
        <ele>254.41</ele>
        <time>2017-03-19T12:00:51Z</time>
      </trkpt>
      <trkpt lat="50.24169" lon="4.83699">
        <ele>253.44</ele>
        <time>2017-03-19T12:01:21Z</time>
      </trkpt>
      <trkpt lat="50.24171" lon="4.83689">
        <ele>254.41</ele>
        <time>2017-03-19T12:01:51Z</time>
      </trkpt>
      <trkpt lat="50.24168" lon="4.83695">
        <ele>254.41</ele>
        <time>2017-03-19T12:02:21Z</time>
      </trkpt>
      <trkpt lat="50.24164" lon="4.83701">
        <ele>254.89</ele>
        <time>2017-03-19T12:02:45Z</time>
      </trkpt>
      <trkpt lat="50.24164" lon="4.83706">
        <ele>254.89</ele>
        <time>2017-03-19T12:03:09Z</time>
      </trkpt>
      <trkpt lat="50.24165" lon="4.83697">
        <ele>253.44</ele>
        <time>2017-03-19T12:03:37Z</time>
      </trkpt>
      <trkpt lat="50.24165" lon="4.83697">
        <ele>253.93</ele>
        <time>2017-03-19T12:04:08Z</time>
      </trkpt>
      <trkpt lat="50.24162" lon="4.83699">
        <ele>253.93</ele>
        <time>2017-03-19T12:04:39Z</time>
      </trkpt>
      <trkpt lat="50.2417" lon="4.83691">
        <ele>253.93</ele>
        <time>2017-03-19T12:05:06Z</time>
      </trkpt>
      <trkpt lat="50.24168" lon="4.83695">
        <ele>253.93</ele>
        <time>2017-03-19T12:05:34Z</time>
      </trkpt>
      <trkpt lat="50.24171" lon="4.83694">
        <ele>255.37</ele>
        <time>2017-03-19T12:06:05Z</time>
      </trkpt>
      <trkpt lat="50.24167" lon="4.83701">
        <ele>254.89</ele>
        <time>2017-03-19T12:06:41Z</time>
      </trkpt>
      <trkpt lat="50.2417" lon="4.83702">
        <ele>255.37</ele>
        <time>2017-03-19T12:07:19Z</time>
      </trkpt>
      <trkpt lat="50.24169" lon="4.83702">
        <ele>255.37</ele>
        <time>2017-03-19T12:07:48Z</time>
      </trkpt>
      <trkpt lat="50.24159" lon="4.83707">
        <ele>255.85</ele>
        <time>2017-03-19T12:08:23Z</time>
      </trkpt>
      <trkpt lat="50.24165" lon="4.83706">
        <ele>257.29</ele>
        <time>2017-03-19T12:08:48Z</time>
      </trkpt>
      <trkpt lat="50.24166" lon="4.83704">
        <ele>257.29</ele>
        <time>2017-03-19T12:09:14Z</time>
      </trkpt>
      <trkpt lat="50.24166" lon="4.83704">
        <ele>257.29</ele>
        <time>2017-03-19T12:09:15Z</time>
      </trkpt>
      <trkpt lat="50.24166" lon="4.83704">
        <ele>255.85</ele>
        <time>2017-03-19T12:09:25Z</time>
      </trkpt>
      <trkpt lat="50.2417" lon="4.83699">
        <ele>258.25</ele>
        <time>2017-03-19T12:09:41Z</time>
      </trkpt>
      <trkpt lat="50.24166" lon="4.8371">
        <ele>257.77</ele>
        <time>2017-03-19T12:10:08Z</time>
      </trkpt>
      <trkpt lat="50.24168" lon="4.83709">
        <ele>253.93</ele>
        <time>2017-03-19T12:10:18Z</time>
      </trkpt>
      <trkpt lat="50.24168" lon="4.83708">
        <ele>259.21</ele>
        <time>2017-03-19T12:10:19Z</time>
      </trkpt>
      <trkpt lat="50.2417" lon="4.83706">
        <ele>257.29</ele>
        <time>2017-03-19T12:10:20Z</time>
      </trkpt>
      <trkpt lat="50.24173" lon="4.83704">
        <ele>258.73</ele>
        <time>2017-03-19T12:10:31Z</time>
      </trkpt>
      <trkpt lat="50.24175" lon="4.83706">
        <ele>258.25</ele>
        <time>2017-03-19T12:10:46Z</time>
      </trkpt>
      <trkpt lat="50.24174" lon="4.83705">
        <ele>256.81</ele>
        <time>2017-03-19T12:11:10Z</time>
      </trkpt>
      <trkpt lat="50.24175" lon="4.83704">
        <ele>256.81</ele>
        <time>2017-03-19T12:11:30Z</time>
      </trkpt>
      <trkpt lat="50.24176" lon="4.83707">
        <ele>257.77</ele>
        <time>2017-03-19T12:11:57Z</time>
      </trkpt>
      <trkpt lat="50.24178" lon="4.83705">
        <ele>258.25</ele>
        <time>2017-03-19T12:12:28Z</time>
      </trkpt>
      <trkpt lat="50.24174" lon="4.83707">
        <ele>258.25</ele>
        <time>2017-03-19T12:12:45Z</time>
      </trkpt>
      <trkpt lat="50.24173" lon="4.83713">
        <ele>257.77</ele>
        <time>2017-03-19T12:13:06Z</time>
      </trkpt>
      <trkpt lat="50.24173" lon="4.83715">
        <ele>257.77</ele>
        <time>2017-03-19T12:13:30Z</time>
      </trkpt>
      <trkpt lat="50.24175" lon="4.83706">
        <ele>257.77</ele>
        <time>2017-03-19T12:13:53Z</time>
      </trkpt>
      <trkpt lat="50.24175" lon="4.83709">
        <ele>257.77</ele>
        <time>2017-03-19T12:14:16Z</time>
      </trkpt>
      <trkpt lat="50.24174" lon="4.83709">
        <ele>257.77</ele>
        <time>2017-03-19T12:14:36Z</time>
      </trkpt>
      <trkpt lat="50.24172" lon="4.83712">
        <ele>256.81</ele>
        <time>2017-03-19T12:14:54Z</time>
      </trkpt>
      <trkpt lat="50.24175" lon="4.83715">
        <ele>256.81</ele>
        <time>2017-03-19T12:15:10Z</time>
      </trkpt>
      <trkpt lat="50.24177" lon="4.83714">
        <ele>258.25</ele>
        <time>2017-03-19T12:15:18Z</time>
      </trkpt>
      <trkpt lat="50.24177" lon="4.83715">
        <ele>257.29</ele>
        <time>2017-03-19T12:15:39Z</time>
      </trkpt>
      <trkpt lat="50.24177" lon="4.83712">
        <ele>257.77</ele>
        <time>2017-03-19T12:16:01Z</time>
      </trkpt>
      <trkpt lat="50.24178" lon="4.83722">
        <ele>257.29</ele>
        <time>2017-03-19T12:16:23Z</time>
      </trkpt>
      <trkpt lat="50.24178" lon="4.83723">
        <ele>256.33</ele>
        <time>2017-03-19T12:16:25Z</time>
      </trkpt>
      <trkpt lat="50.24177" lon="4.83725">
        <ele>257.77</ele>
        <time>2017-03-19T12:16:28Z</time>
      </trkpt>
      <trkpt lat="50.24176" lon="4.83725">
        <ele>256.33</ele>
        <time>2017-03-19T12:16:49Z</time>
      </trkpt>
      <trkpt lat="50.24178" lon="4.83717">
        <ele>257.77</ele>
        <time>2017-03-19T12:17:10Z</time>
      </trkpt>
      <trkpt lat="50.24179" lon="4.83711">
        <ele>257.77</ele>
        <time>2017-03-19T12:17:26Z</time>
      </trkpt>
      <trkpt lat="50.24181" lon="4.83712">
        <ele>257.77</ele>
        <time>2017-03-19T12:17:53Z</time>
      </trkpt>
      <trkpt lat="50.24178" lon="4.83718">
        <ele>257.77</ele>
        <time>2017-03-19T12:18:10Z</time>
      </trkpt>
      <trkpt lat="50.24178" lon="4.83717">
        <ele>257.29</ele>
        <time>2017-03-19T12:18:33Z</time>
      </trkpt>
      <trkpt lat="50.24177" lon="4.83725">
        <ele>257.77</ele>
        <time>2017-03-19T12:18:47Z</time>
      </trkpt>
      <trkpt lat="50.24181" lon="4.83726">
        <ele>257.77</ele>
        <time>2017-03-19T12:19:06Z</time>
      </trkpt>
      <trkpt lat="50.2418" lon="4.83727">
        <ele>258.73</ele>
        <time>2017-03-19T12:19:13Z</time>
      </trkpt>
      <trkpt lat="50.24181" lon="4.83728">
        <ele>257.29</ele>
        <time>2017-03-19T12:19:17Z</time>
      </trkpt>
      <trkpt lat="50.24184" lon="4.83723">
        <ele>256.81</ele>
        <time>2017-03-19T12:19:36Z</time>
      </trkpt>
      <trkpt lat="50.24186" lon="4.83716">
        <ele>256.33</ele>
        <time>2017-03-19T12:19:59Z</time>
      </trkpt>
      <trkpt lat="50.24185" lon="4.83713">
        <ele>256.33</ele>
        <time>2017-03-19T12:20:28Z</time>
      </trkpt>
      <trkpt lat="50.24184" lon="4.83713">
        <ele>255.85</ele>
        <time>2017-03-19T12:20:54Z</time>
      </trkpt>
      <trkpt lat="50.24184" lon="4.83707">
        <ele>255.85</ele>
        <time>2017-03-19T12:21:22Z</time>
      </trkpt>
      <trkpt lat="50.24186" lon="4.83708">
        <ele>255.85</ele>
        <time>2017-03-19T12:21:49Z</time>
      </trkpt>
      <trkpt lat="50.24183" lon="4.83711">
        <ele>255.37</ele>
        <time>2017-03-19T12:22:20Z</time>
      </trkpt>
      <trkpt lat="50.24181" lon="4.8371">
        <ele>255.37</ele>
        <time>2017-03-19T12:22:55Z</time>
      </trkpt>
      <trkpt lat="50.24182" lon="4.83712">
        <ele>256.81</ele>
        <time>2017-03-19T12:23:09Z</time>
      </trkpt>
      <trkpt lat="50.24182" lon="4.83714">
        <ele>255.37</ele>
        <time>2017-03-19T12:23:15Z</time>
      </trkpt>
      <trkpt lat="50.24184" lon="4.83715">
        <ele>255.37</ele>
        <time>2017-03-19T12:23:49Z</time>
      </trkpt>
      <trkpt lat="50.24183" lon="4.83713">
        <ele>255.37</ele>
        <time>2017-03-19T12:24:30Z</time>
      </trkpt>
      <trkpt lat="50.24179" lon="4.8371">
        <ele>254.89</ele>
        <time>2017-03-19T12:24:58Z</time>
      </trkpt>
      <trkpt lat="50.24182" lon="4.83714">
        <ele>254.89</ele>
        <time>2017-03-19T12:25:23Z</time>
      </trkpt>
      <trkpt lat="50.24182" lon="4.83709">
        <ele>254.89</ele>
        <time>2017-03-19T12:25:40Z</time>
      </trkpt>
      <trkpt lat="50.24179" lon="4.83695">
        <ele>255.85</ele>
        <time>2017-03-19T12:25:57Z</time>
      </trkpt>
      <trkpt lat="50.24173" lon="4.83686">
        <ele>255.85</ele>
        <time>2017-03-19T12:26:10Z</time>
      </trkpt>
      <trkpt lat="50.24192" lon="4.83683">
        <ele>257.77</ele>
        <time>2017-03-19T12:26:27Z</time>
      </trkpt>
      <trkpt lat="50.24193" lon="4.83682">
        <ele>257.77</ele>
        <time>2017-03-19T12:26:28Z</time>
      </trkpt>
      <trkpt lat="50.24207" lon="4.83677">
        <ele>258.25</ele>
        <time>2017-03-19T12:26:43Z</time>
      </trkpt>
      <trkpt lat="50.2421" lon="4.83674">
        <ele>259.21</ele>
        <time>2017-03-19T12:26:46Z</time>
      </trkpt>
      <trkpt lat="50.24224" lon="4.83664">
        <ele>260.65</ele>
        <time>2017-03-19T12:26:59Z</time>
      </trkpt>
      <trkpt lat="50.24228" lon="4.83666">
        <ele>259.21</ele>
        <time>2017-03-19T12:27:03Z</time>
      </trkpt>
      <trkpt lat="50.24232" lon="4.83661">
        <ele>259.21</ele>
        <time>2017-03-19T12:27:18Z</time>
      </trkpt>
      <trkpt lat="50.24232" lon="4.83645">
        <ele>259.21</ele>
        <time>2017-03-19T12:27:31Z</time>
      </trkpt>
      <trkpt lat="50.24242" lon="4.83637">
        <ele>261.62</ele>
        <time>2017-03-19T12:27:41Z</time>
      </trkpt>
      <trkpt lat="50.24244" lon="4.83626">
        <ele>259.21</ele>
        <time>2017-03-19T12:27:48Z</time>
      </trkpt>
      <trkpt lat="50.24244" lon="4.83624">
        <ele>259.21</ele>
        <time>2017-03-19T12:27:49Z</time>
      </trkpt>
      <trkpt lat="50.2425" lon="4.83602">
        <ele>257.77</ele>
        <time>2017-03-19T12:28:03Z</time>
      </trkpt>
      <trkpt lat="50.24251" lon="4.83594">
        <ele>259.21</ele>
        <time>2017-03-19T12:28:08Z</time>
      </trkpt>
      <trkpt lat="50.24253" lon="4.83572">
        <ele>257.77</ele>
        <time>2017-03-19T12:28:21Z</time>
      </trkpt>
      <trkpt lat="50.24253" lon="4.83546">
        <ele>259.69</ele>
        <time>2017-03-19T12:28:36Z</time>
      </trkpt>
      <trkpt lat="50.24254" lon="4.83522">
        <ele>258.25</ele>
        <time>2017-03-19T12:28:50Z</time>
      </trkpt>
      <trkpt lat="50.24255" lon="4.83518">
        <ele>260.17</ele>
        <time>2017-03-19T12:28:52Z</time>
      </trkpt>
      <trkpt lat="50.24255" lon="4.8351">
        <ele>258.25</ele>
        <time>2017-03-19T12:28:57Z</time>
      </trkpt>
      <trkpt lat="50.24255" lon="4.83501">
        <ele>259.69</ele>
        <time>2017-03-19T12:29:02Z</time>
      </trkpt>
      <trkpt lat="50.24255" lon="4.83471">
        <ele>259.69</ele>
        <time>2017-03-19T12:29:18Z</time>
      </trkpt>
      <trkpt lat="50.24255" lon="4.83462">
        <ele>258.73</ele>
        <time>2017-03-19T12:29:23Z</time>
      </trkpt>
      <trkpt lat="50.24256" lon="4.83429">
        <ele>259.69</ele>
        <time>2017-03-19T12:29:41Z</time>
      </trkpt>
      <trkpt lat="50.24256" lon="4.8342">
        <ele>258.25</ele>
        <time>2017-03-19T12:29:46Z</time>
      </trkpt>
      <trkpt lat="50.24256" lon="4.83391">
        <ele>258.25</ele>
        <time>2017-03-19T12:30:02Z</time>
      </trkpt>
      <trkpt lat="50.24258" lon="4.83363">
        <ele>258.25</ele>
        <time>2017-03-19T12:30:19Z</time>
      </trkpt>
      <trkpt lat="50.24259" lon="4.83359">
        <ele>259.69</ele>
        <time>2017-03-19T12:30:33Z</time>
      </trkpt>
      <trkpt lat="50.24261" lon="4.8336">
        <ele>260.17</ele>
        <time>2017-03-19T12:30:45Z</time>
      </trkpt>
      <trkpt lat="50.24262" lon="4.8336">
        <ele>260.17</ele>
        <time>2017-03-19T12:30:46Z</time>
      </trkpt>
      <trkpt lat="50.24261" lon="4.83369">
        <ele>258.73</ele>
        <time>2017-03-19T12:30:52Z</time>
      </trkpt>
      <trkpt lat="50.2426" lon="4.83368">
        <ele>259.69</ele>
        <time>2017-03-19T12:31:11Z</time>
      </trkpt>
      <trkpt lat="50.24263" lon="4.83369">
        <ele>259.21</ele>
        <time>2017-03-19T12:31:41Z</time>
      </trkpt>
      <trkpt lat="50.24261" lon="4.83359">
        <ele>259.21</ele>
        <time>2017-03-19T12:31:50Z</time>
      </trkpt>
      <trkpt lat="50.2426" lon="4.83326">
        <ele>260.17</ele>
        <time>2017-03-19T12:32:06Z</time>
      </trkpt>
      <trkpt lat="50.24262" lon="4.83292">
        <ele>260.17</ele>
        <time>2017-03-19T12:32:23Z</time>
      </trkpt>
      <trkpt lat="50.24263" lon="4.83259">
        <ele>261.62</ele>
        <time>2017-03-19T12:32:38Z</time>
      </trkpt>
      <trkpt lat="50.24263" lon="4.83255">
        <ele>259.69</ele>
        <time>2017-03-19T12:32:40Z</time>
      </trkpt>
      <trkpt lat="50.24264" lon="4.83248">
        <ele>261.62</ele>
        <time>2017-03-19T12:32:43Z</time>
      </trkpt>
      <trkpt lat="50.24264" lon="4.83237">
        <ele>259.69</ele>
        <time>2017-03-19T12:32:48Z</time>
      </trkpt>
      <trkpt lat="50.24265" lon="4.83227">
        <ele>260.17</ele>
        <time>2017-03-19T12:32:53Z</time>
      </trkpt>
      <trkpt lat="50.24265" lon="4.8322">
        <ele>259.21</ele>
        <time>2017-03-19T12:32:56Z</time>
      </trkpt>
      <trkpt lat="50.24265" lon="4.83208">
        <ele>260.65</ele>
        <time>2017-03-19T12:33:02Z</time>
      </trkpt>
      <trkpt lat="50.24266" lon="4.83195">
        <ele>259.69</ele>
        <time>2017-03-19T12:33:08Z</time>
      </trkpt>
      <trkpt lat="50.24267" lon="4.83171">
        <ele>260.65</ele>
        <time>2017-03-19T12:33:20Z</time>
      </trkpt>
      <trkpt lat="50.24268" lon="4.83161">
        <ele>261.62</ele>
        <time>2017-03-19T12:33:25Z</time>
      </trkpt>
      <trkpt lat="50.2427" lon="4.83121">
        <ele>260.65</ele>
        <time>2017-03-19T12:33:45Z</time>
      </trkpt>
      <trkpt lat="50.24271" lon="4.83111">
        <ele>262.1</ele>
        <time>2017-03-19T12:33:50Z</time>
      </trkpt>
      <trkpt lat="50.24278" lon="4.83072">
        <ele>260.17</ele>
        <time>2017-03-19T12:34:09Z</time>
      </trkpt>
      <trkpt lat="50.24285" lon="4.83045">
        <ele>261.14</ele>
        <time>2017-03-19T12:34:25Z</time>
      </trkpt>
      <trkpt lat="50.24286" lon="4.83046">
        <ele>259.69</ele>
        <time>2017-03-19T12:34:27Z</time>
      </trkpt>
      <trkpt lat="50.24289" lon="4.8304">
        <ele>261.14</ele>
        <time>2017-03-19T12:34:43Z</time>
      </trkpt>
      <trkpt lat="50.2429" lon="4.83039">
        <ele>261.14</ele>
        <time>2017-03-19T12:34:49Z</time>
      </trkpt>
      <trkpt lat="50.24291" lon="4.83037">
        <ele>259.69</ele>
        <time>2017-03-19T12:34:59Z</time>
      </trkpt>
      <trkpt lat="50.24291" lon="4.83037">
        <ele>261.14</ele>
        <time>2017-03-19T12:35:02Z</time>
      </trkpt>
      <trkpt lat="50.24291" lon="4.83036">
        <ele>259.69</ele>
        <time>2017-03-19T12:35:13Z</time>
      </trkpt>
      <trkpt lat="50.24291" lon="4.83034">
        <ele>259.69</ele>
        <time>2017-03-19T12:35:30Z</time>
      </trkpt>
      <trkpt lat="50.24291" lon="4.83032">
        <ele>261.14</ele>
        <time>2017-03-19T12:35:33Z</time>
      </trkpt>
      <trkpt lat="50.24293" lon="4.83028">
        <ele>259.69</ele>
        <time>2017-03-19T12:35:44Z</time>
      </trkpt>
      <trkpt lat="50.24293" lon="4.83027">
        <ele>261.14</ele>
        <time>2017-03-19T12:35:53Z</time>
      </trkpt>
      <trkpt lat="50.24291" lon="4.83028">
        <ele>261.62</ele>
        <time>2017-03-19T12:36:14Z</time>
      </trkpt>
      <trkpt lat="50.24291" lon="4.83027">
        <ele>260.65</ele>
        <time>2017-03-19T12:36:27Z</time>
      </trkpt>
      <trkpt lat="50.24288" lon="4.83015">
        <ele>259.21</ele>
        <time>2017-03-19T12:36:42Z</time>
      </trkpt>
      <trkpt lat="50.24287" lon="4.83013">
        <ele>259.21</ele>
        <time>2017-03-19T12:36:44Z</time>
      </trkpt>
      <trkpt lat="50.2428" lon="4.82989">
        <ele>258.25</ele>
        <time>2017-03-19T12:37:00Z</time>
      </trkpt>
      <trkpt lat="50.24277" lon="4.82982">
        <ele>257.29</ele>
        <time>2017-03-19T12:37:05Z</time>
      </trkpt>
      <trkpt lat="50.24272" lon="4.82966">
        <ele>256.81</ele>
        <time>2017-03-19T12:37:18Z</time>
      </trkpt>
      <trkpt lat="50.24266" lon="4.82943">
        <ele>255.85</ele>
        <time>2017-03-19T12:37:32Z</time>
      </trkpt>
      <trkpt lat="50.2426" lon="4.82917">
        <ele>253.93</ele>
        <time>2017-03-19T12:37:47Z</time>
      </trkpt>
      <trkpt lat="50.24252" lon="4.8289">
        <ele>253.93</ele>
        <time>2017-03-19T12:38:02Z</time>
      </trkpt>
      <trkpt lat="50.24248" lon="4.8288">
        <ele>255.37</ele>
        <time>2017-03-19T12:38:10Z</time>
      </trkpt>
      <trkpt lat="50.24246" lon="4.82876">
        <ele>255.37</ele>
        <time>2017-03-19T12:38:13Z</time>
      </trkpt>
      <trkpt lat="50.24245" lon="4.82857">
        <ele>256.33</ele>
        <time>2017-03-19T12:38:27Z</time>
      </trkpt>
      <trkpt lat="50.24246" lon="4.82855">
        <ele>256.33</ele>
        <time>2017-03-19T12:38:29Z</time>
      </trkpt>
      <trkpt lat="50.24258" lon="4.82841">
        <ele>259.69</ele>
        <time>2017-03-19T12:38:42Z</time>
      </trkpt>
      <trkpt lat="50.24259" lon="4.8284">
        <ele>259.69</ele>
        <time>2017-03-19T12:38:43Z</time>
      </trkpt>
      <trkpt lat="50.24272" lon="4.82827">
        <ele>258.25</ele>
        <time>2017-03-19T12:38:55Z</time>
      </trkpt>
      <trkpt lat="50.24276" lon="4.82823">
        <ele>260.17</ele>
        <time>2017-03-19T12:38:59Z</time>
      </trkpt>
      <trkpt lat="50.24285" lon="4.82812">
        <ele>257.77</ele>
        <time>2017-03-19T12:39:09Z</time>
      </trkpt>
      <trkpt lat="50.24289" lon="4.82807">
        <ele>259.21</ele>
        <time>2017-03-19T12:39:14Z</time>
      </trkpt>
      <trkpt lat="50.24297" lon="4.828">
        <ele>259.69</ele>
        <time>2017-03-19T12:39:22Z</time>
      </trkpt>
      <trkpt lat="50.24306" lon="4.82782">
        <ele>261.14</ele>
        <time>2017-03-19T12:39:36Z</time>
      </trkpt>
      <trkpt lat="50.24308" lon="4.82774">
        <ele>259.69</ele>
        <time>2017-03-19T12:39:41Z</time>
      </trkpt>
      <trkpt lat="50.24304" lon="4.82746">
        <ele>259.21</ele>
        <time>2017-03-19T12:39:57Z</time>
      </trkpt>
      <trkpt lat="50.24298" lon="4.82723">
        <ele>259.21</ele>
        <time>2017-03-19T12:40:12Z</time>
      </trkpt>
      <trkpt lat="50.24293" lon="4.82694">
        <ele>259.21</ele>
        <time>2017-03-19T12:40:29Z</time>
      </trkpt>
      <trkpt lat="50.2429" lon="4.82672">
        <ele>258.73</ele>
        <time>2017-03-19T12:40:42Z</time>
      </trkpt>
      <trkpt lat="50.24288" lon="4.82653">
        <ele>257.77</ele>
        <time>2017-03-19T12:40:57Z</time>
      </trkpt>
      <trkpt lat="50.24288" lon="4.82646">
        <ele>257.77</ele>
        <time>2017-03-19T12:41:09Z</time>
      </trkpt>
      <trkpt lat="50.24286" lon="4.82638">
        <ele>258.73</ele>
        <time>2017-03-19T12:41:18Z</time>
      </trkpt>
      <trkpt lat="50.24279" lon="4.82609">
        <ele>256.81</ele>
        <time>2017-03-19T12:41:34Z</time>
      </trkpt>
      <trkpt lat="50.24277" lon="4.826">
        <ele>256.81</ele>
        <time>2017-03-19T12:41:39Z</time>
      </trkpt>
      <trkpt lat="50.24272" lon="4.82574">
        <ele>254.41</ele>
        <time>2017-03-19T12:41:54Z</time>
      </trkpt>
      <trkpt lat="50.24267" lon="4.82547">
        <ele>252</ele>
        <time>2017-03-19T12:42:08Z</time>
      </trkpt>
      <trkpt lat="50.24267" lon="4.82517">
        <ele>253.44</ele>
        <time>2017-03-19T12:42:23Z</time>
      </trkpt>
      <trkpt lat="50.24284" lon="4.82494">
        <ele>254.41</ele>
        <time>2017-03-19T12:42:40Z</time>
      </trkpt>
      <trkpt lat="50.24302" lon="4.82474">
        <ele>257.29</ele>
        <time>2017-03-19T12:42:59Z</time>
      </trkpt>
      <trkpt lat="50.24317" lon="4.82463">
        <ele>257.77</ele>
        <time>2017-03-19T12:43:16Z</time>
      </trkpt>
      <trkpt lat="50.24327" lon="4.82458">
        <ele>258.73</ele>
        <time>2017-03-19T12:43:28Z</time>
      </trkpt>
      <trkpt lat="50.24336" lon="4.82452">
        <ele>258.73</ele>
        <time>2017-03-19T12:43:39Z</time>
      </trkpt>
      <trkpt lat="50.24352" lon="4.82441">
        <ele>259.21</ele>
        <time>2017-03-19T12:43:56Z</time>
      </trkpt>
      <trkpt lat="50.2437" lon="4.82431">
        <ele>258.25</ele>
        <time>2017-03-19T12:44:13Z</time>
      </trkpt>
      <trkpt lat="50.24385" lon="4.82421">
        <ele>257.77</ele>
        <time>2017-03-19T12:44:28Z</time>
      </trkpt>
      <trkpt lat="50.24399" lon="4.82411">
        <ele>258.25</ele>
        <time>2017-03-19T12:44:45Z</time>
      </trkpt>
      <trkpt lat="50.24414" lon="4.824">
        <ele>258.25</ele>
        <time>2017-03-19T12:45:02Z</time>
      </trkpt>
      <trkpt lat="50.2443" lon="4.82389">
        <ele>258.73</ele>
        <time>2017-03-19T12:45:19Z</time>
      </trkpt>
      <trkpt lat="50.24448" lon="4.82376">
        <ele>259.69</ele>
        <time>2017-03-19T12:45:38Z</time>
      </trkpt>
      <trkpt lat="50.24463" lon="4.82366">
        <ele>260.65</ele>
        <time>2017-03-19T12:45:55Z</time>
      </trkpt>
      <trkpt lat="50.24477" lon="4.82357">
        <ele>262.1</ele>
        <time>2017-03-19T12:46:14Z</time>
      </trkpt>
      <trkpt lat="50.24484" lon="4.82352">
        <ele>262.1</ele>
        <time>2017-03-19T12:46:30Z</time>
      </trkpt>
      <trkpt lat="50.24483" lon="4.82352">
        <ele>262.58</ele>
        <time>2017-03-19T12:46:48Z</time>
      </trkpt>
      <trkpt lat="50.24483" lon="4.82352">
        <ele>262.58</ele>
        <time>2017-03-19T12:47:10Z</time>
      </trkpt>
      <trkpt lat="50.24483" lon="4.82353">
        <ele>262.58</ele>
        <time>2017-03-19T12:47:33Z</time>
      </trkpt>
      <trkpt lat="50.24484" lon="4.82352">
        <ele>263.06</ele>
        <time>2017-03-19T12:47:53Z</time>
      </trkpt>
      <trkpt lat="50.24484" lon="4.82353">
        <ele>263.06</ele>
        <time>2017-03-19T12:48:14Z</time>
      </trkpt>
      <trkpt lat="50.24483" lon="4.82352">
        <ele>263.06</ele>
        <time>2017-03-19T12:48:30Z</time>
      </trkpt>
      <trkpt lat="50.24483" lon="4.82353">
        <ele>263.06</ele>
        <time>2017-03-19T12:48:51Z</time>
      </trkpt>
      <trkpt lat="50.24484" lon="4.82353">
        <ele>262.1</ele>
        <time>2017-03-19T12:49:16Z</time>
      </trkpt>
      <trkpt lat="50.24483" lon="4.82353">
        <ele>262.1</ele>
        <time>2017-03-19T12:49:40Z</time>
      </trkpt>
      <trkpt lat="50.2449" lon="4.82343">
        <ele>262.1</ele>
        <time>2017-03-19T12:49:56Z</time>
      </trkpt>
      <trkpt lat="50.24495" lon="4.82325">
        <ele>262.1</ele>
        <time>2017-03-19T12:50:09Z</time>
      </trkpt>
      <trkpt lat="50.24497" lon="4.82319">
        <ele>263.54</ele>
        <time>2017-03-19T12:50:13Z</time>
      </trkpt>
      <trkpt lat="50.24503" lon="4.82299">
        <ele>264.02</ele>
        <time>2017-03-19T12:50:27Z</time>
      </trkpt>
      <trkpt lat="50.24512" lon="4.82273">
        <ele>264.5</ele>
        <time>2017-03-19T12:50:44Z</time>
      </trkpt>
      <trkpt lat="50.24513" lon="4.8227">
        <ele>264.5</ele>
        <time>2017-03-19T12:50:46Z</time>
      </trkpt>
      <trkpt lat="50.24523" lon="4.82244">
        <ele>264.5</ele>
        <time>2017-03-19T12:51:03Z</time>
      </trkpt>
      <trkpt lat="50.2453" lon="4.8222">
        <ele>265.46</ele>
        <time>2017-03-19T12:51:19Z</time>
      </trkpt>
      <trkpt lat="50.24538" lon="4.82196">
        <ele>264.98</ele>
        <time>2017-03-19T12:51:34Z</time>
      </trkpt>
      <trkpt lat="50.24549" lon="4.82166">
        <ele>264.5</ele>
        <time>2017-03-19T12:51:53Z</time>
      </trkpt>
      <trkpt lat="50.24556" lon="4.82146">
        <ele>265.46</ele>
        <time>2017-03-19T12:52:05Z</time>
      </trkpt>
      <trkpt lat="50.24566" lon="4.82115">
        <ele>265.94</ele>
        <time>2017-03-19T12:52:25Z</time>
      </trkpt>
      <trkpt lat="50.24571" lon="4.82095">
        <ele>266.9</ele>
        <time>2017-03-19T12:52:41Z</time>
      </trkpt>
      <trkpt lat="50.24559" lon="4.82089">
        <ele>266.9</ele>
        <time>2017-03-19T12:52:56Z</time>
      </trkpt>
      <trkpt lat="50.24552" lon="4.82085">
        <ele>265.46</ele>
        <time>2017-03-19T12:53:02Z</time>
      </trkpt>
      <trkpt lat="50.24546" lon="4.82083">
        <ele>265.46</ele>
        <time>2017-03-19T12:53:07Z</time>
      </trkpt>
      <trkpt lat="50.24528" lon="4.82074">
        <ele>264.98</ele>
        <time>2017-03-19T12:53:25Z</time>
      </trkpt>
      <trkpt lat="50.24512" lon="4.82066">
        <ele>263.06</ele>
        <time>2017-03-19T12:53:40Z</time>
      </trkpt>
      <trkpt lat="50.24495" lon="4.82057">
        <ele>260.65</ele>
        <time>2017-03-19T12:53:57Z</time>
      </trkpt>
      <trkpt lat="50.24486" lon="4.82054">
        <ele>258.73</ele>
        <time>2017-03-19T12:54:05Z</time>
      </trkpt>
      <trkpt lat="50.24483" lon="4.82051">
        <ele>260.17</ele>
        <time>2017-03-19T12:54:08Z</time>
      </trkpt>
      <trkpt lat="50.24482" lon="4.82048">
        <ele>261.14</ele>
        <time>2017-03-19T12:54:10Z</time>
      </trkpt>
      <trkpt lat="50.24473" lon="4.82024">
        <ele>258.73</ele>
        <time>2017-03-19T12:54:27Z</time>
      </trkpt>
      <trkpt lat="50.24467" lon="4.82">
        <ele>257.77</ele>
        <time>2017-03-19T12:54:42Z</time>
      </trkpt>
      <trkpt lat="50.24464" lon="4.81987">
        <ele>255.37</ele>
        <time>2017-03-19T12:54:51Z</time>
      </trkpt>
      <trkpt lat="50.24465" lon="4.81983">
        <ele>258.73</ele>
        <time>2017-03-19T12:54:53Z</time>
      </trkpt>
      <trkpt lat="50.24465" lon="4.8198">
        <ele>259.21</ele>
        <time>2017-03-19T12:54:55Z</time>
      </trkpt>
      <trkpt lat="50.24464" lon="4.81974">
        <ele>258.25</ele>
        <time>2017-03-19T12:54:59Z</time>
      </trkpt>
      <trkpt lat="50.24463" lon="4.81948">
        <ele>256.33</ele>
        <time>2017-03-19T12:55:15Z</time>
      </trkpt>
      <trkpt lat="50.24462" lon="4.81923">
        <ele>255.37</ele>
        <time>2017-03-19T12:55:31Z</time>
      </trkpt>
      <trkpt lat="50.24461" lon="4.81899">
        <ele>254.89</ele>
        <time>2017-03-19T12:55:48Z</time>
      </trkpt>
      <trkpt lat="50.24459" lon="4.81871">
        <ele>254.41</ele>
        <time>2017-03-19T12:56:03Z</time>
      </trkpt>
      <trkpt lat="50.24457" lon="4.81848">
        <ele>254.41</ele>
        <time>2017-03-19T12:56:15Z</time>
      </trkpt>
      <trkpt lat="50.24455" lon="4.81835">
        <ele>253.44</ele>
        <time>2017-03-19T12:56:22Z</time>
      </trkpt>
      <trkpt lat="50.24448" lon="4.81807">
        <ele>252.96</ele>
        <time>2017-03-19T12:56:37Z</time>
      </trkpt>
      <trkpt lat="50.24436" lon="4.81779">
        <ele>251.52</ele>
        <time>2017-03-19T12:56:55Z</time>
      </trkpt>
      <trkpt lat="50.24425" lon="4.81754">
        <ele>250.08</ele>
        <time>2017-03-19T12:57:11Z</time>
      </trkpt>
      <trkpt lat="50.24424" lon="4.81747">
        <ele>250.08</ele>
        <time>2017-03-19T12:57:16Z</time>
      </trkpt>
      <trkpt lat="50.24424" lon="4.81743">
        <ele>252</ele>
        <time>2017-03-19T12:57:19Z</time>
      </trkpt>
      <trkpt lat="50.24423" lon="4.81738">
        <ele>250.56</ele>
        <time>2017-03-19T12:57:22Z</time>
      </trkpt>
      <trkpt lat="50.24423" lon="4.81735">
        <ele>250.56</ele>
        <time>2017-03-19T12:57:24Z</time>
      </trkpt>
      <trkpt lat="50.24423" lon="4.8173">
        <ele>248.64</ele>
        <time>2017-03-19T12:57:27Z</time>
      </trkpt>
      <trkpt lat="50.24424" lon="4.81703">
        <ele>250.08</ele>
        <time>2017-03-19T12:57:43Z</time>
      </trkpt>
      <trkpt lat="50.24432" lon="4.81677">
        <ele>251.04</ele>
        <time>2017-03-19T12:57:59Z</time>
      </trkpt>
      <trkpt lat="50.24436" lon="4.81668">
        <ele>250.08</ele>
        <time>2017-03-19T12:58:05Z</time>
      </trkpt>
      <trkpt lat="50.24442" lon="4.81657">
        <ele>250.08</ele>
        <time>2017-03-19T12:58:13Z</time>
      </trkpt>
      <trkpt lat="50.24447" lon="4.81623">
        <ele>251.52</ele>
        <time>2017-03-19T12:58:31Z</time>
      </trkpt>
      <trkpt lat="50.24447" lon="4.81599">
        <ele>250.08</ele>
        <time>2017-03-19T12:58:44Z</time>
      </trkpt>
      <trkpt lat="50.24449" lon="4.81558">
        <ele>251.52</ele>
        <time>2017-03-19T12:59:05Z</time>
      </trkpt>
      <trkpt lat="50.24449" lon="4.81557">
        <ele>251.52</ele>
        <time>2017-03-19T12:59:06Z</time>
      </trkpt>
      <trkpt lat="50.24451" lon="4.8153">
        <ele>253.93</ele>
        <time>2017-03-19T12:59:23Z</time>
      </trkpt>
      <trkpt lat="50.24457" lon="4.81529">
        <ele>254.89</ele>
        <time>2017-03-19T12:59:38Z</time>
      </trkpt>
      <trkpt lat="50.24467" lon="4.81531">
        <ele>255.37</ele>
        <time>2017-03-19T12:59:51Z</time>
      </trkpt>
      <trkpt lat="50.24485" lon="4.81525">
        <ele>256.81</ele>
        <time>2017-03-19T13:00:09Z</time>
      </trkpt>
      <trkpt lat="50.24499" lon="4.81526">
        <ele>257.29</ele>
        <time>2017-03-19T13:00:24Z</time>
      </trkpt>
      <trkpt lat="50.24502" lon="4.81541">
        <ele>257.29</ele>
        <time>2017-03-19T13:00:39Z</time>
      </trkpt>
      <trkpt lat="50.24506" lon="4.81553">
        <ele>257.77</ele>
        <time>2017-03-19T13:00:51Z</time>
      </trkpt>
      <trkpt lat="50.24522" lon="4.81553">
        <ele>258.73</ele>
        <time>2017-03-19T13:01:07Z</time>
      </trkpt>
      <trkpt lat="50.24539" lon="4.81551">
        <ele>259.21</ele>
        <time>2017-03-19T13:01:23Z</time>
      </trkpt>
      <trkpt lat="50.24555" lon="4.81549">
        <ele>259.21</ele>
        <time>2017-03-19T13:01:37Z</time>
      </trkpt>
      <trkpt lat="50.24572" lon="4.8155">
        <ele>260.65</ele>
        <time>2017-03-19T13:01:52Z</time>
      </trkpt>
      <trkpt lat="50.24589" lon="4.81556">
        <ele>260.17</ele>
        <time>2017-03-19T13:02:09Z</time>
      </trkpt>
      <trkpt lat="50.24605" lon="4.8156">
        <ele>261.62</ele>
        <time>2017-03-19T13:02:24Z</time>
      </trkpt>
      <trkpt lat="50.24622" lon="4.81563">
        <ele>262.1</ele>
        <time>2017-03-19T13:02:39Z</time>
      </trkpt>
      <trkpt lat="50.2464" lon="4.81553">
        <ele>261.14</ele>
        <time>2017-03-19T13:02:55Z</time>
      </trkpt>
      <trkpt lat="50.24641" lon="4.81552">
        <ele>261.14</ele>
        <time>2017-03-19T13:02:56Z</time>
      </trkpt>
      <trkpt lat="50.24657" lon="4.8155">
        <ele>263.06</ele>
        <time>2017-03-19T13:03:11Z</time>
      </trkpt>
      <trkpt lat="50.24674" lon="4.81552">
        <ele>264.5</ele>
        <time>2017-03-19T13:03:27Z</time>
      </trkpt>
      <trkpt lat="50.24681" lon="4.81555">
        <ele>263.54</ele>
        <time>2017-03-19T13:03:34Z</time>
      </trkpt>
      <trkpt lat="50.24697" lon="4.81563">
        <ele>263.54</ele>
        <time>2017-03-19T13:03:49Z</time>
      </trkpt>
      <trkpt lat="50.24698" lon="4.81563">
        <ele>263.54</ele>
        <time>2017-03-19T13:03:50Z</time>
      </trkpt>
      <trkpt lat="50.24714" lon="4.8157">
        <ele>261.62</ele>
        <time>2017-03-19T13:04:06Z</time>
      </trkpt>
      <trkpt lat="50.24729" lon="4.81578">
        <ele>261.14</ele>
        <time>2017-03-19T13:04:22Z</time>
      </trkpt>
      <trkpt lat="50.24746" lon="4.8159">
        <ele>259.21</ele>
        <time>2017-03-19T13:04:38Z</time>
      </trkpt>
      <trkpt lat="50.24761" lon="4.81601">
        <ele>257.77</ele>
        <time>2017-03-19T13:04:53Z</time>
      </trkpt>
      <trkpt lat="50.24775" lon="4.81611">
        <ele>256.81</ele>
        <time>2017-03-19T13:05:07Z</time>
      </trkpt>
      <trkpt lat="50.24789" lon="4.8162">
        <ele>255.37</ele>
        <time>2017-03-19T13:05:20Z</time>
      </trkpt>
      <trkpt lat="50.24804" lon="4.81628">
        <ele>254.41</ele>
        <time>2017-03-19T13:05:34Z</time>
      </trkpt>
      <trkpt lat="50.24806" lon="4.81629">
        <ele>253.93</ele>
        <time>2017-03-19T13:05:36Z</time>
      </trkpt>
      <trkpt lat="50.24811" lon="4.81631">
        <ele>252.96</ele>
        <time>2017-03-19T13:05:41Z</time>
      </trkpt>
      <trkpt lat="50.24823" lon="4.81633">
        <ele>251.04</ele>
        <time>2017-03-19T13:05:54Z</time>
      </trkpt>
      <trkpt lat="50.24827" lon="4.81634">
        <ele>249.6</ele>
        <time>2017-03-19T13:06:02Z</time>
      </trkpt>
      <trkpt lat="50.24824" lon="4.81631">
        <ele>250.08</ele>
        <time>2017-03-19T13:06:08Z</time>
      </trkpt>
      <trkpt lat="50.24823" lon="4.81633">
        <ele>251.52</ele>
        <time>2017-03-19T13:06:10Z</time>
      </trkpt>
      <trkpt lat="50.24822" lon="4.81639">
        <ele>252</ele>
        <time>2017-03-19T13:06:31Z</time>
      </trkpt>
      <trkpt lat="50.24821" lon="4.8164">
        <ele>250.56</ele>
        <time>2017-03-19T13:06:46Z</time>
      </trkpt>
      <trkpt lat="50.24821" lon="4.81639">
        <ele>251.52</ele>
        <time>2017-03-19T13:07:04Z</time>
      </trkpt>
      <trkpt lat="50.24822" lon="4.81639">
        <ele>251.52</ele>
        <time>2017-03-19T13:07:05Z</time>
      </trkpt>
      <trkpt lat="50.24829" lon="4.8164">
        <ele>250.56</ele>
        <time>2017-03-19T13:07:10Z</time>
      </trkpt>
      <trkpt lat="50.24854" lon="4.81664">
        <ele>247.68</ele>
        <time>2017-03-19T13:07:28Z</time>
      </trkpt>
      <trkpt lat="50.24865" lon="4.81679">
        <ele>244.31</ele>
        <time>2017-03-19T13:07:38Z</time>
      </trkpt>
      <trkpt lat="50.24871" lon="4.81691">
        <ele>242.87</ele>
        <time>2017-03-19T13:07:44Z</time>
      </trkpt>
      <trkpt lat="50.24886" lon="4.81722">
        <ele>242.39</ele>
        <time>2017-03-19T13:08:00Z</time>
      </trkpt>
      <trkpt lat="50.249" lon="4.81754">
        <ele>239.99</ele>
        <time>2017-03-19T13:08:15Z</time>
      </trkpt>
      <trkpt lat="50.24915" lon="4.81797">
        <ele>238.06</ele>
        <time>2017-03-19T13:08:35Z</time>
      </trkpt>
      <trkpt lat="50.24923" lon="4.81845">
        <ele>235.18</ele>
        <time>2017-03-19T13:08:56Z</time>
      </trkpt>
      <trkpt lat="50.2493" lon="4.81881">
        <ele>231.81</ele>
        <time>2017-03-19T13:09:13Z</time>
      </trkpt>
      <trkpt lat="50.24943" lon="4.81921">
        <ele>228.45</ele>
        <time>2017-03-19T13:09:32Z</time>
      </trkpt>
      <trkpt lat="50.24948" lon="4.81941">
        <ele>227.49</ele>
        <time>2017-03-19T13:09:44Z</time>
      </trkpt>
      <trkpt lat="50.24948" lon="4.81942">
        <ele>227.01</ele>
        <time>2017-03-19T13:09:48Z</time>
      </trkpt>
      <trkpt lat="50.24959" lon="4.81975">
        <ele>225.57</ele>
        <time>2017-03-19T13:10:06Z</time>
      </trkpt>
      <trkpt lat="50.24965" lon="4.81996">
        <ele>224.61</ele>
        <time>2017-03-19T13:10:20Z</time>
      </trkpt>
      <trkpt lat="50.24971" lon="4.82019">
        <ele>222.68</ele>
        <time>2017-03-19T13:10:34Z</time>
      </trkpt>
      <trkpt lat="50.24976" lon="4.82042">
        <ele>221.72</ele>
        <time>2017-03-19T13:10:48Z</time>
      </trkpt>
      <trkpt lat="50.24981" lon="4.82069">
        <ele>220.28</ele>
        <time>2017-03-19T13:11:03Z</time>
      </trkpt>
      <trkpt lat="50.24986" lon="4.82094">
        <ele>218.84</ele>
        <time>2017-03-19T13:11:17Z</time>
      </trkpt>
      <trkpt lat="50.24991" lon="4.82121">
        <ele>217.88</ele>
        <time>2017-03-19T13:11:32Z</time>
      </trkpt>
      <trkpt lat="50.24993" lon="4.82142">
        <ele>216.91</ele>
        <time>2017-03-19T13:11:46Z</time>
      </trkpt>
      <trkpt lat="50.24993" lon="4.82143">
        <ele>216.43</ele>
        <time>2017-03-19T13:11:47Z</time>
      </trkpt>
      <trkpt lat="50.24993" lon="4.82147">
        <ele>216.43</ele>
        <time>2017-03-19T13:11:50Z</time>
      </trkpt>
      <trkpt lat="50.24995" lon="4.82175">
        <ele>215.95</ele>
        <time>2017-03-19T13:12:06Z</time>
      </trkpt>
      <trkpt lat="50.24997" lon="4.82192">
        <ele>215.95</ele>
        <time>2017-03-19T13:12:16Z</time>
      </trkpt>
      <trkpt lat="50.24997" lon="4.82199">
        <ele>215.95</ele>
        <time>2017-03-19T13:12:20Z</time>
      </trkpt>
      <trkpt lat="50.24998" lon="4.82219">
        <ele>216.91</ele>
        <time>2017-03-19T13:12:31Z</time>
      </trkpt>
      <trkpt lat="50.24998" lon="4.82227">
        <ele>216.91</ele>
        <time>2017-03-19T13:12:35Z</time>
      </trkpt>
      <trkpt lat="50.25" lon="4.82256">
        <ele>216.91</ele>
        <time>2017-03-19T13:12:51Z</time>
      </trkpt>
      <trkpt lat="50.25001" lon="4.82283">
        <ele>218.36</ele>
        <time>2017-03-19T13:13:06Z</time>
      </trkpt>
      <trkpt lat="50.25003" lon="4.82317">
        <ele>217.88</ele>
        <time>2017-03-19T13:13:24Z</time>
      </trkpt>
      <trkpt lat="50.25003" lon="4.82344">
        <ele>219.32</ele>
        <time>2017-03-19T13:13:40Z</time>
      </trkpt>
      <trkpt lat="50.25004" lon="4.82372">
        <ele>220.28</ele>
        <time>2017-03-19T13:13:56Z</time>
      </trkpt>
      <trkpt lat="50.25004" lon="4.82399">
        <ele>220.76</ele>
        <time>2017-03-19T13:14:12Z</time>
      </trkpt>
      <trkpt lat="50.25005" lon="4.82424">
        <ele>221.72</ele>
        <time>2017-03-19T13:14:27Z</time>
      </trkpt>
      <trkpt lat="50.25005" lon="4.82426">
        <ele>221.72</ele>
        <time>2017-03-19T13:14:28Z</time>
      </trkpt>
      <trkpt lat="50.25004" lon="4.82442">
        <ele>221.24</ele>
        <time>2017-03-19T13:14:37Z</time>
      </trkpt>
      <trkpt lat="50.25005" lon="4.82464">
        <ele>220.28</ele>
        <time>2017-03-19T13:14:49Z</time>
      </trkpt>
      <trkpt lat="50.25006" lon="4.82476">
        <ele>219.32</ele>
        <time>2017-03-19T13:14:56Z</time>
      </trkpt>
      <trkpt lat="50.25007" lon="4.82506">
        <ele>219.32</ele>
        <time>2017-03-19T13:15:13Z</time>
      </trkpt>
      <trkpt lat="50.25008" lon="4.82529">
        <ele>220.28</ele>
        <time>2017-03-19T13:15:30Z</time>
      </trkpt>
      <trkpt lat="50.25014" lon="4.82536">
        <ele>218.84</ele>
        <time>2017-03-19T13:15:41Z</time>
      </trkpt>
      <trkpt lat="50.25022" lon="4.82542">
        <ele>218.84</ele>
        <time>2017-03-19T13:15:56Z</time>
      </trkpt>
      <trkpt lat="50.25022" lon="4.82541">
        <ele>218.84</ele>
        <time>2017-03-19T13:16:06Z</time>
      </trkpt>
      <trkpt lat="50.25022" lon="4.82543">
        <ele>220.28</ele>
        <time>2017-03-19T13:16:27Z</time>
      </trkpt>
      <trkpt lat="50.25025" lon="4.82539">
        <ele>220.76</ele>
        <time>2017-03-19T13:16:44Z</time>
      </trkpt>
      <trkpt lat="50.25026" lon="4.82537">
        <ele>220.76</ele>
        <time>2017-03-19T13:16:46Z</time>
      </trkpt>
      <trkpt lat="50.25035" lon="4.82514">
        <ele>220.76</ele>
        <time>2017-03-19T13:17:03Z</time>
      </trkpt>
      <trkpt lat="50.25039" lon="4.82512">
        <ele>220.76</ele>
        <time>2017-03-19T13:17:09Z</time>
      </trkpt>
      <trkpt lat="50.25047" lon="4.82532">
        <ele>222.68</ele>
        <time>2017-03-19T13:17:25Z</time>
      </trkpt>
      <trkpt lat="50.25054" lon="4.82552">
        <ele>224.12</ele>
        <time>2017-03-19T13:17:40Z</time>
      </trkpt>
      <trkpt lat="50.25063" lon="4.82573">
        <ele>226.05</ele>
        <time>2017-03-19T13:17:56Z</time>
      </trkpt>
      <trkpt lat="50.25068" lon="4.82593">
        <ele>227.97</ele>
        <time>2017-03-19T13:18:11Z</time>
      </trkpt>
      <trkpt lat="50.25075" lon="4.82614">
        <ele>229.41</ele>
        <time>2017-03-19T13:18:27Z</time>
      </trkpt>
      <trkpt lat="50.2508" lon="4.82629">
        <ele>230.85</ele>
        <time>2017-03-19T13:18:39Z</time>
      </trkpt>
      <trkpt lat="50.25087" lon="4.8265">
        <ele>232.78</ele>
        <time>2017-03-19T13:18:55Z</time>
      </trkpt>
      <trkpt lat="50.25096" lon="4.82665">
        <ele>234.7</ele>
        <time>2017-03-19T13:19:09Z</time>
      </trkpt>
      <trkpt lat="50.25106" lon="4.82676">
        <ele>237.1</ele>
        <time>2017-03-19T13:19:22Z</time>
      </trkpt>
      <trkpt lat="50.25117" lon="4.8269">
        <ele>239.02</ele>
        <time>2017-03-19T13:19:37Z</time>
      </trkpt>
      <trkpt lat="50.25121" lon="4.82693">
        <ele>239.02</ele>
        <time>2017-03-19T13:19:41Z</time>
      </trkpt>
      <trkpt lat="50.25133" lon="4.82703">
        <ele>239.99</ele>
        <time>2017-03-19T13:19:56Z</time>
      </trkpt>
      <trkpt lat="50.25149" lon="4.82711">
        <ele>240.95</ele>
        <time>2017-03-19T13:20:14Z</time>
      </trkpt>
      <trkpt lat="50.25157" lon="4.82714">
        <ele>242.39</ele>
        <time>2017-03-19T13:20:22Z</time>
      </trkpt>
      <trkpt lat="50.2517" lon="4.82719">
        <ele>242.87</ele>
        <time>2017-03-19T13:20:36Z</time>
      </trkpt>
      <trkpt lat="50.25188" lon="4.82724">
        <ele>243.83</ele>
        <time>2017-03-19T13:20:54Z</time>
      </trkpt>
      <trkpt lat="50.25195" lon="4.82727">
        <ele>244.31</ele>
        <time>2017-03-19T13:21:01Z</time>
      </trkpt>
      <trkpt lat="50.25202" lon="4.82728">
        <ele>244.79</ele>
        <time>2017-03-19T13:21:08Z</time>
      </trkpt>
      <trkpt lat="50.25215" lon="4.8273">
        <ele>244.79</ele>
        <time>2017-03-19T13:21:21Z</time>
      </trkpt>
      <trkpt lat="50.25228" lon="4.82732">
        <ele>244.31</ele>
        <time>2017-03-19T13:21:33Z</time>
      </trkpt>
      <trkpt lat="50.25242" lon="4.82732">
        <ele>244.31</ele>
        <time>2017-03-19T13:21:46Z</time>
      </trkpt>
      <trkpt lat="50.25246" lon="4.82733">
        <ele>244.31</ele>
        <time>2017-03-19T13:21:50Z</time>
      </trkpt>
      <trkpt lat="50.25248" lon="4.82732">
        <ele>244.31</ele>
        <time>2017-03-19T13:21:52Z</time>
      </trkpt>
      <trkpt lat="50.25263" lon="4.8273">
        <ele>242.39</ele>
        <time>2017-03-19T13:22:06Z</time>
      </trkpt>
      <trkpt lat="50.25277" lon="4.82725">
        <ele>241.91</ele>
        <time>2017-03-19T13:22:19Z</time>
      </trkpt>
      <trkpt lat="50.25287" lon="4.82719">
        <ele>242.87</ele>
        <time>2017-03-19T13:22:30Z</time>
      </trkpt>
      <trkpt lat="50.25293" lon="4.82714">
        <ele>243.83</ele>
        <time>2017-03-19T13:22:37Z</time>
      </trkpt>
      <trkpt lat="50.25298" lon="4.8271">
        <ele>243.35</ele>
        <time>2017-03-19T13:22:43Z</time>
      </trkpt>
      <trkpt lat="50.25299" lon="4.82708">
        <ele>243.35</ele>
        <time>2017-03-19T13:22:45Z</time>
      </trkpt>
      <trkpt lat="50.25307" lon="4.82701">
        <ele>243.35</ele>
        <time>2017-03-19T13:22:54Z</time>
      </trkpt>
      <trkpt lat="50.25324" lon="4.82687">
        <ele>243.35</ele>
        <time>2017-03-19T13:23:11Z</time>
      </trkpt>
      <trkpt lat="50.25327" lon="4.82685">
        <ele>243.35</ele>
        <time>2017-03-19T13:23:14Z</time>
      </trkpt>
      <trkpt lat="50.25329" lon="4.82682">
        <ele>243.35</ele>
        <time>2017-03-19T13:23:17Z</time>
      </trkpt>
      <trkpt lat="50.25331" lon="4.82681">
        <ele>243.35</ele>
        <time>2017-03-19T13:23:19Z</time>
      </trkpt>
      <trkpt lat="50.25335" lon="4.82678">
        <ele>243.35</ele>
        <time>2017-03-19T13:23:23Z</time>
      </trkpt>
      <trkpt lat="50.25339" lon="4.82677">
        <ele>241.91</ele>
        <time>2017-03-19T13:23:27Z</time>
      </trkpt>
      <trkpt lat="50.25347" lon="4.82674">
        <ele>241.91</ele>
        <time>2017-03-19T13:23:40Z</time>
      </trkpt>
      <trkpt lat="50.25348" lon="4.82672">
        <ele>241.91</ele>
        <time>2017-03-19T13:23:55Z</time>
      </trkpt>
      <trkpt lat="50.25344" lon="4.82671">
        <ele>241.43</ele>
        <time>2017-03-19T13:24:15Z</time>
      </trkpt>
      <trkpt lat="50.25345" lon="4.82676">
        <ele>241.43</ele>
        <time>2017-03-19T13:24:37Z</time>
      </trkpt>
      <trkpt lat="50.25347" lon="4.82676">
        <ele>241.43</ele>
        <time>2017-03-19T13:24:58Z</time>
      </trkpt>
      <trkpt lat="50.25348" lon="4.82675">
        <ele>241.43</ele>
        <time>2017-03-19T13:25:18Z</time>
      </trkpt>
      <trkpt lat="50.25349" lon="4.82676">
        <ele>242.39</ele>
        <time>2017-03-19T13:25:29Z</time>
      </trkpt>
      <trkpt lat="50.25347" lon="4.82677">
        <ele>242.39</ele>
        <time>2017-03-19T13:25:51Z</time>
      </trkpt>
      <trkpt lat="50.25345" lon="4.82678">
        <ele>242.39</ele>
        <time>2017-03-19T13:26:07Z</time>
      </trkpt>
      <trkpt lat="50.25348" lon="4.82679">
        <ele>242.39</ele>
        <time>2017-03-19T13:26:10Z</time>
      </trkpt>
      <trkpt lat="50.2535" lon="4.82677">
        <ele>242.39</ele>
        <time>2017-03-19T13:26:12Z</time>
      </trkpt>
      <trkpt lat="50.25358" lon="4.82656">
        <ele>242.39</ele>
        <time>2017-03-19T13:26:26Z</time>
      </trkpt>
      <trkpt lat="50.25366" lon="4.82633">
        <ele>241.91</ele>
        <time>2017-03-19T13:26:41Z</time>
      </trkpt>
      <trkpt lat="50.25373" lon="4.8261">
        <ele>241.91</ele>
        <time>2017-03-19T13:26:56Z</time>
      </trkpt>
      <trkpt lat="50.25384" lon="4.82589">
        <ele>241.91</ele>
        <time>2017-03-19T13:27:11Z</time>
      </trkpt>
      <trkpt lat="50.25393" lon="4.82569">
        <ele>241.91</ele>
        <time>2017-03-19T13:27:24Z</time>
      </trkpt>
      <trkpt lat="50.25398" lon="4.82556">
        <ele>241.91</ele>
        <time>2017-03-19T13:27:32Z</time>
      </trkpt>
      <trkpt lat="50.25404" lon="4.82544">
        <ele>240.95</ele>
        <time>2017-03-19T13:27:40Z</time>
      </trkpt>
      <trkpt lat="50.25412" lon="4.82519">
        <ele>240.47</ele>
        <time>2017-03-19T13:27:56Z</time>
      </trkpt>
      <trkpt lat="50.2542" lon="4.82498">
        <ele>239.51</ele>
        <time>2017-03-19T13:28:10Z</time>
      </trkpt>
      <trkpt lat="50.25421" lon="4.82495">
        <ele>239.51</ele>
        <time>2017-03-19T13:28:12Z</time>
      </trkpt>
      <trkpt lat="50.25423" lon="4.82491">
        <ele>238.54</ele>
        <time>2017-03-19T13:28:15Z</time>
      </trkpt>
      <trkpt lat="50.25429" lon="4.8248">
        <ele>237.58</ele>
        <time>2017-03-19T13:28:24Z</time>
      </trkpt>
      <trkpt lat="50.25435" lon="4.82476">
        <ele>237.1</ele>
        <time>2017-03-19T13:28:30Z</time>
      </trkpt>
      <trkpt lat="50.25447" lon="4.82469">
        <ele>235.66</ele>
        <time>2017-03-19T13:28:44Z</time>
      </trkpt>
      <trkpt lat="50.25466" lon="4.82467">
        <ele>235.66</ele>
        <time>2017-03-19T13:29:01Z</time>
      </trkpt>
      <trkpt lat="50.2548" lon="4.82468">
        <ele>235.66</ele>
        <time>2017-03-19T13:29:13Z</time>
      </trkpt>
      <trkpt lat="50.255" lon="4.82471">
        <ele>235.66</ele>
        <time>2017-03-19T13:29:29Z</time>
      </trkpt>
      <trkpt lat="50.25515" lon="4.82469">
        <ele>236.62</ele>
        <time>2017-03-19T13:29:44Z</time>
      </trkpt>
      <trkpt lat="50.25532" lon="4.82469">
        <ele>236.62</ele>
        <time>2017-03-19T13:30:00Z</time>
      </trkpt>
      <trkpt lat="50.25546" lon="4.82468">
        <ele>237.1</ele>
        <time>2017-03-19T13:30:13Z</time>
      </trkpt>
      <trkpt lat="50.25562" lon="4.82467">
        <ele>237.1</ele>
        <time>2017-03-19T13:30:27Z</time>
      </trkpt>
      <trkpt lat="50.2558" lon="4.82468">
        <ele>237.1</ele>
        <time>2017-03-19T13:30:42Z</time>
      </trkpt>
      <trkpt lat="50.25587" lon="4.82468">
        <ele>236.62</ele>
        <time>2017-03-19T13:30:48Z</time>
      </trkpt>
      <trkpt lat="50.25603" lon="4.82465">
        <ele>236.62</ele>
        <time>2017-03-19T13:31:02Z</time>
      </trkpt>
      <trkpt lat="50.25618" lon="4.82456">
        <ele>236.62</ele>
        <time>2017-03-19T13:31:16Z</time>
      </trkpt>
      <trkpt lat="50.25619" lon="4.82455">
        <ele>236.62</ele>
        <time>2017-03-19T13:31:17Z</time>
      </trkpt>
      <trkpt lat="50.25633" lon="4.82456">
        <ele>236.62</ele>
        <time>2017-03-19T13:31:32Z</time>
      </trkpt>
      <trkpt lat="50.25649" lon="4.8246">
        <ele>235.18</ele>
        <time>2017-03-19T13:31:45Z</time>
      </trkpt>
      <trkpt lat="50.25663" lon="4.82465">
        <ele>234.7</ele>
        <time>2017-03-19T13:31:58Z</time>
      </trkpt>
      <trkpt lat="50.25665" lon="4.82465">
        <ele>234.7</ele>
        <time>2017-03-19T13:32:00Z</time>
      </trkpt>
      <trkpt lat="50.25681" lon="4.82467">
        <ele>234.7</ele>
        <time>2017-03-19T13:32:14Z</time>
      </trkpt>
      <trkpt lat="50.25695" lon="4.82464">
        <ele>233.74</ele>
        <time>2017-03-19T13:32:27Z</time>
      </trkpt>
      <trkpt lat="50.25702" lon="4.8246">
        <ele>232.78</ele>
        <time>2017-03-19T13:32:35Z</time>
      </trkpt>
      <trkpt lat="50.25706" lon="4.82458">
        <ele>232.78</ele>
        <time>2017-03-19T13:32:38Z</time>
      </trkpt>
      <trkpt lat="50.25717" lon="4.82451">
        <ele>231.33</ele>
        <time>2017-03-19T13:32:54Z</time>
      </trkpt>
      <trkpt lat="50.25723" lon="4.82452">
        <ele>230.85</ele>
        <time>2017-03-19T13:33:08Z</time>
      </trkpt>
      <trkpt lat="50.25732" lon="4.82449">
        <ele>229.41</ele>
        <time>2017-03-19T13:33:24Z</time>
      </trkpt>
      <trkpt lat="50.25741" lon="4.82447">
        <ele>227.97</ele>
        <time>2017-03-19T13:33:41Z</time>
      </trkpt>
      <trkpt lat="50.25746" lon="4.82443">
        <ele>227.49</ele>
        <time>2017-03-19T13:33:58Z</time>
      </trkpt>
      <trkpt lat="50.25758" lon="4.82436">
        <ele>225.09</ele>
        <time>2017-03-19T13:34:12Z</time>
      </trkpt>
      <trkpt lat="50.2577" lon="4.82429">
        <ele>222.2</ele>
        <time>2017-03-19T13:34:26Z</time>
      </trkpt>
      <trkpt lat="50.25779" lon="4.82421">
        <ele>219.8</ele>
        <time>2017-03-19T13:34:40Z</time>
      </trkpt>
      <trkpt lat="50.2578" lon="4.82416">
        <ele>218.84</ele>
        <time>2017-03-19T13:34:43Z</time>
      </trkpt>
      <trkpt lat="50.25783" lon="4.82397">
        <ele>215.95</ele>
        <time>2017-03-19T13:35:00Z</time>
      </trkpt>
      <trkpt lat="50.25787" lon="4.82379">
        <ele>212.59</ele>
        <time>2017-03-19T13:35:14Z</time>
      </trkpt>
      <trkpt lat="50.25793" lon="4.82356">
        <ele>209.7</ele>
        <time>2017-03-19T13:35:30Z</time>
      </trkpt>
      <trkpt lat="50.25796" lon="4.82336">
        <ele>206.34</ele>
        <time>2017-03-19T13:35:45Z</time>
      </trkpt>
      <trkpt lat="50.25798" lon="4.82322">
        <ele>205.38</ele>
        <time>2017-03-19T13:35:53Z</time>
      </trkpt>
      <trkpt lat="50.258" lon="4.82303">
        <ele>202.49</ele>
        <time>2017-03-19T13:36:05Z</time>
      </trkpt>
      <trkpt lat="50.25801" lon="4.82283">
        <ele>201.05</ele>
        <time>2017-03-19T13:36:19Z</time>
      </trkpt>
      <trkpt lat="50.25804" lon="4.82262">
        <ele>198.65</ele>
        <time>2017-03-19T13:36:33Z</time>
      </trkpt>
      <trkpt lat="50.25807" lon="4.8224">
        <ele>196.73</ele>
        <time>2017-03-19T13:36:48Z</time>
      </trkpt>
      <trkpt lat="50.25816" lon="4.82236">
        <ele>195.28</ele>
        <time>2017-03-19T13:36:57Z</time>
      </trkpt>
      <trkpt lat="50.25829" lon="4.82225">
        <ele>193.36</ele>
        <time>2017-03-19T13:37:11Z</time>
      </trkpt>
      <trkpt lat="50.25835" lon="4.82221">
        <ele>191.92</ele>
        <time>2017-03-19T13:37:19Z</time>
      </trkpt>
      <trkpt lat="50.25846" lon="4.8224">
        <ele>193.84</ele>
        <time>2017-03-19T13:37:35Z</time>
      </trkpt>
      <trkpt lat="50.25855" lon="4.82261">
        <ele>194.8</ele>
        <time>2017-03-19T13:37:51Z</time>
      </trkpt>
      <trkpt lat="50.25858" lon="4.82267">
        <ele>196.73</ele>
        <time>2017-03-19T13:37:55Z</time>
      </trkpt>
      <trkpt lat="50.25859" lon="4.82268">
        <ele>195.28</ele>
        <time>2017-03-19T13:37:56Z</time>
      </trkpt>
      <trkpt lat="50.25866" lon="4.82288">
        <ele>195.28</ele>
        <time>2017-03-19T13:38:11Z</time>
      </trkpt>
      <trkpt lat="50.25869" lon="4.82315">
        <ele>195.28</ele>
        <time>2017-03-19T13:38:26Z</time>
      </trkpt>
      <trkpt lat="50.25871" lon="4.82336">
        <ele>194.32</ele>
        <time>2017-03-19T13:38:39Z</time>
      </trkpt>
      <trkpt lat="50.25873" lon="4.82337">
        <ele>193.84</ele>
        <time>2017-03-19T13:38:42Z</time>
      </trkpt>
      <trkpt lat="50.25888" lon="4.82338">
        <ele>193.36</ele>
        <time>2017-03-19T13:38:56Z</time>
      </trkpt>
      <trkpt lat="50.25901" lon="4.82337">
        <ele>192.4</ele>
        <time>2017-03-19T13:39:11Z</time>
      </trkpt>
      <trkpt lat="50.25911" lon="4.82337">
        <ele>191.44</ele>
        <time>2017-03-19T13:39:20Z</time>
      </trkpt>
      <trkpt lat="50.25923" lon="4.82334">
        <ele>190.48</ele>
        <time>2017-03-19T13:39:31Z</time>
      </trkpt>
      <trkpt lat="50.25937" lon="4.82332">
        <ele>189.52</ele>
        <time>2017-03-19T13:39:44Z</time>
      </trkpt>
      <trkpt lat="50.2595" lon="4.8233">
        <ele>189.52</ele>
        <time>2017-03-19T13:39:59Z</time>
      </trkpt>
      <trkpt lat="50.25954" lon="4.82329">
        <ele>189.04</ele>
        <time>2017-03-19T13:40:05Z</time>
      </trkpt>
      <trkpt lat="50.25965" lon="4.82344">
        <ele>189.04</ele>
        <time>2017-03-19T13:40:20Z</time>
      </trkpt>
      <trkpt lat="50.25967" lon="4.8235">
        <ele>189.04</ele>
        <time>2017-03-19T13:40:34Z</time>
      </trkpt>
      <trkpt lat="50.25967" lon="4.8235">
        <ele>190.48</ele>
        <time>2017-03-19T13:41:02Z</time>
      </trkpt>
      <trkpt lat="50.25967" lon="4.82351">
        <ele>190.48</ele>
        <time>2017-03-19T13:41:03Z</time>
      </trkpt>
      <trkpt lat="50.25976" lon="4.82358">
        <ele>190.48</ele>
        <time>2017-03-19T13:41:12Z</time>
      </trkpt>
      <trkpt lat="50.25991" lon="4.82368">
        <ele>191.44</ele>
        <time>2017-03-19T13:41:28Z</time>
      </trkpt>
      <trkpt lat="50.26006" lon="4.82374">
        <ele>191.44</ele>
        <time>2017-03-19T13:41:42Z</time>
      </trkpt>
      <trkpt lat="50.26021" lon="4.82383">
        <ele>193.36</ele>
        <time>2017-03-19T13:42:00Z</time>
      </trkpt>
      <trkpt lat="50.26023" lon="4.82382">
        <ele>193.84</ele>
        <time>2017-03-19T13:42:16Z</time>
      </trkpt>
      <trkpt lat="50.26022" lon="4.82385">
        <ele>193.84</ele>
        <time>2017-03-19T13:42:34Z</time>
      </trkpt>
      <trkpt lat="50.26022" lon="4.82381">
        <ele>193.84</ele>
        <time>2017-03-19T13:42:58Z</time>
      </trkpt>
      <trkpt lat="50.26022" lon="4.82381">
        <ele>192.4</ele>
        <time>2017-03-19T13:43:02Z</time>
      </trkpt>
      <trkpt lat="50.26021" lon="4.8238">
        <ele>192.4</ele>
        <time>2017-03-19T13:43:26Z</time>
      </trkpt>
      <trkpt lat="50.26023" lon="4.82379">
        <ele>193.84</ele>
        <time>2017-03-19T13:43:47Z</time>
      </trkpt>
      <trkpt lat="50.26024" lon="4.82379">
        <ele>193.36</ele>
        <time>2017-03-19T13:44:11Z</time>
      </trkpt>
      <trkpt lat="50.26023" lon="4.82378">
        <ele>193.36</ele>
        <time>2017-03-19T13:44:37Z</time>
      </trkpt>
      <trkpt lat="50.2602" lon="4.82379">
        <ele>193.36</ele>
        <time>2017-03-19T13:44:57Z</time>
      </trkpt>
      <trkpt lat="50.2602" lon="4.82379">
        <ele>191.92</ele>
        <time>2017-03-19T13:45:13Z</time>
      </trkpt>
      <trkpt lat="50.26019" lon="4.82379">
        <ele>193.36</ele>
        <time>2017-03-19T13:45:38Z</time>
      </trkpt>
      <trkpt lat="50.26016" lon="4.82381">
        <ele>193.36</ele>
        <time>2017-03-19T13:46:11Z</time>
      </trkpt>
      <trkpt lat="50.26018" lon="4.82383">
        <ele>193.84</ele>
        <time>2017-03-19T13:46:37Z</time>
      </trkpt>
      <trkpt lat="50.26019" lon="4.82383">
        <ele>193.36</ele>
        <time>2017-03-19T13:47:07Z</time>
      </trkpt>
      <trkpt lat="50.26023" lon="4.82385">
        <ele>193.36</ele>
        <time>2017-03-19T13:47:35Z</time>
      </trkpt>
      <trkpt lat="50.26025" lon="4.82383">
        <ele>193.36</ele>
        <time>2017-03-19T13:47:56Z</time>
      </trkpt>
      <trkpt lat="50.26024" lon="4.82379">
        <ele>193.36</ele>
        <time>2017-03-19T13:48:21Z</time>
      </trkpt>
      <trkpt lat="50.26022" lon="4.8238">
        <ele>193.36</ele>
        <time>2017-03-19T13:48:46Z</time>
      </trkpt>
      <trkpt lat="50.26021" lon="4.82382">
        <ele>193.36</ele>
        <time>2017-03-19T13:49:14Z</time>
      </trkpt>
      <trkpt lat="50.26024" lon="4.82379">
        <ele>191.44</ele>
        <time>2017-03-19T13:49:36Z</time>
      </trkpt>
      <trkpt lat="50.26023" lon="4.8238">
        <ele>192.88</ele>
        <time>2017-03-19T13:49:39Z</time>
      </trkpt>
      <trkpt lat="50.26023" lon="4.82381">
        <ele>192.88</ele>
        <time>2017-03-19T13:50:06Z</time>
      </trkpt>
      <trkpt lat="50.26022" lon="4.82384">
        <ele>192.88</ele>
        <time>2017-03-19T13:50:37Z</time>
      </trkpt>
      <trkpt lat="50.26023" lon="4.82385">
        <ele>193.36</ele>
        <time>2017-03-19T13:51:04Z</time>
      </trkpt>
      <trkpt lat="50.26023" lon="4.82382">
        <ele>191.92</ele>
        <time>2017-03-19T13:51:25Z</time>
      </trkpt>
      <trkpt lat="50.26023" lon="4.82382">
        <ele>192.88</ele>
        <time>2017-03-19T13:51:31Z</time>
      </trkpt>
      <trkpt lat="50.26021" lon="4.82381">
        <ele>191.44</ele>
        <time>2017-03-19T13:51:44Z</time>
      </trkpt>
      <trkpt lat="50.26021" lon="4.82383">
        <ele>192.88</ele>
        <time>2017-03-19T13:52:13Z</time>
      </trkpt>
      <trkpt lat="50.26021" lon="4.82381">
        <ele>191.44</ele>
        <time>2017-03-19T13:52:38Z</time>
      </trkpt>
      <trkpt lat="50.26019" lon="4.82378">
        <ele>190.96</ele>
        <time>2017-03-19T13:53:00Z</time>
      </trkpt>
      <trkpt lat="50.26023" lon="4.82381">
        <ele>191.92</ele>
        <time>2017-03-19T13:53:25Z</time>
      </trkpt>
      <trkpt lat="50.26025" lon="4.82386">
        <ele>192.88</ele>
        <time>2017-03-19T13:53:56Z</time>
      </trkpt>
      <trkpt lat="50.26023" lon="4.82385">
        <ele>191.92</ele>
        <time>2017-03-19T13:54:27Z</time>
      </trkpt>
      <trkpt lat="50.26024" lon="4.82382">
        <ele>191.92</ele>
        <time>2017-03-19T13:54:51Z</time>
      </trkpt>
      <trkpt lat="50.26023" lon="4.82381">
        <ele>191.92</ele>
        <time>2017-03-19T13:55:28Z</time>
      </trkpt>
      <trkpt lat="50.26023" lon="4.8238">
        <ele>192.4</ele>
        <time>2017-03-19T13:55:55Z</time>
      </trkpt>
      <trkpt lat="50.26023" lon="4.82381">
        <ele>192.88</ele>
        <time>2017-03-19T13:56:19Z</time>
      </trkpt>
      <trkpt lat="50.26021" lon="4.82382">
        <ele>191.92</ele>
        <time>2017-03-19T13:56:42Z</time>
      </trkpt>
      <trkpt lat="50.26022" lon="4.82383">
        <ele>191.92</ele>
        <time>2017-03-19T13:56:58Z</time>
      </trkpt>
      <trkpt lat="50.26022" lon="4.82384">
        <ele>191.44</ele>
        <time>2017-03-19T13:57:20Z</time>
      </trkpt>
      <trkpt lat="50.26024" lon="4.82382">
        <ele>190.96</ele>
        <time>2017-03-19T13:57:39Z</time>
      </trkpt>
      <trkpt lat="50.26024" lon="4.8238">
        <ele>190.96</ele>
        <time>2017-03-19T13:57:58Z</time>
      </trkpt>
      <trkpt lat="50.26025" lon="4.8238">
        <ele>190.96</ele>
        <time>2017-03-19T13:58:22Z</time>
      </trkpt>
      <trkpt lat="50.2603" lon="4.82375">
        <ele>191.92</ele>
        <time>2017-03-19T13:58:42Z</time>
      </trkpt>
      <trkpt lat="50.26027" lon="4.82377">
        <ele>190.48</ele>
        <time>2017-03-19T13:58:50Z</time>
      </trkpt>
      <trkpt lat="50.26024" lon="4.8238">
        <ele>190.48</ele>
        <time>2017-03-19T13:59:05Z</time>
      </trkpt>
      <trkpt lat="50.26024" lon="4.82379">
        <ele>191.92</ele>
        <time>2017-03-19T13:59:07Z</time>
      </trkpt>
      <trkpt lat="50.26024" lon="4.82381">
        <ele>190.48</ele>
        <time>2017-03-19T13:59:15Z</time>
      </trkpt>
      <trkpt lat="50.26024" lon="4.82381">
        <ele>191.92</ele>
        <time>2017-03-19T13:59:19Z</time>
      </trkpt>
      <trkpt lat="50.26025" lon="4.82378">
        <ele>190</ele>
        <time>2017-03-19T13:59:27Z</time>
      </trkpt>
      <trkpt lat="50.26027" lon="4.82375">
        <ele>189.52</ele>
        <time>2017-03-19T13:59:31Z</time>
      </trkpt>
      <trkpt lat="50.2603" lon="4.82372">
        <ele>191.44</ele>
        <time>2017-03-19T13:59:34Z</time>
      </trkpt>
      <trkpt lat="50.26042" lon="4.8236">
        <ele>192.88</ele>
        <time>2017-03-19T13:59:49Z</time>
      </trkpt>
      <trkpt lat="50.26042" lon="4.82359">
        <ele>193.36</ele>
        <time>2017-03-19T13:59:50Z</time>
      </trkpt>
      <trkpt lat="50.26049" lon="4.82335">
        <ele>196.25</ele>
        <time>2017-03-19T14:00:08Z</time>
      </trkpt>
      <trkpt lat="50.26056" lon="4.82317">
        <ele>196.73</ele>
        <time>2017-03-19T14:00:24Z</time>
      </trkpt>
      <trkpt lat="50.26056" lon="4.82311">
        <ele>196.73</ele>
        <time>2017-03-19T14:00:29Z</time>
      </trkpt>
      <trkpt lat="50.26052" lon="4.82285">
        <ele>196.73</ele>
        <time>2017-03-19T14:00:45Z</time>
      </trkpt>
      <trkpt lat="50.26051" lon="4.82274">
        <ele>197.21</ele>
        <time>2017-03-19T14:00:51Z</time>
      </trkpt>
      <trkpt lat="50.26052" lon="4.82271">
        <ele>197.21</ele>
        <time>2017-03-19T14:00:53Z</time>
      </trkpt>
      <trkpt lat="50.26051" lon="4.82268">
        <ele>196.25</ele>
        <time>2017-03-19T14:00:55Z</time>
      </trkpt>
      <trkpt lat="50.26048" lon="4.82241">
        <ele>197.69</ele>
        <time>2017-03-19T14:01:10Z</time>
      </trkpt>
      <trkpt lat="50.26048" lon="4.82227">
        <ele>197.69</ele>
        <time>2017-03-19T14:01:18Z</time>
      </trkpt>
      <trkpt lat="50.26046" lon="4.82214">
        <ele>197.21</ele>
        <time>2017-03-19T14:01:26Z</time>
      </trkpt>
      <trkpt lat="50.26045" lon="4.82205">
        <ele>198.17</ele>
        <time>2017-03-19T14:01:32Z</time>
      </trkpt>
      <trkpt lat="50.26044" lon="4.82198">
        <ele>198.17</ele>
        <time>2017-03-19T14:01:38Z</time>
      </trkpt>
      <trkpt lat="50.26034" lon="4.8217">
        <ele>198.65</ele>
        <time>2017-03-19T14:01:55Z</time>
      </trkpt>
      <trkpt lat="50.26031" lon="4.82147">
        <ele>198.65</ele>
        <time>2017-03-19T14:02:07Z</time>
      </trkpt>
      <trkpt lat="50.26031" lon="4.82139">
        <ele>197.21</ele>
        <time>2017-03-19T14:02:11Z</time>
      </trkpt>
      <trkpt lat="50.26028" lon="4.82125">
        <ele>197.21</ele>
        <time>2017-03-19T14:02:19Z</time>
      </trkpt>
      <trkpt lat="50.26023" lon="4.82101">
        <ele>195.28</ele>
        <time>2017-03-19T14:02:35Z</time>
      </trkpt>
      <trkpt lat="50.26025" lon="4.82095">
        <ele>194.8</ele>
        <time>2017-03-19T14:02:56Z</time>
      </trkpt>
      <trkpt lat="50.26024" lon="4.82082">
        <ele>193.84</ele>
        <time>2017-03-19T14:03:11Z</time>
      </trkpt>
      <trkpt lat="50.26022" lon="4.82072">
        <ele>192.88</ele>
        <time>2017-03-19T14:03:17Z</time>
      </trkpt>
      <trkpt lat="50.26018" lon="4.82057">
        <ele>191.92</ele>
        <time>2017-03-19T14:03:32Z</time>
      </trkpt>
      <trkpt lat="50.26017" lon="4.8204">
        <ele>190.96</ele>
        <time>2017-03-19T14:03:46Z</time>
      </trkpt>
      <trkpt lat="50.26016" lon="4.82017">
        <ele>187.59</ele>
        <time>2017-03-19T14:04:02Z</time>
      </trkpt>
      <trkpt lat="50.26015" lon="4.81993">
        <ele>185.67</ele>
        <time>2017-03-19T14:04:16Z</time>
      </trkpt>
      <trkpt lat="50.26011" lon="4.8196">
        <ele>183.27</ele>
        <time>2017-03-19T14:04:32Z</time>
      </trkpt>
      <trkpt lat="50.26011" lon="4.81932">
        <ele>182.31</ele>
        <time>2017-03-19T14:04:49Z</time>
      </trkpt>
      <trkpt lat="50.26012" lon="4.81927">
        <ele>183.27</ele>
        <time>2017-03-19T14:04:52Z</time>
      </trkpt>
      <trkpt lat="50.26013" lon="4.81918">
        <ele>182.79</ele>
        <time>2017-03-19T14:04:59Z</time>
      </trkpt>
      <trkpt lat="50.26014" lon="4.81904">
        <ele>178.46</ele>
        <time>2017-03-19T14:05:08Z</time>
      </trkpt>
      <trkpt lat="50.26014" lon="4.81902">
        <ele>178.46</ele>
        <time>2017-03-19T14:05:09Z</time>
      </trkpt>
      <trkpt lat="50.26021" lon="4.81881">
        <ele>180.38</ele>
        <time>2017-03-19T14:05:25Z</time>
      </trkpt>
      <trkpt lat="50.26025" lon="4.81873">
        <ele>178.94</ele>
        <time>2017-03-19T14:05:35Z</time>
      </trkpt>
      <trkpt lat="50.26035" lon="4.81857">
        <ele>178.94</ele>
        <time>2017-03-19T14:05:51Z</time>
      </trkpt>
      <trkpt lat="50.26046" lon="4.81838">
        <ele>177.98</ele>
        <time>2017-03-19T14:06:07Z</time>
      </trkpt>
      <trkpt lat="50.2606" lon="4.81821">
        <ele>177.98</ele>
        <time>2017-03-19T14:06:23Z</time>
      </trkpt>
      <trkpt lat="50.26078" lon="4.81811">
        <ele>176.54</ele>
        <time>2017-03-19T14:06:42Z</time>
      </trkpt>
      <trkpt lat="50.26101" lon="4.81812">
        <ele>174.14</ele>
        <time>2017-03-19T14:06:59Z</time>
      </trkpt>
      <trkpt lat="50.26119" lon="4.81811">
        <ele>172.69</ele>
        <time>2017-03-19T14:07:17Z</time>
      </trkpt>
      <trkpt lat="50.26138" lon="4.8181">
        <ele>171.25</ele>
        <time>2017-03-19T14:07:34Z</time>
      </trkpt>
      <trkpt lat="50.26154" lon="4.81802">
        <ele>169.33</ele>
        <time>2017-03-19T14:07:50Z</time>
      </trkpt>
      <trkpt lat="50.2617" lon="4.81802">
        <ele>168.85</ele>
        <time>2017-03-19T14:08:07Z</time>
      </trkpt>
      <trkpt lat="50.26192" lon="4.81797">
        <ele>167.89</ele>
        <time>2017-03-19T14:08:26Z</time>
      </trkpt>
      <trkpt lat="50.2621" lon="4.81799">
        <ele>167.89</ele>
        <time>2017-03-19T14:08:41Z</time>
      </trkpt>
      <trkpt lat="50.26228" lon="4.81797">
        <ele>166.45</ele>
        <time>2017-03-19T14:09:00Z</time>
      </trkpt>
      <trkpt lat="50.26243" lon="4.81795">
        <ele>165.48</ele>
        <time>2017-03-19T14:09:12Z</time>
      </trkpt>
      <trkpt lat="50.26265" lon="4.81792">
        <ele>164.04</ele>
        <time>2017-03-19T14:09:30Z</time>
      </trkpt>
      <trkpt lat="50.26284" lon="4.8179">
        <ele>163.56</ele>
        <time>2017-03-19T14:09:48Z</time>
      </trkpt>
      <trkpt lat="50.26305" lon="4.81788">
        <ele>163.08</ele>
        <time>2017-03-19T14:10:06Z</time>
      </trkpt>
      <trkpt lat="50.26322" lon="4.81789">
        <ele>162.12</ele>
        <time>2017-03-19T14:10:22Z</time>
      </trkpt>
      <trkpt lat="50.26335" lon="4.81794">
        <ele>162.12</ele>
        <time>2017-03-19T14:10:35Z</time>
      </trkpt>
      <trkpt lat="50.26341" lon="4.81796">
        <ele>163.08</ele>
        <time>2017-03-19T14:10:39Z</time>
      </trkpt>
      <trkpt lat="50.2635" lon="4.81792">
        <ele>163.08</ele>
        <time>2017-03-19T14:10:48Z</time>
      </trkpt>
      <trkpt lat="50.26372" lon="4.81786">
        <ele>163.08</ele>
        <time>2017-03-19T14:11:05Z</time>
      </trkpt>
      <trkpt lat="50.26391" lon="4.81785">
        <ele>163.08</ele>
        <time>2017-03-19T14:11:23Z</time>
      </trkpt>
      <trkpt lat="50.26397" lon="4.81783">
        <ele>164.04</ele>
        <time>2017-03-19T14:11:29Z</time>
      </trkpt>
      <trkpt lat="50.26416" lon="4.8178">
        <ele>164.04</ele>
        <time>2017-03-19T14:11:47Z</time>
      </trkpt>
      <trkpt lat="50.26427" lon="4.8178">
        <ele>165</ele>
        <time>2017-03-19T14:11:58Z</time>
      </trkpt>
      <trkpt lat="50.26432" lon="4.81757">
        <ele>163.56</ele>
        <time>2017-03-19T14:12:13Z</time>
      </trkpt>
      <trkpt lat="50.26429" lon="4.81731">
        <ele>163.56</ele>
        <time>2017-03-19T14:12:29Z</time>
      </trkpt>
      <trkpt lat="50.26423" lon="4.81705">
        <ele>163.08</ele>
        <time>2017-03-19T14:12:44Z</time>
      </trkpt>
      <trkpt lat="50.26416" lon="4.81687">
        <ele>163.08</ele>
        <time>2017-03-19T14:12:59Z</time>
      </trkpt>
      <trkpt lat="50.26415" lon="4.8169">
        <ele>163.08</ele>
        <time>2017-03-19T14:13:14Z</time>
      </trkpt>
      <trkpt lat="50.2642" lon="4.81688">
        <ele>163.08</ele>
        <time>2017-03-19T14:13:33Z</time>
      </trkpt>
      <trkpt lat="50.26427" lon="4.81679">
        <ele>163.08</ele>
        <time>2017-03-19T14:13:51Z</time>
      </trkpt>
      <trkpt lat="50.26425" lon="4.81675">
        <ele>163.08</ele>
        <time>2017-03-19T14:14:09Z</time>
      </trkpt>
      <trkpt lat="50.26422" lon="4.81674">
        <ele>163.08</ele>
        <time>2017-03-19T14:14:31Z</time>
      </trkpt>
      <trkpt lat="50.26419" lon="4.81677">
        <ele>163.08</ele>
        <time>2017-03-19T14:14:48Z</time>
      </trkpt>
      <trkpt lat="50.26414" lon="4.81675">
        <ele>163.08</ele>
        <time>2017-03-19T14:14:58Z</time>
      </trkpt>
      <trkpt lat="50.26406" lon="4.81678">
        <ele>164.04</ele>
        <time>2017-03-19T14:15:06Z</time>
      </trkpt>
      <trkpt lat="50.26386" lon="4.81687">
        <ele>164.52</ele>
        <time>2017-03-19T14:15:24Z</time>
      </trkpt>
      <trkpt lat="50.26376" lon="4.81689">
        <ele>165.48</ele>
        <time>2017-03-19T14:15:39Z</time>
      </trkpt>
      <trkpt lat="50.26365" lon="4.81695">
        <ele>165.48</ele>
        <time>2017-03-19T14:15:51Z</time>
      </trkpt>
      <trkpt lat="50.26347" lon="4.81702">
        <ele>165.48</ele>
        <time>2017-03-19T14:16:08Z</time>
      </trkpt>
      <trkpt lat="50.26332" lon="4.81705">
        <ele>165.48</ele>
        <time>2017-03-19T14:16:23Z</time>
      </trkpt>
      <trkpt lat="50.26312" lon="4.81705">
        <ele>165.96</ele>
        <time>2017-03-19T14:16:41Z</time>
      </trkpt>
      <trkpt lat="50.26297" lon="4.81706">
        <ele>165.96</ele>
        <time>2017-03-19T14:16:54Z</time>
      </trkpt>
      <trkpt lat="50.26278" lon="4.81709">
        <ele>165.48</ele>
        <time>2017-03-19T14:17:13Z</time>
      </trkpt>
      <trkpt lat="50.26265" lon="4.81711">
        <ele>165.48</ele>
        <time>2017-03-19T14:17:27Z</time>
      </trkpt>
      <trkpt lat="50.26245" lon="4.81715">
        <ele>164.52</ele>
        <time>2017-03-19T14:17:46Z</time>
      </trkpt>
      <trkpt lat="50.26235" lon="4.81719">
        <ele>164.52</ele>
        <time>2017-03-19T14:17:53Z</time>
      </trkpt>
      <trkpt lat="50.26224" lon="4.8172">
        <ele>164.52</ele>
        <time>2017-03-19T14:18:02Z</time>
      </trkpt>
      <trkpt lat="50.26207" lon="4.81724">
        <ele>164.52</ele>
        <time>2017-03-19T14:18:16Z</time>
      </trkpt>
      <trkpt lat="50.26205" lon="4.81724">
        <ele>164.52</ele>
        <time>2017-03-19T14:18:18Z</time>
      </trkpt>
      <trkpt lat="50.26185" lon="4.81729">
        <ele>164.04</ele>
        <time>2017-03-19T14:18:34Z</time>
      </trkpt>
      <trkpt lat="50.26166" lon="4.8173">
        <ele>163.56</ele>
        <time>2017-03-19T14:18:50Z</time>
      </trkpt>
      <trkpt lat="50.26151" lon="4.81728">
        <ele>162.6</ele>
        <time>2017-03-19T14:19:04Z</time>
      </trkpt>
      <trkpt lat="50.26139" lon="4.81725">
        <ele>162.6</ele>
        <time>2017-03-19T14:19:17Z</time>
      </trkpt>
      <trkpt lat="50.26124" lon="4.81723">
        <ele>162.6</ele>
        <time>2017-03-19T14:19:32Z</time>
      </trkpt>
      <trkpt lat="50.2611" lon="4.81721">
        <ele>162.12</ele>
        <time>2017-03-19T14:19:45Z</time>
      </trkpt>
      <trkpt lat="50.26096" lon="4.81718">
        <ele>162.12</ele>
        <time>2017-03-19T14:19:59Z</time>
      </trkpt>
      <trkpt lat="50.26087" lon="4.81728">
        <ele>162.12</ele>
        <time>2017-03-19T14:20:11Z</time>
      </trkpt>
      <trkpt lat="50.2607" lon="4.81716">
        <ele>162.12</ele>
        <time>2017-03-19T14:20:27Z</time>
      </trkpt>
      <trkpt lat="50.26056" lon="4.81706">
        <ele>163.56</ele>
        <time>2017-03-19T14:20:39Z</time>
      </trkpt>
      <trkpt lat="50.2604" lon="4.81697">
        <ele>163.56</ele>
        <time>2017-03-19T14:20:53Z</time>
      </trkpt>
      <trkpt lat="50.26023" lon="4.81693">
        <ele>165</ele>
        <time>2017-03-19T14:21:08Z</time>
      </trkpt>
      <trkpt lat="50.26006" lon="4.81693">
        <ele>165.48</ele>
        <time>2017-03-19T14:21:21Z</time>
      </trkpt>
      <trkpt lat="50.25998" lon="4.81691">
        <ele>165.96</ele>
        <time>2017-03-19T14:21:30Z</time>
      </trkpt>
      <trkpt lat="50.25981" lon="4.81693">
        <ele>165.96</ele>
        <time>2017-03-19T14:21:45Z</time>
      </trkpt>
      <trkpt lat="50.25969" lon="4.81695">
        <ele>165</ele>
        <time>2017-03-19T14:21:57Z</time>
      </trkpt>
      <trkpt lat="50.25965" lon="4.81695">
        <ele>164.52</ele>
        <time>2017-03-19T14:22:00Z</time>
      </trkpt>
      <trkpt lat="50.25959" lon="4.81691">
        <ele>165</ele>
        <time>2017-03-19T14:22:08Z</time>
      </trkpt>
      <trkpt lat="50.25957" lon="4.8168">
        <ele>165</ele>
        <time>2017-03-19T14:22:16Z</time>
      </trkpt>
      <trkpt lat="50.25954" lon="4.81664">
        <ele>166.45</ele>
        <time>2017-03-19T14:22:27Z</time>
      </trkpt>
      <trkpt lat="50.25943" lon="4.81649">
        <ele>166.45</ele>
        <time>2017-03-19T14:22:43Z</time>
      </trkpt>
      <trkpt lat="50.25943" lon="4.81645">
        <ele>166.45</ele>
        <time>2017-03-19T14:22:58Z</time>
      </trkpt>
      <trkpt lat="50.2594" lon="4.81644">
        <ele>166.45</ele>
        <time>2017-03-19T14:23:08Z</time>
      </trkpt>
      <trkpt lat="50.25925" lon="4.81632">
        <ele>166.93</ele>
        <time>2017-03-19T14:23:24Z</time>
      </trkpt>
      <trkpt lat="50.25921" lon="4.81627">
        <ele>167.41</ele>
        <time>2017-03-19T14:23:29Z</time>
      </trkpt>
      <trkpt lat="50.25911" lon="4.81615">
        <ele>168.37</ele>
        <time>2017-03-19T14:23:41Z</time>
      </trkpt>
      <trkpt lat="50.25899" lon="4.81601">
        <ele>166.93</ele>
        <time>2017-03-19T14:23:55Z</time>
      </trkpt>
      <trkpt lat="50.25894" lon="4.81595">
        <ele>168.85</ele>
        <time>2017-03-19T14:24:01Z</time>
      </trkpt>
      <trkpt lat="50.25881" lon="4.81579">
        <ele>170.77</ele>
        <time>2017-03-19T14:24:16Z</time>
      </trkpt>
      <trkpt lat="50.25883" lon="4.81553">
        <ele>174.14</ele>
        <time>2017-03-19T14:24:32Z</time>
      </trkpt>
      <trkpt lat="50.25885" lon="4.81533">
        <ele>173.17</ele>
        <time>2017-03-19T14:24:46Z</time>
      </trkpt>
      <trkpt lat="50.25886" lon="4.81529">
        <ele>174.62</ele>
        <time>2017-03-19T14:24:48Z</time>
      </trkpt>
      <trkpt lat="50.25889" lon="4.81513">
        <ele>177.02</ele>
        <time>2017-03-19T14:24:58Z</time>
      </trkpt>
      <trkpt lat="50.25894" lon="4.81488">
        <ele>177.98</ele>
        <time>2017-03-19T14:25:16Z</time>
      </trkpt>
      <trkpt lat="50.25897" lon="4.81468">
        <ele>179.9</ele>
        <time>2017-03-19T14:25:29Z</time>
      </trkpt>
      <trkpt lat="50.25898" lon="4.8144">
        <ele>181.35</ele>
        <time>2017-03-19T14:25:47Z</time>
      </trkpt>
      <trkpt lat="50.25901" lon="4.81417">
        <ele>184.23</ele>
        <time>2017-03-19T14:26:01Z</time>
      </trkpt>
      <trkpt lat="50.25903" lon="4.81393">
        <ele>184.71</ele>
        <time>2017-03-19T14:26:15Z</time>
      </trkpt>
      <trkpt lat="50.25903" lon="4.81388">
        <ele>180.38</ele>
        <time>2017-03-19T14:26:18Z</time>
      </trkpt>
      <trkpt lat="50.25903" lon="4.81386">
        <ele>180.38</ele>
        <time>2017-03-19T14:26:19Z</time>
      </trkpt>
      <trkpt lat="50.25904" lon="4.81384">
        <ele>183.75</ele>
        <time>2017-03-19T14:26:21Z</time>
      </trkpt>
      <trkpt lat="50.25905" lon="4.81372">
        <ele>187.11</ele>
        <time>2017-03-19T14:26:28Z</time>
      </trkpt>
      <trkpt lat="50.25906" lon="4.81366">
        <ele>187.11</ele>
        <time>2017-03-19T14:26:32Z</time>
      </trkpt>
      <trkpt lat="50.25907" lon="4.81362">
        <ele>187.11</ele>
        <time>2017-03-19T14:26:35Z</time>
      </trkpt>
      <trkpt lat="50.25908" lon="4.81358">
        <ele>187.11</ele>
        <time>2017-03-19T14:26:37Z</time>
      </trkpt>
      <trkpt lat="50.25912" lon="4.81329">
        <ele>189.04</ele>
        <time>2017-03-19T14:26:54Z</time>
      </trkpt>
      <trkpt lat="50.25917" lon="4.81301">
        <ele>192.4</ele>
        <time>2017-03-19T14:27:11Z</time>
      </trkpt>
      <trkpt lat="50.2592" lon="4.81289">
        <ele>192.4</ele>
        <time>2017-03-19T14:27:19Z</time>
      </trkpt>
      <trkpt lat="50.2592" lon="4.81283">
        <ele>193.36</ele>
        <time>2017-03-19T14:27:22Z</time>
      </trkpt>
      <trkpt lat="50.25925" lon="4.81262">
        <ele>195.77</ele>
        <time>2017-03-19T14:27:37Z</time>
      </trkpt>
      <trkpt lat="50.25933" lon="4.81237">
        <ele>198.17</ele>
        <time>2017-03-19T14:27:56Z</time>
      </trkpt>
      <trkpt lat="50.25944" lon="4.81214">
        <ele>201.05</ele>
        <time>2017-03-19T14:28:12Z</time>
      </trkpt>
      <trkpt lat="50.25955" lon="4.81194">
        <ele>203.46</ele>
        <time>2017-03-19T14:28:30Z</time>
      </trkpt>
      <trkpt lat="50.25963" lon="4.81166">
        <ele>205.38</ele>
        <time>2017-03-19T14:28:51Z</time>
      </trkpt>
      <trkpt lat="50.25968" lon="4.81135">
        <ele>207.78</ele>
        <time>2017-03-19T14:29:09Z</time>
      </trkpt>
      <trkpt lat="50.25972" lon="4.81117">
        <ele>208.74</ele>
        <time>2017-03-19T14:29:20Z</time>
      </trkpt>
      <trkpt lat="50.25983" lon="4.81089">
        <ele>208.74</ele>
        <time>2017-03-19T14:29:37Z</time>
      </trkpt>
      <trkpt lat="50.25988" lon="4.81056">
        <ele>210.19</ele>
        <time>2017-03-19T14:29:57Z</time>
      </trkpt>
      <trkpt lat="50.25988" lon="4.81018">
        <ele>210.67</ele>
        <time>2017-03-19T14:30:16Z</time>
      </trkpt>
      <trkpt lat="50.25988" lon="4.81003">
        <ele>209.22</ele>
        <time>2017-03-19T14:30:24Z</time>
      </trkpt>
      <trkpt lat="50.25987" lon="4.8099">
        <ele>210.67</ele>
        <time>2017-03-19T14:30:31Z</time>
      </trkpt>
      <trkpt lat="50.25985" lon="4.80979">
        <ele>209.22</ele>
        <time>2017-03-19T14:30:37Z</time>
      </trkpt>
      <trkpt lat="50.25985" lon="4.80975">
        <ele>210.67</ele>
        <time>2017-03-19T14:30:39Z</time>
      </trkpt>
      <trkpt lat="50.25984" lon="4.80972">
        <ele>212.11</ele>
        <time>2017-03-19T14:30:41Z</time>
      </trkpt>
      <trkpt lat="50.25981" lon="4.80943">
        <ele>212.59</ele>
        <time>2017-03-19T14:30:57Z</time>
      </trkpt>
      <trkpt lat="50.25977" lon="4.80914">
        <ele>213.07</ele>
        <time>2017-03-19T14:31:14Z</time>
      </trkpt>
      <trkpt lat="50.25973" lon="4.80892">
        <ele>213.55</ele>
        <time>2017-03-19T14:31:27Z</time>
      </trkpt>
      <trkpt lat="50.25972" lon="4.80889">
        <ele>212.11</ele>
        <time>2017-03-19T14:31:29Z</time>
      </trkpt>
      <trkpt lat="50.25971" lon="4.80883">
        <ele>214.03</ele>
        <time>2017-03-19T14:31:34Z</time>
      </trkpt>
      <trkpt lat="50.25967" lon="4.80871">
        <ele>214.03</ele>
        <time>2017-03-19T14:31:48Z</time>
      </trkpt>
      <trkpt lat="50.25966" lon="4.8087">
        <ele>214.51</ele>
        <time>2017-03-19T14:32:07Z</time>
      </trkpt>
      <trkpt lat="50.25966" lon="4.8087">
        <ele>214.51</ele>
        <time>2017-03-19T14:32:36Z</time>
      </trkpt>
      <trkpt lat="50.25965" lon="4.80871">
        <ele>214.99</ele>
        <time>2017-03-19T14:33:04Z</time>
      </trkpt>
      <trkpt lat="50.25969" lon="4.80872">
        <ele>214.99</ele>
        <time>2017-03-19T14:33:26Z</time>
      </trkpt>
      <trkpt lat="50.25967" lon="4.80872">
        <ele>214.99</ele>
        <time>2017-03-19T14:33:51Z</time>
      </trkpt>
      <trkpt lat="50.25966" lon="4.80869">
        <ele>214.99</ele>
        <time>2017-03-19T14:34:15Z</time>
      </trkpt>
      <trkpt lat="50.25967" lon="4.8087">
        <ele>215.47</ele>
        <time>2017-03-19T14:34:40Z</time>
      </trkpt>
      <trkpt lat="50.25967" lon="4.80871">
        <ele>215.47</ele>
        <time>2017-03-19T14:35:07Z</time>
      </trkpt>
      <trkpt lat="50.25959" lon="4.80856">
        <ele>215.47</ele>
        <time>2017-03-19T14:35:22Z</time>
      </trkpt>
      <trkpt lat="50.25947" lon="4.80833">
        <ele>215.95</ele>
        <time>2017-03-19T14:35:40Z</time>
      </trkpt>
      <trkpt lat="50.25932" lon="4.80801">
        <ele>218.36</ele>
        <time>2017-03-19T14:36:04Z</time>
      </trkpt>
      <trkpt lat="50.25922" lon="4.8078">
        <ele>221.24</ele>
        <time>2017-03-19T14:36:21Z</time>
      </trkpt>
      <trkpt lat="50.2592" lon="4.80773">
        <ele>221.24</ele>
        <time>2017-03-19T14:36:24Z</time>
      </trkpt>
      <trkpt lat="50.25917" lon="4.80761">
        <ele>222.68</ele>
        <time>2017-03-19T14:36:30Z</time>
      </trkpt>
      <trkpt lat="50.25917" lon="4.8076">
        <ele>222.2</ele>
        <time>2017-03-19T14:36:31Z</time>
      </trkpt>
      <trkpt lat="50.25916" lon="4.80726">
        <ele>223.64</ele>
        <time>2017-03-19T14:36:50Z</time>
      </trkpt>
      <trkpt lat="50.25916" lon="4.80692">
        <ele>225.09</ele>
        <time>2017-03-19T14:37:08Z</time>
      </trkpt>
      <trkpt lat="50.2591" lon="4.80653">
        <ele>226.05</ele>
        <time>2017-03-19T14:37:29Z</time>
      </trkpt>
      <trkpt lat="50.25897" lon="4.80619">
        <ele>227.49</ele>
        <time>2017-03-19T14:37:51Z</time>
      </trkpt>
      <trkpt lat="50.25892" lon="4.80606">
        <ele>225.57</ele>
        <time>2017-03-19T14:37:58Z</time>
      </trkpt>
      <trkpt lat="50.25886" lon="4.80579">
        <ele>227.49</ele>
        <time>2017-03-19T14:38:13Z</time>
      </trkpt>
      <trkpt lat="50.25882" lon="4.80556">
        <ele>230.37</ele>
        <time>2017-03-19T14:38:28Z</time>
      </trkpt>
      <trkpt lat="50.25881" lon="4.80525">
        <ele>230.85</ele>
        <time>2017-03-19T14:38:44Z</time>
      </trkpt>
      <trkpt lat="50.25881" lon="4.80497">
        <ele>232.3</ele>
        <time>2017-03-19T14:38:59Z</time>
      </trkpt>
      <trkpt lat="50.25883" lon="4.80466">
        <ele>234.7</ele>
        <time>2017-03-19T14:39:15Z</time>
      </trkpt>
      <trkpt lat="50.25883" lon="4.80464">
        <ele>234.7</ele>
        <time>2017-03-19T14:39:16Z</time>
      </trkpt>
      <trkpt lat="50.25884" lon="4.8046">
        <ele>233.26</ele>
        <time>2017-03-19T14:39:18Z</time>
      </trkpt>
      <trkpt lat="50.25884" lon="4.80426">
        <ele>233.26</ele>
        <time>2017-03-19T14:39:35Z</time>
      </trkpt>
      <trkpt lat="50.25883" lon="4.80395">
        <ele>232.78</ele>
        <time>2017-03-19T14:39:51Z</time>
      </trkpt>
      <trkpt lat="50.25881" lon="4.80373">
        <ele>236.14</ele>
        <time>2017-03-19T14:40:03Z</time>
      </trkpt>
      <trkpt lat="50.25881" lon="4.80372">
        <ele>236.14</ele>
        <time>2017-03-19T14:40:04Z</time>
      </trkpt>
      <trkpt lat="50.25879" lon="4.80364">
        <ele>234.7</ele>
        <time>2017-03-19T14:40:11Z</time>
      </trkpt>
      <trkpt lat="50.25878" lon="4.80361">
        <ele>234.7</ele>
        <time>2017-03-19T14:40:13Z</time>
      </trkpt>
      <trkpt lat="50.25877" lon="4.80354">
        <ele>234.7</ele>
        <time>2017-03-19T14:40:18Z</time>
      </trkpt>
      <trkpt lat="50.25877" lon="4.80334">
        <ele>234.7</ele>
        <time>2017-03-19T14:40:30Z</time>
      </trkpt>
      <trkpt lat="50.25874" lon="4.803">
        <ele>234.7</ele>
        <time>2017-03-19T14:40:47Z</time>
      </trkpt>
      <trkpt lat="50.25872" lon="4.80265">
        <ele>234.7</ele>
        <time>2017-03-19T14:41:05Z</time>
      </trkpt>
      <trkpt lat="50.25871" lon="4.80236">
        <ele>236.14</ele>
        <time>2017-03-19T14:41:20Z</time>
      </trkpt>
      <trkpt lat="50.25869" lon="4.802">
        <ele>236.14</ele>
        <time>2017-03-19T14:41:38Z</time>
      </trkpt>
      <trkpt lat="50.25868" lon="4.80165">
        <ele>236.62</ele>
        <time>2017-03-19T14:41:56Z</time>
      </trkpt>
      <trkpt lat="50.25868" lon="4.80135">
        <ele>238.54</ele>
        <time>2017-03-19T14:42:14Z</time>
      </trkpt>
      <trkpt lat="50.25867" lon="4.80116">
        <ele>238.54</ele>
        <time>2017-03-19T14:42:24Z</time>
      </trkpt>
      <trkpt lat="50.25867" lon="4.80083">
        <ele>238.54</ele>
        <time>2017-03-19T14:42:41Z</time>
      </trkpt>
      <trkpt lat="50.25867" lon="4.80046">
        <ele>239.51</ele>
        <time>2017-03-19T14:42:59Z</time>
      </trkpt>
      <trkpt lat="50.25867" lon="4.80042">
        <ele>240.95</ele>
        <time>2017-03-19T14:43:01Z</time>
      </trkpt>
      <trkpt lat="50.25867" lon="4.80036">
        <ele>239.51</ele>
        <time>2017-03-19T14:43:04Z</time>
      </trkpt>
      <trkpt lat="50.25866" lon="4.8">
        <ele>239.99</ele>
        <time>2017-03-19T14:43:22Z</time>
      </trkpt>
      <trkpt lat="50.25866" lon="4.79969">
        <ele>241.43</ele>
        <time>2017-03-19T14:43:38Z</time>
      </trkpt>
      <trkpt lat="50.25865" lon="4.79959">
        <ele>239.99</ele>
        <time>2017-03-19T14:43:43Z</time>
      </trkpt>
      <trkpt lat="50.25865" lon="4.79927">
        <ele>240.47</ele>
        <time>2017-03-19T14:43:59Z</time>
      </trkpt>
      <trkpt lat="50.25865" lon="4.79924">
        <ele>242.87</ele>
        <time>2017-03-19T14:44:01Z</time>
      </trkpt>
      <trkpt lat="50.25864" lon="4.79918">
        <ele>241.43</ele>
        <time>2017-03-19T14:44:04Z</time>
      </trkpt>
      <trkpt lat="50.25864" lon="4.79883">
        <ele>240.47</ele>
        <time>2017-03-19T14:44:21Z</time>
      </trkpt>
      <trkpt lat="50.25864" lon="4.79881">
        <ele>240.47</ele>
        <time>2017-03-19T14:44:22Z</time>
      </trkpt>
      <trkpt lat="50.25863" lon="4.79868">
        <ele>241.91</ele>
        <time>2017-03-19T14:44:29Z</time>
      </trkpt>
      <trkpt lat="50.25863" lon="4.79836">
        <ele>242.39</ele>
        <time>2017-03-19T14:44:46Z</time>
      </trkpt>
      <trkpt lat="50.25861" lon="4.79818">
        <ele>243.83</ele>
        <time>2017-03-19T14:44:56Z</time>
      </trkpt>
      <trkpt lat="50.2586" lon="4.79788">
        <ele>243.83</ele>
        <time>2017-03-19T14:45:12Z</time>
      </trkpt>
      <trkpt lat="50.2586" lon="4.79782">
        <ele>242.39</ele>
        <time>2017-03-19T14:45:15Z</time>
      </trkpt>
      <trkpt lat="50.2586" lon="4.79757">
        <ele>241.43</ele>
        <time>2017-03-19T14:45:28Z</time>
      </trkpt>
      <trkpt lat="50.25859" lon="4.79747">
        <ele>242.87</ele>
        <time>2017-03-19T14:45:33Z</time>
      </trkpt>
      <trkpt lat="50.25859" lon="4.79713">
        <ele>244.31</ele>
        <time>2017-03-19T14:45:50Z</time>
      </trkpt>
      <trkpt lat="50.25858" lon="4.79696">
        <ele>244.31</ele>
        <time>2017-03-19T14:45:59Z</time>
      </trkpt>
      <trkpt lat="50.25857" lon="4.79666">
        <ele>244.79</ele>
        <time>2017-03-19T14:46:14Z</time>
      </trkpt>
      <trkpt lat="50.25857" lon="4.79664">
        <ele>244.79</ele>
        <time>2017-03-19T14:46:15Z</time>
      </trkpt>
      <trkpt lat="50.25856" lon="4.79647">
        <ele>242.87</ele>
        <time>2017-03-19T14:46:23Z</time>
      </trkpt>
      <trkpt lat="50.25855" lon="4.7964">
        <ele>244.31</ele>
        <time>2017-03-19T14:46:27Z</time>
      </trkpt>
      <trkpt lat="50.25855" lon="4.79632">
        <ele>246.72</ele>
        <time>2017-03-19T14:46:31Z</time>
      </trkpt>
      <trkpt lat="50.25852" lon="4.79598">
        <ele>245.27</ele>
        <time>2017-03-19T14:46:48Z</time>
      </trkpt>
      <trkpt lat="50.25851" lon="4.79586">
        <ele>247.2</ele>
        <time>2017-03-19T14:46:54Z</time>
      </trkpt>
      <trkpt lat="50.2585" lon="4.79567">
        <ele>243.35</ele>
        <time>2017-03-19T14:47:04Z</time>
      </trkpt>
      <trkpt lat="50.2585" lon="4.79565">
        <ele>243.83</ele>
        <time>2017-03-19T14:47:05Z</time>
      </trkpt>
      <trkpt lat="50.25849" lon="4.79557">
        <ele>247.68</ele>
        <time>2017-03-19T14:47:09Z</time>
      </trkpt>
      <trkpt lat="50.25849" lon="4.79554">
        <ele>247.68</ele>
        <time>2017-03-19T14:47:10Z</time>
      </trkpt>
      <trkpt lat="50.25848" lon="4.79544">
        <ele>246.72</ele>
        <time>2017-03-19T14:47:15Z</time>
      </trkpt>
      <trkpt lat="50.25847" lon="4.79529">
        <ele>247.68</ele>
        <time>2017-03-19T14:47:22Z</time>
      </trkpt>
      <trkpt lat="50.25845" lon="4.79515">
        <ele>246.23</ele>
        <time>2017-03-19T14:47:30Z</time>
      </trkpt>
      <trkpt lat="50.25842" lon="4.79488">
        <ele>248.64</ele>
        <time>2017-03-19T14:47:44Z</time>
      </trkpt>
      <trkpt lat="50.25841" lon="4.79477">
        <ele>246.72</ele>
        <time>2017-03-19T14:47:50Z</time>
      </trkpt>
      <trkpt lat="50.25839" lon="4.79462">
        <ele>247.68</ele>
        <time>2017-03-19T14:47:58Z</time>
      </trkpt>
      <trkpt lat="50.25836" lon="4.79432">
        <ele>246.72</ele>
        <time>2017-03-19T14:48:13Z</time>
      </trkpt>
      <trkpt lat="50.25836" lon="4.79431">
        <ele>246.72</ele>
        <time>2017-03-19T14:48:14Z</time>
      </trkpt>
      <trkpt lat="50.25832" lon="4.79403">
        <ele>249.6</ele>
        <time>2017-03-19T14:48:28Z</time>
      </trkpt>
      <trkpt lat="50.2583" lon="4.79392">
        <ele>248.16</ele>
        <time>2017-03-19T14:48:34Z</time>
      </trkpt>
      <trkpt lat="50.25828" lon="4.79379">
        <ele>249.6</ele>
        <time>2017-03-19T14:48:41Z</time>
      </trkpt>
      <trkpt lat="50.25825" lon="4.79357">
        <ele>249.6</ele>
        <time>2017-03-19T14:48:52Z</time>
      </trkpt>
      <trkpt lat="50.25821" lon="4.79329">
        <ele>248.16</ele>
        <time>2017-03-19T14:49:07Z</time>
      </trkpt>
      <trkpt lat="50.25818" lon="4.79299">
        <ele>247.68</ele>
        <time>2017-03-19T14:49:22Z</time>
      </trkpt>
      <trkpt lat="50.25814" lon="4.79264">
        <ele>245.75</ele>
        <time>2017-03-19T14:49:40Z</time>
      </trkpt>
      <trkpt lat="50.2581" lon="4.79235">
        <ele>245.27</ele>
        <time>2017-03-19T14:49:55Z</time>
      </trkpt>
      <trkpt lat="50.25806" lon="4.79204">
        <ele>244.79</ele>
        <time>2017-03-19T14:50:12Z</time>
      </trkpt>
      <trkpt lat="50.25804" lon="4.7919">
        <ele>244.79</ele>
        <time>2017-03-19T14:50:20Z</time>
      </trkpt>
      <trkpt lat="50.25802" lon="4.79178">
        <ele>246.23</ele>
        <time>2017-03-19T14:50:31Z</time>
      </trkpt>
      <trkpt lat="50.25802" lon="4.79177">
        <ele>245.75</ele>
        <time>2017-03-19T14:50:51Z</time>
      </trkpt>
      <trkpt lat="50.25802" lon="4.79177">
        <ele>245.27</ele>
        <time>2017-03-19T14:51:15Z</time>
      </trkpt>
      <trkpt lat="50.25802" lon="4.79177">
        <ele>246.23</ele>
        <time>2017-03-19T14:51:33Z</time>
      </trkpt>
      <trkpt lat="50.25803" lon="4.79177">
        <ele>244.79</ele>
        <time>2017-03-19T14:51:56Z</time>
      </trkpt>
      <trkpt lat="50.25802" lon="4.79178">
        <ele>245.75</ele>
        <time>2017-03-19T14:52:10Z</time>
      </trkpt>
      <trkpt lat="50.25802" lon="4.79177">
        <ele>243.35</ele>
        <time>2017-03-19T14:52:26Z</time>
      </trkpt>
      <trkpt lat="50.25801" lon="4.79177">
        <ele>245.27</ele>
        <time>2017-03-19T14:52:32Z</time>
      </trkpt>
      <trkpt lat="50.25801" lon="4.79177">
        <ele>243.83</ele>
        <time>2017-03-19T14:52:36Z</time>
      </trkpt>
      <trkpt lat="50.25802" lon="4.79178">
        <ele>245.75</ele>
        <time>2017-03-19T14:52:54Z</time>
      </trkpt>
      <trkpt lat="50.258" lon="4.79177">
        <ele>244.31</ele>
        <time>2017-03-19T14:52:57Z</time>
      </trkpt>
      <trkpt lat="50.25784" lon="4.79168">
        <ele>244.31</ele>
        <time>2017-03-19T14:53:12Z</time>
      </trkpt>
      <trkpt lat="50.25766" lon="4.79166">
        <ele>245.75</ele>
        <time>2017-03-19T14:53:28Z</time>
      </trkpt>
      <trkpt lat="50.25763" lon="4.79165">
        <ele>244.31</ele>
        <time>2017-03-19T14:53:30Z</time>
      </trkpt>
      <trkpt lat="50.25749" lon="4.79163">
        <ele>244.31</ele>
        <time>2017-03-19T14:53:42Z</time>
      </trkpt>
      <trkpt lat="50.25732" lon="4.79163">
        <ele>245.75</ele>
        <time>2017-03-19T14:53:57Z</time>
      </trkpt>
      <trkpt lat="50.25726" lon="4.79164">
        <ele>244.31</ele>
        <time>2017-03-19T14:54:02Z</time>
      </trkpt>
      <trkpt lat="50.25709" lon="4.79168">
        <ele>242.87</ele>
        <time>2017-03-19T14:54:18Z</time>
      </trkpt>
      <trkpt lat="50.25708" lon="4.79169">
        <ele>244.31</ele>
        <time>2017-03-19T14:54:20Z</time>
      </trkpt>
      <trkpt lat="50.25703" lon="4.79168">
        <ele>242.87</ele>
        <time>2017-03-19T14:54:26Z</time>
      </trkpt>
      <trkpt lat="50.25697" lon="4.79151">
        <ele>241.91</ele>
        <time>2017-03-19T14:54:40Z</time>
      </trkpt>
      <trkpt lat="50.25695" lon="4.79143">
        <ele>240.47</ele>
        <time>2017-03-19T14:54:45Z</time>
      </trkpt>
      <trkpt lat="50.25691" lon="4.79124">
        <ele>240.95</ele>
        <time>2017-03-19T14:54:59Z</time>
      </trkpt>
      <trkpt lat="50.2568" lon="4.7911">
        <ele>238.06</ele>
        <time>2017-03-19T14:55:17Z</time>
      </trkpt>
      <trkpt lat="50.25669" lon="4.79095">
        <ele>236.14</ele>
        <time>2017-03-19T14:55:33Z</time>
      </trkpt>
      <trkpt lat="50.25659" lon="4.79088">
        <ele>234.7</ele>
        <time>2017-03-19T14:55:48Z</time>
      </trkpt>
      <trkpt lat="50.25656" lon="4.79083">
        <ele>234.22</ele>
        <time>2017-03-19T14:55:54Z</time>
      </trkpt>
      <trkpt lat="50.25651" lon="4.79079">
        <ele>233.26</ele>
        <time>2017-03-19T14:55:59Z</time>
      </trkpt>
      <trkpt lat="50.25646" lon="4.79075">
        <ele>232.78</ele>
        <time>2017-03-19T14:56:04Z</time>
      </trkpt>
      <trkpt lat="50.25632" lon="4.79067">
        <ele>232.78</ele>
        <time>2017-03-19T14:56:19Z</time>
      </trkpt>
      <trkpt lat="50.25625" lon="4.79072">
        <ele>232.78</ele>
        <time>2017-03-19T14:56:32Z</time>
      </trkpt>
      <trkpt lat="50.25615" lon="4.79077">
        <ele>234.22</ele>
        <time>2017-03-19T14:56:42Z</time>
      </trkpt>
      <trkpt lat="50.25602" lon="4.79083">
        <ele>236.14</ele>
        <time>2017-03-19T14:56:56Z</time>
      </trkpt>
      <trkpt lat="50.25592" lon="4.79089">
        <ele>239.02</ele>
        <time>2017-03-19T14:57:11Z</time>
      </trkpt>
      <trkpt lat="50.25575" lon="4.79096">
        <ele>240.47</ele>
        <time>2017-03-19T14:57:29Z</time>
      </trkpt>
      <trkpt lat="50.25563" lon="4.79103">
        <ele>242.87</ele>
        <time>2017-03-19T14:57:46Z</time>
      </trkpt>
      <trkpt lat="50.25547" lon="4.79107">
        <ele>246.23</ele>
        <time>2017-03-19T14:58:05Z</time>
      </trkpt>
      <trkpt lat="50.25534" lon="4.79107">
        <ele>246.23</ele>
        <time>2017-03-19T14:58:20Z</time>
      </trkpt>
      <trkpt lat="50.25516" lon="4.79099">
        <ele>248.64</ele>
        <time>2017-03-19T14:58:41Z</time>
      </trkpt>
      <trkpt lat="50.25508" lon="4.79086">
        <ele>252</ele>
        <time>2017-03-19T14:58:54Z</time>
      </trkpt>
      <trkpt lat="50.25496" lon="4.79069">
        <ele>252.48</ele>
        <time>2017-03-19T14:59:10Z</time>
      </trkpt>
      <trkpt lat="50.25487" lon="4.79051">
        <ele>255.37</ele>
        <time>2017-03-19T14:59:27Z</time>
      </trkpt>
      <trkpt lat="50.2547" lon="4.79028">
        <ele>256.33</ele>
        <time>2017-03-19T14:59:46Z</time>
      </trkpt>
      <trkpt lat="50.25461" lon="4.79016">
        <ele>256.33</ele>
        <time>2017-03-19T15:00:00Z</time>
      </trkpt>
      <trkpt lat="50.25442" lon="4.78996">
        <ele>254.89</ele>
        <time>2017-03-19T15:00:19Z</time>
      </trkpt>
      <trkpt lat="50.25429" lon="4.78981">
        <ele>252.48</ele>
        <time>2017-03-19T15:00:36Z</time>
      </trkpt>
      <trkpt lat="50.25413" lon="4.78958">
        <ele>251.52</ele>
        <time>2017-03-19T15:00:53Z</time>
      </trkpt>
      <trkpt lat="50.25403" lon="4.78948">
        <ele>250.08</ele>
        <time>2017-03-19T15:01:09Z</time>
      </trkpt>
      <trkpt lat="50.25382" lon="4.7893">
        <ele>248.64</ele>
        <time>2017-03-19T15:01:31Z</time>
      </trkpt>
      <trkpt lat="50.25365" lon="4.78911">
        <ele>247.2</ele>
        <time>2017-03-19T15:01:51Z</time>
      </trkpt>
      <trkpt lat="50.25358" lon="4.78911">
        <ele>247.2</ele>
        <time>2017-03-19T15:02:10Z</time>
      </trkpt>
      <trkpt lat="50.25359" lon="4.7891">
        <ele>246.72</ele>
        <time>2017-03-19T15:02:33Z</time>
      </trkpt>
      <trkpt lat="50.2536" lon="4.78912">
        <ele>246.72</ele>
        <time>2017-03-19T15:02:51Z</time>
      </trkpt>
      <trkpt lat="50.25356" lon="4.78909">
        <ele>246.72</ele>
        <time>2017-03-19T15:03:15Z</time>
      </trkpt>
      <trkpt lat="50.25356" lon="4.78908">
        <ele>246.72</ele>
        <time>2017-03-19T15:03:36Z</time>
      </trkpt>
      <trkpt lat="50.25357" lon="4.78909">
        <ele>246.72</ele>
        <time>2017-03-19T15:03:56Z</time>
      </trkpt>
      <trkpt lat="50.25357" lon="4.78917">
        <ele>247.2</ele>
        <time>2017-03-19T15:04:20Z</time>
      </trkpt>
      <trkpt lat="50.25351" lon="4.7891">
        <ele>246.72</ele>
        <time>2017-03-19T15:04:41Z</time>
      </trkpt>
      <trkpt lat="50.25355" lon="4.78911">
        <ele>246.72</ele>
        <time>2017-03-19T15:05:00Z</time>
      </trkpt>
      <trkpt lat="50.25342" lon="4.7889">
        <ele>245.75</ele>
        <time>2017-03-19T15:05:23Z</time>
      </trkpt>
      <trkpt lat="50.25329" lon="4.78869">
        <ele>244.79</ele>
        <time>2017-03-19T15:05:40Z</time>
      </trkpt>
      <trkpt lat="50.25315" lon="4.78849">
        <ele>242.87</ele>
        <time>2017-03-19T15:05:56Z</time>
      </trkpt>
      <trkpt lat="50.25302" lon="4.78833">
        <ele>241.43</ele>
        <time>2017-03-19T15:06:10Z</time>
      </trkpt>
      <trkpt lat="50.25299" lon="4.78828">
        <ele>241.43</ele>
        <time>2017-03-19T15:06:14Z</time>
      </trkpt>
      <trkpt lat="50.25291" lon="4.78818">
        <ele>239.99</ele>
        <time>2017-03-19T15:06:27Z</time>
      </trkpt>
      <trkpt lat="50.25277" lon="4.78804">
        <ele>238.06</ele>
        <time>2017-03-19T15:06:43Z</time>
      </trkpt>
      <trkpt lat="50.25275" lon="4.78803">
        <ele>238.06</ele>
        <time>2017-03-19T15:06:45Z</time>
      </trkpt>
      <trkpt lat="50.25265" lon="4.7879">
        <ele>238.06</ele>
        <time>2017-03-19T15:06:57Z</time>
      </trkpt>
      <trkpt lat="50.25252" lon="4.78773">
        <ele>236.14</ele>
        <time>2017-03-19T15:07:11Z</time>
      </trkpt>
      <trkpt lat="50.25247" lon="4.78762">
        <ele>234.7</ele>
        <time>2017-03-19T15:07:24Z</time>
      </trkpt>
      <trkpt lat="50.25243" lon="4.78749">
        <ele>233.74</ele>
        <time>2017-03-19T15:07:37Z</time>
      </trkpt>
      <trkpt lat="50.25235" lon="4.78732">
        <ele>231.81</ele>
        <time>2017-03-19T15:07:50Z</time>
      </trkpt>
      <trkpt lat="50.25223" lon="4.78714">
        <ele>231.33</ele>
        <time>2017-03-19T15:08:04Z</time>
      </trkpt>
      <trkpt lat="50.25218" lon="4.78702">
        <ele>230.37</ele>
        <time>2017-03-19T15:08:13Z</time>
      </trkpt>
      <trkpt lat="50.25209" lon="4.78683">
        <ele>227.01</ele>
        <time>2017-03-19T15:08:26Z</time>
      </trkpt>
      <trkpt lat="50.25201" lon="4.78663">
        <ele>225.57</ele>
        <time>2017-03-19T15:08:41Z</time>
      </trkpt>
      <trkpt lat="50.25193" lon="4.78652">
        <ele>225.09</ele>
        <time>2017-03-19T15:08:55Z</time>
      </trkpt>
      <trkpt lat="50.25184" lon="4.78646">
        <ele>223.64</ele>
        <time>2017-03-19T15:09:04Z</time>
      </trkpt>
      <trkpt lat="50.25181" lon="4.78644">
        <ele>223.16</ele>
        <time>2017-03-19T15:09:07Z</time>
      </trkpt>
      <trkpt lat="50.25173" lon="4.78641">
        <ele>221.72</ele>
        <time>2017-03-19T15:09:19Z</time>
      </trkpt>
      <trkpt lat="50.25158" lon="4.78632">
        <ele>219.8</ele>
        <time>2017-03-19T15:09:34Z</time>
      </trkpt>
      <trkpt lat="50.25146" lon="4.78617">
        <ele>218.84</ele>
        <time>2017-03-19T15:09:49Z</time>
      </trkpt>
      <trkpt lat="50.25136" lon="4.78597">
        <ele>216.91</ele>
        <time>2017-03-19T15:10:06Z</time>
      </trkpt>
      <trkpt lat="50.25127" lon="4.78573">
        <ele>215.95</ele>
        <time>2017-03-19T15:10:22Z</time>
      </trkpt>
      <trkpt lat="50.2512" lon="4.78553">
        <ele>214.03</ele>
        <time>2017-03-19T15:10:37Z</time>
      </trkpt>
      <trkpt lat="50.25114" lon="4.78539">
        <ele>213.07</ele>
        <time>2017-03-19T15:10:50Z</time>
      </trkpt>
      <trkpt lat="50.25104" lon="4.78511">
        <ele>210.67</ele>
        <time>2017-03-19T15:11:08Z</time>
      </trkpt>
      <trkpt lat="50.25095" lon="4.78483">
        <ele>209.22</ele>
        <time>2017-03-19T15:11:24Z</time>
      </trkpt>
      <trkpt lat="50.25086" lon="4.78451">
        <ele>207.78</ele>
        <time>2017-03-19T15:11:38Z</time>
      </trkpt>
      <trkpt lat="50.2508" lon="4.78431">
        <ele>205.86</ele>
        <time>2017-03-19T15:11:53Z</time>
      </trkpt>
      <trkpt lat="50.25076" lon="4.7842">
        <ele>205.38</ele>
        <time>2017-03-19T15:12:02Z</time>
      </trkpt>
      <trkpt lat="50.25068" lon="4.78394">
        <ele>204.42</ele>
        <time>2017-03-19T15:12:20Z</time>
      </trkpt>
      <trkpt lat="50.25061" lon="4.78372">
        <ele>202.98</ele>
        <time>2017-03-19T15:12:37Z</time>
      </trkpt>
      <trkpt lat="50.25052" lon="4.78342">
        <ele>202.01</ele>
        <time>2017-03-19T15:12:58Z</time>
      </trkpt>
      <trkpt lat="50.25041" lon="4.78316">
        <ele>201.05</ele>
        <time>2017-03-19T15:13:14Z</time>
      </trkpt>
      <trkpt lat="50.25036" lon="4.78287">
        <ele>200.57</ele>
        <time>2017-03-19T15:13:30Z</time>
      </trkpt>
      <trkpt lat="50.2503" lon="4.7826">
        <ele>200.09</ele>
        <time>2017-03-19T15:13:46Z</time>
      </trkpt>
      <trkpt lat="50.25026" lon="4.78236">
        <ele>200.09</ele>
        <time>2017-03-19T15:14:00Z</time>
      </trkpt>
      <trkpt lat="50.25026" lon="4.78228">
        <ele>200.09</ele>
        <time>2017-03-19T15:14:05Z</time>
      </trkpt>
      <trkpt lat="50.25027" lon="4.78215">
        <ele>199.61</ele>
        <time>2017-03-19T15:14:12Z</time>
      </trkpt>
      <trkpt lat="50.25027" lon="4.78206">
        <ele>199.13</ele>
        <time>2017-03-19T15:14:16Z</time>
      </trkpt>
      <trkpt lat="50.25029" lon="4.78175">
        <ele>199.13</ele>
        <time>2017-03-19T15:14:35Z</time>
      </trkpt>
      <trkpt lat="50.25029" lon="4.78167">
        <ele>199.13</ele>
        <time>2017-03-19T15:14:40Z</time>
      </trkpt>
      <trkpt lat="50.25029" lon="4.78155">
        <ele>199.13</ele>
        <time>2017-03-19T15:14:46Z</time>
      </trkpt>
      <trkpt lat="50.25023" lon="4.7813">
        <ele>198.65</ele>
        <time>2017-03-19T15:15:00Z</time>
      </trkpt>
      <trkpt lat="50.25021" lon="4.78122">
        <ele>198.65</ele>
        <time>2017-03-19T15:15:05Z</time>
      </trkpt>
      <trkpt lat="50.25014" lon="4.78099">
        <ele>198.17</ele>
        <time>2017-03-19T15:15:19Z</time>
      </trkpt>
      <trkpt lat="50.25011" lon="4.78098">
        <ele>199.61</ele>
        <time>2017-03-19T15:15:29Z</time>
      </trkpt>
      <trkpt lat="50.25011" lon="4.78098">
        <ele>199.61</ele>
        <time>2017-03-19T15:15:46Z</time>
      </trkpt>
      <trkpt lat="50.25012" lon="4.78098">
        <ele>199.61</ele>
        <time>2017-03-19T15:16:11Z</time>
      </trkpt>
      <trkpt lat="50.25013" lon="4.78098">
        <ele>199.61</ele>
        <time>2017-03-19T15:16:34Z</time>
      </trkpt>
      <trkpt lat="50.25013" lon="4.78098">
        <ele>199.61</ele>
        <time>2017-03-19T15:16:50Z</time>
      </trkpt>
      <trkpt lat="50.2501" lon="4.78096">
        <ele>199.61</ele>
        <time>2017-03-19T15:17:16Z</time>
      </trkpt>
      <trkpt lat="50.25013" lon="4.78098">
        <ele>199.61</ele>
        <time>2017-03-19T15:17:38Z</time>
      </trkpt>
      <trkpt lat="50.25012" lon="4.78098">
        <ele>198.65</ele>
        <time>2017-03-19T15:18:04Z</time>
      </trkpt>
      <trkpt lat="50.25012" lon="4.78097">
        <ele>198.65</ele>
        <time>2017-03-19T15:18:21Z</time>
      </trkpt>
      <trkpt lat="50.25014" lon="4.78097">
        <ele>198.65</ele>
        <time>2017-03-19T15:18:41Z</time>
      </trkpt>
      <trkpt lat="50.25015" lon="4.78095">
        <ele>198.65</ele>
        <time>2017-03-19T15:18:56Z</time>
      </trkpt>
      <trkpt lat="50.25014" lon="4.78098">
        <ele>198.65</ele>
        <time>2017-03-19T15:19:22Z</time>
      </trkpt>
      <trkpt lat="50.2501" lon="4.78098">
        <ele>199.61</ele>
        <time>2017-03-19T15:19:47Z</time>
      </trkpt>
      <trkpt lat="50.25012" lon="4.78096">
        <ele>198.17</ele>
        <time>2017-03-19T15:20:07Z</time>
      </trkpt>
      <trkpt lat="50.25011" lon="4.78098">
        <ele>199.61</ele>
        <time>2017-03-19T15:20:28Z</time>
      </trkpt>
      <trkpt lat="50.25012" lon="4.78098">
        <ele>200.09</ele>
        <time>2017-03-19T15:20:45Z</time>
      </trkpt>
      <trkpt lat="50.25011" lon="4.78096">
        <ele>200.09</ele>
        <time>2017-03-19T15:21:06Z</time>
      </trkpt>
      <trkpt lat="50.2501" lon="4.78094">
        <ele>200.09</ele>
        <time>2017-03-19T15:21:32Z</time>
      </trkpt>
      <trkpt lat="50.2501" lon="4.78098">
        <ele>200.09</ele>
        <time>2017-03-19T15:21:55Z</time>
      </trkpt>
      <trkpt lat="50.25014" lon="4.78097">
        <ele>200.57</ele>
        <time>2017-03-19T15:22:22Z</time>
      </trkpt>
      <trkpt lat="50.25012" lon="4.78096">
        <ele>200.57</ele>
        <time>2017-03-19T15:22:44Z</time>
      </trkpt>
      <trkpt lat="50.25012" lon="4.78097">
        <ele>200.57</ele>
        <time>2017-03-19T15:22:59Z</time>
      </trkpt>
      <trkpt lat="50.25012" lon="4.78095">
        <ele>200.57</ele>
        <time>2017-03-19T15:23:23Z</time>
      </trkpt>
      <trkpt lat="50.25011" lon="4.78099">
        <ele>200.57</ele>
        <time>2017-03-19T15:23:41Z</time>
      </trkpt>
      <trkpt lat="50.25011" lon="4.78099">
        <ele>200.09</ele>
        <time>2017-03-19T15:24:02Z</time>
      </trkpt>
      <trkpt lat="50.25011" lon="4.78096">
        <ele>199.61</ele>
        <time>2017-03-19T15:24:19Z</time>
      </trkpt>
      <trkpt lat="50.25011" lon="4.78096">
        <ele>199.61</ele>
        <time>2017-03-19T15:24:26Z</time>
      </trkpt>
      <trkpt lat="50.25013" lon="4.78094">
        <ele>199.61</ele>
        <time>2017-03-19T15:24:47Z</time>
      </trkpt>
      <trkpt lat="50.25012" lon="4.78093">
        <ele>199.61</ele>
        <time>2017-03-19T15:25:05Z</time>
      </trkpt>
      <trkpt lat="50.25014" lon="4.78094">
        <ele>199.61</ele>
        <time>2017-03-19T15:25:24Z</time>
      </trkpt>
      <trkpt lat="50.25012" lon="4.78093">
        <ele>199.61</ele>
        <time>2017-03-19T15:25:48Z</time>
      </trkpt>
      <trkpt lat="50.25014" lon="4.78095">
        <ele>199.61</ele>
        <time>2017-03-19T15:26:08Z</time>
      </trkpt>
      <trkpt lat="50.25012" lon="4.78098">
        <ele>199.61</ele>
        <time>2017-03-19T15:26:31Z</time>
      </trkpt>
      <trkpt lat="50.25011" lon="4.78097">
        <ele>200.09</ele>
        <time>2017-03-19T15:26:54Z</time>
      </trkpt>
      <trkpt lat="50.25011" lon="4.78096">
        <ele>198.65</ele>
        <time>2017-03-19T15:27:16Z</time>
      </trkpt>
      <trkpt lat="50.25011" lon="4.78091">
        <ele>200.57</ele>
        <time>2017-03-19T15:27:44Z</time>
      </trkpt>
      <trkpt lat="50.25011" lon="4.78091">
        <ele>200.57</ele>
        <time>2017-03-19T15:28:07Z</time>
      </trkpt>
      <trkpt lat="50.25013" lon="4.78093">
        <ele>200.57</ele>
        <time>2017-03-19T15:28:32Z</time>
      </trkpt>
      <trkpt lat="50.25011" lon="4.78094">
        <ele>201.05</ele>
        <time>2017-03-19T15:28:53Z</time>
      </trkpt>
      <trkpt lat="50.25009" lon="4.78097">
        <ele>199.61</ele>
        <time>2017-03-19T15:29:08Z</time>
      </trkpt>
      <trkpt lat="50.25008" lon="4.78091">
        <ele>199.13</ele>
        <time>2017-03-19T15:29:21Z</time>
      </trkpt>
      <trkpt lat="50.25007" lon="4.78087">
        <ele>199.13</ele>
        <time>2017-03-19T15:29:33Z</time>
      </trkpt>
      <trkpt lat="50.25003" lon="4.78086">
        <ele>199.13</ele>
        <time>2017-03-19T15:29:41Z</time>
      </trkpt>
      <trkpt lat="50.24992" lon="4.78093">
        <ele>199.13</ele>
        <time>2017-03-19T15:29:55Z</time>
      </trkpt>
      <trkpt lat="50.24985" lon="4.78099">
        <ele>200.57</ele>
        <time>2017-03-19T15:30:08Z</time>
      </trkpt>
      <trkpt lat="50.24975" lon="4.78101">
        <ele>200.57</ele>
        <time>2017-03-19T15:30:21Z</time>
      </trkpt>
      <trkpt lat="50.24966" lon="4.78107">
        <ele>201.53</ele>
        <time>2017-03-19T15:30:33Z</time>
      </trkpt>
      <trkpt lat="50.24959" lon="4.78112">
        <ele>203.46</ele>
        <time>2017-03-19T15:30:41Z</time>
      </trkpt>
      <trkpt lat="50.24948" lon="4.7812">
        <ele>203.94</ele>
        <time>2017-03-19T15:30:54Z</time>
      </trkpt>
      <trkpt lat="50.24932" lon="4.78118">
        <ele>205.86</ele>
        <time>2017-03-19T15:31:09Z</time>
      </trkpt>
      <trkpt lat="50.24915" lon="4.78112">
        <ele>208.74</ele>
        <time>2017-03-19T15:31:27Z</time>
      </trkpt>
      <trkpt lat="50.24899" lon="4.78109">
        <ele>211.15</ele>
        <time>2017-03-19T15:31:44Z</time>
      </trkpt>
      <trkpt lat="50.24879" lon="4.78119">
        <ele>214.03</ele>
        <time>2017-03-19T15:32:04Z</time>
      </trkpt>
      <trkpt lat="50.2487" lon="4.7814">
        <ele>215.47</ele>
        <time>2017-03-19T15:32:21Z</time>
      </trkpt>
      <trkpt lat="50.24867" lon="4.78161">
        <ele>217.4</ele>
        <time>2017-03-19T15:32:36Z</time>
      </trkpt>
      <trkpt lat="50.24868" lon="4.78186">
        <ele>218.84</ele>
        <time>2017-03-19T15:32:53Z</time>
      </trkpt>
      <trkpt lat="50.24868" lon="4.7821">
        <ele>221.24</ele>
        <time>2017-03-19T15:33:09Z</time>
      </trkpt>
      <trkpt lat="50.24865" lon="4.78239">
        <ele>224.12</ele>
        <time>2017-03-19T15:33:28Z</time>
      </trkpt>
      <trkpt lat="50.24862" lon="4.78266">
        <ele>226.05</ele>
        <time>2017-03-19T15:33:45Z</time>
      </trkpt>
      <trkpt lat="50.2486" lon="4.78285">
        <ele>227.97</ele>
        <time>2017-03-19T15:34:00Z</time>
      </trkpt>
      <trkpt lat="50.24855" lon="4.78303">
        <ele>228.93</ele>
        <time>2017-03-19T15:34:15Z</time>
      </trkpt>
      <trkpt lat="50.24847" lon="4.78322">
        <ele>230.85</ele>
        <time>2017-03-19T15:34:30Z</time>
      </trkpt>
      <trkpt lat="50.24837" lon="4.78334">
        <ele>231.33</ele>
        <time>2017-03-19T15:34:42Z</time>
      </trkpt>
      <trkpt lat="50.24822" lon="4.78346">
        <ele>233.26</ele>
        <time>2017-03-19T15:35:00Z</time>
      </trkpt>
      <trkpt lat="50.24804" lon="4.78354">
        <ele>233.74</ele>
        <time>2017-03-19T15:35:17Z</time>
      </trkpt>
      <trkpt lat="50.24796" lon="4.78357">
        <ele>232.3</ele>
        <time>2017-03-19T15:35:24Z</time>
      </trkpt>
      <trkpt lat="50.2478" lon="4.78362">
        <ele>232.3</ele>
        <time>2017-03-19T15:35:39Z</time>
      </trkpt>
      <trkpt lat="50.24765" lon="4.78366">
        <ele>231.33</ele>
        <time>2017-03-19T15:35:53Z</time>
      </trkpt>
      <trkpt lat="50.24749" lon="4.78371">
        <ele>230.85</ele>
        <time>2017-03-19T15:36:08Z</time>
      </trkpt>
      <trkpt lat="50.24731" lon="4.78375">
        <ele>231.33</ele>
        <time>2017-03-19T15:36:24Z</time>
      </trkpt>
      <trkpt lat="50.24724" lon="4.78377">
        <ele>229.89</ele>
        <time>2017-03-19T15:36:30Z</time>
      </trkpt>
      <trkpt lat="50.24705" lon="4.78382">
        <ele>228.93</ele>
        <time>2017-03-19T15:36:47Z</time>
      </trkpt>
      <trkpt lat="50.24699" lon="4.78383">
        <ele>230.85</ele>
        <time>2017-03-19T15:36:52Z</time>
      </trkpt>
      <trkpt lat="50.24697" lon="4.78384">
        <ele>230.85</ele>
        <time>2017-03-19T15:36:55Z</time>
      </trkpt>
      <trkpt lat="50.24689" lon="4.78386">
        <ele>229.41</ele>
        <time>2017-03-19T15:37:02Z</time>
      </trkpt>
      <trkpt lat="50.24678" lon="4.78391">
        <ele>232.3</ele>
        <time>2017-03-19T15:37:18Z</time>
      </trkpt>
      <trkpt lat="50.24677" lon="4.78391">
        <ele>232.3</ele>
        <time>2017-03-19T15:37:19Z</time>
      </trkpt>
      <trkpt lat="50.24674" lon="4.78392">
        <ele>229.41</ele>
        <time>2017-03-19T15:37:22Z</time>
      </trkpt>
      <trkpt lat="50.24671" lon="4.78392">
        <ele>227.01</ele>
        <time>2017-03-19T15:37:25Z</time>
      </trkpt>
      <trkpt lat="50.24668" lon="4.78391">
        <ele>228.93</ele>
        <time>2017-03-19T15:37:28Z</time>
      </trkpt>
      <trkpt lat="50.24666" lon="4.78389">
        <ele>228.93</ele>
        <time>2017-03-19T15:37:30Z</time>
      </trkpt>
      <trkpt lat="50.24661" lon="4.78376">
        <ele>229.89</ele>
        <time>2017-03-19T15:37:45Z</time>
      </trkpt>
      <trkpt lat="50.24661" lon="4.78373">
        <ele>228.45</ele>
        <time>2017-03-19T15:38:04Z</time>
      </trkpt>
      <trkpt lat="50.24661" lon="4.78366">
        <ele>228.45</ele>
        <time>2017-03-19T15:38:12Z</time>
      </trkpt>
      <trkpt lat="50.2466" lon="4.78366">
        <ele>230.37</ele>
        <time>2017-03-19T15:38:14Z</time>
      </trkpt>
      <trkpt lat="50.2466" lon="4.7836">
        <ele>228.93</ele>
        <time>2017-03-19T15:38:20Z</time>
      </trkpt>
      <trkpt lat="50.24659" lon="4.78355">
        <ele>230.37</ele>
        <time>2017-03-19T15:38:23Z</time>
      </trkpt>
      <trkpt lat="50.24657" lon="4.78339">
        <ele>228.93</ele>
        <time>2017-03-19T15:38:36Z</time>
      </trkpt>
      <trkpt lat="50.24658" lon="4.78334">
        <ele>230.37</ele>
        <time>2017-03-19T15:38:43Z</time>
      </trkpt>
      <trkpt lat="50.24656" lon="4.78311">
        <ele>230.37</ele>
        <time>2017-03-19T15:38:58Z</time>
      </trkpt>
      <trkpt lat="50.24654" lon="4.78296">
        <ele>230.37</ele>
        <time>2017-03-19T15:39:08Z</time>
      </trkpt>
      <trkpt lat="50.24654" lon="4.78281">
        <ele>230.85</ele>
        <time>2017-03-19T15:39:17Z</time>
      </trkpt>
      <trkpt lat="50.24654" lon="4.78277">
        <ele>230.85</ele>
        <time>2017-03-19T15:39:19Z</time>
      </trkpt>
      <trkpt lat="50.24654" lon="4.78272">
        <ele>230.85</ele>
        <time>2017-03-19T15:39:22Z</time>
      </trkpt>
      <trkpt lat="50.24653" lon="4.78264">
        <ele>231.33</ele>
        <time>2017-03-19T15:39:27Z</time>
      </trkpt>
      <trkpt lat="50.24649" lon="4.78243">
        <ele>231.81</ele>
        <time>2017-03-19T15:39:40Z</time>
      </trkpt>
      <trkpt lat="50.24646" lon="4.78219">
        <ele>232.78</ele>
        <time>2017-03-19T15:39:55Z</time>
      </trkpt>
      <trkpt lat="50.24645" lon="4.78207">
        <ele>233.26</ele>
        <time>2017-03-19T15:40:02Z</time>
      </trkpt>
      <trkpt lat="50.24644" lon="4.78183">
        <ele>233.74</ele>
        <time>2017-03-19T15:40:17Z</time>
      </trkpt>
      <trkpt lat="50.24645" lon="4.78161">
        <ele>234.7</ele>
        <time>2017-03-19T15:40:32Z</time>
      </trkpt>
      <trkpt lat="50.24648" lon="4.78134">
        <ele>235.18</ele>
        <time>2017-03-19T15:40:46Z</time>
      </trkpt>
      <trkpt lat="50.2465" lon="4.78107">
        <ele>235.66</ele>
        <time>2017-03-19T15:41:00Z</time>
      </trkpt>
      <trkpt lat="50.24651" lon="4.78104">
        <ele>235.66</ele>
        <time>2017-03-19T15:41:02Z</time>
      </trkpt>
      <trkpt lat="50.24653" lon="4.78079">
        <ele>236.62</ele>
        <time>2017-03-19T15:41:17Z</time>
      </trkpt>
      <trkpt lat="50.24654" lon="4.78063">
        <ele>236.62</ele>
        <time>2017-03-19T15:41:31Z</time>
      </trkpt>
      <trkpt lat="50.24653" lon="4.78055">
        <ele>235.66</ele>
        <time>2017-03-19T15:41:45Z</time>
      </trkpt>
      <trkpt lat="50.24653" lon="4.78054">
        <ele>235.66</ele>
        <time>2017-03-19T15:41:46Z</time>
      </trkpt>
      <trkpt lat="50.24653" lon="4.78029">
        <ele>236.62</ele>
        <time>2017-03-19T15:42:01Z</time>
      </trkpt>
      <trkpt lat="50.24653" lon="4.78019">
        <ele>237.1</ele>
        <time>2017-03-19T15:42:05Z</time>
      </trkpt>
      <trkpt lat="50.24653" lon="4.77986">
        <ele>237.58</ele>
        <time>2017-03-19T15:42:23Z</time>
      </trkpt>
      <trkpt lat="50.24651" lon="4.77978">
        <ele>237.58</ele>
        <time>2017-03-19T15:42:28Z</time>
      </trkpt>
      <trkpt lat="50.24651" lon="4.77969">
        <ele>237.58</ele>
        <time>2017-03-19T15:42:34Z</time>
      </trkpt>
      <trkpt lat="50.24649" lon="4.77954">
        <ele>238.06</ele>
        <time>2017-03-19T15:42:43Z</time>
      </trkpt>
      <trkpt lat="50.24648" lon="4.77951">
        <ele>238.06</ele>
        <time>2017-03-19T15:42:45Z</time>
      </trkpt>
      <trkpt lat="50.24641" lon="4.77925">
        <ele>238.06</ele>
        <time>2017-03-19T15:43:03Z</time>
      </trkpt>
      <trkpt lat="50.24636" lon="4.77907">
        <ele>238.06</ele>
        <time>2017-03-19T15:43:15Z</time>
      </trkpt>
      <trkpt lat="50.24624" lon="4.77882">
        <ele>238.06</ele>
        <time>2017-03-19T15:43:33Z</time>
      </trkpt>
      <trkpt lat="50.24615" lon="4.77861">
        <ele>236.62</ele>
        <time>2017-03-19T15:43:48Z</time>
      </trkpt>
      <trkpt lat="50.246" lon="4.77844">
        <ele>236.62</ele>
        <time>2017-03-19T15:44:03Z</time>
      </trkpt>
      <trkpt lat="50.24587" lon="4.77835">
        <ele>236.62</ele>
        <time>2017-03-19T15:44:18Z</time>
      </trkpt>
      <trkpt lat="50.24573" lon="4.77824">
        <ele>238.06</ele>
        <time>2017-03-19T15:44:34Z</time>
      </trkpt>
      <trkpt lat="50.24557" lon="4.7781">
        <ele>239.02</ele>
        <time>2017-03-19T15:44:51Z</time>
      </trkpt>
      <trkpt lat="50.24546" lon="4.77798">
        <ele>240.95</ele>
        <time>2017-03-19T15:45:06Z</time>
      </trkpt>
      <trkpt lat="50.24532" lon="4.77783">
        <ele>241.91</ele>
        <time>2017-03-19T15:45:23Z</time>
      </trkpt>
      <trkpt lat="50.2452" lon="4.77767">
        <ele>242.39</ele>
        <time>2017-03-19T15:45:39Z</time>
      </trkpt>
      <trkpt lat="50.24508" lon="4.77745">
        <ele>244.31</ele>
        <time>2017-03-19T15:45:57Z</time>
      </trkpt>
      <trkpt lat="50.24497" lon="4.77726">
        <ele>244.79</ele>
        <time>2017-03-19T15:46:13Z</time>
      </trkpt>
      <trkpt lat="50.24486" lon="4.77706">
        <ele>246.72</ele>
        <time>2017-03-19T15:46:29Z</time>
      </trkpt>
      <trkpt lat="50.24475" lon="4.77687">
        <ele>246.72</ele>
        <time>2017-03-19T15:46:44Z</time>
      </trkpt>
      <trkpt lat="50.24463" lon="4.77665">
        <ele>247.68</ele>
        <time>2017-03-19T15:47:01Z</time>
      </trkpt>
      <trkpt lat="50.24449" lon="4.77643">
        <ele>248.64</ele>
        <time>2017-03-19T15:47:19Z</time>
      </trkpt>
      <trkpt lat="50.24442" lon="4.77629">
        <ele>249.6</ele>
        <time>2017-03-19T15:47:33Z</time>
      </trkpt>
      <trkpt lat="50.24429" lon="4.77608">
        <ele>249.6</ele>
        <time>2017-03-19T15:47:49Z</time>
      </trkpt>
      <trkpt lat="50.2442" lon="4.77585">
        <ele>251.04</ele>
        <time>2017-03-19T15:48:06Z</time>
      </trkpt>
      <trkpt lat="50.24411" lon="4.77565">
        <ele>251.04</ele>
        <time>2017-03-19T15:48:21Z</time>
      </trkpt>
      <trkpt lat="50.24404" lon="4.77546">
        <ele>252</ele>
        <time>2017-03-19T15:48:35Z</time>
      </trkpt>
      <trkpt lat="50.244" lon="4.77539">
        <ele>252.48</ele>
        <time>2017-03-19T15:48:40Z</time>
      </trkpt>
      <trkpt lat="50.24391" lon="4.77517">
        <ele>252.48</ele>
        <time>2017-03-19T15:48:54Z</time>
      </trkpt>
      <trkpt lat="50.24384" lon="4.77502">
        <ele>252.48</ele>
        <time>2017-03-19T15:49:06Z</time>
      </trkpt>
      <trkpt lat="50.24374" lon="4.77486">
        <ele>253.93</ele>
        <time>2017-03-19T15:49:21Z</time>
      </trkpt>
      <trkpt lat="50.24361" lon="4.77473">
        <ele>253.93</ele>
        <time>2017-03-19T15:49:37Z</time>
      </trkpt>
      <trkpt lat="50.24342" lon="4.77455">
        <ele>255.85</ele>
        <time>2017-03-19T15:49:58Z</time>
      </trkpt>
      <trkpt lat="50.24325" lon="4.77439">
        <ele>256.33</ele>
        <time>2017-03-19T15:50:16Z</time>
      </trkpt>
      <trkpt lat="50.24311" lon="4.77427">
        <ele>257.77</ele>
        <time>2017-03-19T15:50:32Z</time>
      </trkpt>
      <trkpt lat="50.24295" lon="4.77419">
        <ele>258.73</ele>
        <time>2017-03-19T15:50:50Z</time>
      </trkpt>
      <trkpt lat="50.24279" lon="4.7741">
        <ele>261.14</ele>
        <time>2017-03-19T15:51:07Z</time>
      </trkpt>
      <trkpt lat="50.24277" lon="4.77407">
        <ele>261.14</ele>
        <time>2017-03-19T15:51:10Z</time>
      </trkpt>
      <trkpt lat="50.2427" lon="4.77384">
        <ele>260.17</ele>
        <time>2017-03-19T15:51:25Z</time>
      </trkpt>
      <trkpt lat="50.24267" lon="4.77371">
        <ele>260.17</ele>
        <time>2017-03-19T15:51:33Z</time>
      </trkpt>
      <trkpt lat="50.24266" lon="4.77363">
        <ele>260.17</ele>
        <time>2017-03-19T15:51:38Z</time>
      </trkpt>
      <trkpt lat="50.24264" lon="4.77358">
        <ele>261.62</ele>
        <time>2017-03-19T15:51:42Z</time>
      </trkpt>
      <trkpt lat="50.24259" lon="4.7734">
        <ele>260.17</ele>
        <time>2017-03-19T15:51:52Z</time>
      </trkpt>
      <trkpt lat="50.24252" lon="4.77312">
        <ele>258.73</ele>
        <time>2017-03-19T15:52:09Z</time>
      </trkpt>
      <trkpt lat="50.24251" lon="4.77307">
        <ele>260.65</ele>
        <time>2017-03-19T15:52:12Z</time>
      </trkpt>
      <trkpt lat="50.2425" lon="4.77302">
        <ele>262.1</ele>
        <time>2017-03-19T15:52:15Z</time>
      </trkpt>
      <trkpt lat="50.24247" lon="4.77287">
        <ele>260.65</ele>
        <time>2017-03-19T15:52:24Z</time>
      </trkpt>
      <trkpt lat="50.2424" lon="4.77253">
        <ele>260.17</ele>
        <time>2017-03-19T15:52:43Z</time>
      </trkpt>
      <trkpt lat="50.24235" lon="4.77228">
        <ele>261.62</ele>
        <time>2017-03-19T15:52:58Z</time>
      </trkpt>
      <trkpt lat="50.24232" lon="4.7721">
        <ele>261.62</ele>
        <time>2017-03-19T15:53:09Z</time>
      </trkpt>
      <trkpt lat="50.24227" lon="4.77179">
        <ele>261.62</ele>
        <time>2017-03-19T15:53:27Z</time>
      </trkpt>
      <trkpt lat="50.24224" lon="4.77154">
        <ele>261.62</ele>
        <time>2017-03-19T15:53:42Z</time>
      </trkpt>
      <trkpt lat="50.24223" lon="4.77151">
        <ele>260.17</ele>
        <time>2017-03-19T15:53:44Z</time>
      </trkpt>
      <trkpt lat="50.24222" lon="4.77143">
        <ele>261.62</ele>
        <time>2017-03-19T15:53:49Z</time>
      </trkpt>
      <trkpt lat="50.24216" lon="4.77119">
        <ele>260.65</ele>
        <time>2017-03-19T15:54:04Z</time>
      </trkpt>
      <trkpt lat="50.2421" lon="4.77093">
        <ele>260.65</ele>
        <time>2017-03-19T15:54:20Z</time>
      </trkpt>
      <trkpt lat="50.24205" lon="4.7707">
        <ele>260.17</ele>
        <time>2017-03-19T15:54:34Z</time>
      </trkpt>
      <trkpt lat="50.24203" lon="4.77059">
        <ele>261.62</ele>
        <time>2017-03-19T15:54:41Z</time>
      </trkpt>
      <trkpt lat="50.242" lon="4.77031">
        <ele>262.58</ele>
        <time>2017-03-19T15:54:57Z</time>
      </trkpt>
      <trkpt lat="50.24196" lon="4.77008">
        <ele>262.58</ele>
        <time>2017-03-19T15:55:11Z</time>
      </trkpt>
      <trkpt lat="50.24196" lon="4.77003">
        <ele>261.14</ele>
        <time>2017-03-19T15:55:14Z</time>
      </trkpt>
      <trkpt lat="50.24196" lon="4.76998">
        <ele>262.58</ele>
        <time>2017-03-19T15:55:18Z</time>
      </trkpt>
      <trkpt lat="50.24199" lon="4.76989">
        <ele>262.58</ele>
        <time>2017-03-19T15:55:24Z</time>
      </trkpt>
      <trkpt lat="50.24204" lon="4.76984">
        <ele>262.58</ele>
        <time>2017-03-19T15:55:30Z</time>
      </trkpt>
      <trkpt lat="50.24216" lon="4.76981">
        <ele>261.62</ele>
        <time>2017-03-19T15:55:41Z</time>
      </trkpt>
      <trkpt lat="50.2423" lon="4.76979">
        <ele>261.62</ele>
        <time>2017-03-19T15:55:57Z</time>
      </trkpt>
      <trkpt lat="50.24239" lon="4.76979">
        <ele>260.65</ele>
        <time>2017-03-19T15:56:13Z</time>
      </trkpt>
      <trkpt lat="50.2424" lon="4.7698">
        <ele>261.62</ele>
        <time>2017-03-19T15:56:16Z</time>
      </trkpt>
      <trkpt lat="50.2424" lon="4.7698">
        <ele>260.65</ele>
        <time>2017-03-19T15:56:22Z</time>
      </trkpt>
      <trkpt lat="50.2424" lon="4.76982">
        <ele>261.62</ele>
        <time>2017-03-19T15:56:56Z</time>
      </trkpt>
      <trkpt lat="50.24241" lon="4.76982">
        <ele>261.62</ele>
        <time>2017-03-19T15:57:00Z</time>
      </trkpt>
      <trkpt lat="50.24246" lon="4.7698">
        <ele>261.62</ele>
        <time>2017-03-19T15:57:04Z</time>
      </trkpt>
      <trkpt lat="50.2427" lon="4.76973">
        <ele>259.69</ele>
        <time>2017-03-19T15:57:23Z</time>
      </trkpt>
      <trkpt lat="50.24292" lon="4.76964">
        <ele>257.77</ele>
        <time>2017-03-19T15:57:38Z</time>
      </trkpt>
      <trkpt lat="50.24315" lon="4.7695">
        <ele>257.77</ele>
        <time>2017-03-19T15:57:55Z</time>
      </trkpt>
      <trkpt lat="50.24333" lon="4.76932">
        <ele>256.81</ele>
        <time>2017-03-19T15:58:12Z</time>
      </trkpt>
      <trkpt lat="50.24347" lon="4.76917">
        <ele>256.33</ele>
        <time>2017-03-19T15:58:26Z</time>
      </trkpt>
      <trkpt lat="50.24365" lon="4.76898">
        <ele>255.85</ele>
        <time>2017-03-19T15:58:45Z</time>
      </trkpt>
      <trkpt lat="50.2438" lon="4.76885">
        <ele>254.89</ele>
        <time>2017-03-19T15:59:01Z</time>
      </trkpt>
      <trkpt lat="50.24393" lon="4.76873">
        <ele>252.96</ele>
        <time>2017-03-19T15:59:13Z</time>
      </trkpt>
      <trkpt lat="50.2441" lon="4.76861">
        <ele>252</ele>
        <time>2017-03-19T15:59:29Z</time>
      </trkpt>
      <trkpt lat="50.24426" lon="4.7685">
        <ele>250.56</ele>
        <time>2017-03-19T15:59:44Z</time>
      </trkpt>
      <trkpt lat="50.24442" lon="4.76839">
        <ele>249.6</ele>
        <time>2017-03-19T16:00:01Z</time>
      </trkpt>
      <trkpt lat="50.24458" lon="4.76828">
        <ele>248.64</ele>
        <time>2017-03-19T16:00:18Z</time>
      </trkpt>
      <trkpt lat="50.24471" lon="4.76818">
        <ele>247.2</ele>
        <time>2017-03-19T16:00:32Z</time>
      </trkpt>
      <trkpt lat="50.24489" lon="4.76805">
        <ele>245.75</ele>
        <time>2017-03-19T16:00:50Z</time>
      </trkpt>
      <trkpt lat="50.24503" lon="4.76798">
        <ele>243.83</ele>
        <time>2017-03-19T16:01:04Z</time>
      </trkpt>
      <trkpt lat="50.24521" lon="4.76792">
        <ele>241.43</ele>
        <time>2017-03-19T16:01:21Z</time>
      </trkpt>
      <trkpt lat="50.24536" lon="4.76784">
        <ele>239.99</ele>
        <time>2017-03-19T16:01:37Z</time>
      </trkpt>
      <trkpt lat="50.24553" lon="4.76778">
        <ele>237.58</ele>
        <time>2017-03-19T16:01:54Z</time>
      </trkpt>
      <trkpt lat="50.2457" lon="4.76779">
        <ele>236.14</ele>
        <time>2017-03-19T16:02:09Z</time>
      </trkpt>
      <trkpt lat="50.24588" lon="4.76783">
        <ele>233.74</ele>
        <time>2017-03-19T16:02:25Z</time>
      </trkpt>
      <trkpt lat="50.24599" lon="4.76778">
        <ele>232.3</ele>
        <time>2017-03-19T16:02:37Z</time>
      </trkpt>
      <trkpt lat="50.24603" lon="4.76772">
        <ele>230.85</ele>
        <time>2017-03-19T16:02:42Z</time>
      </trkpt>
      <trkpt lat="50.24605" lon="4.76768">
        <ele>230.37</ele>
        <time>2017-03-19T16:02:45Z</time>
      </trkpt>
      <trkpt lat="50.24615" lon="4.76749">
        <ele>228.45</ele>
        <time>2017-03-19T16:02:59Z</time>
      </trkpt>
      <trkpt lat="50.24625" lon="4.76731">
        <ele>226.53</ele>
        <time>2017-03-19T16:03:14Z</time>
      </trkpt>
      <trkpt lat="50.24633" lon="4.76714">
        <ele>224.61</ele>
        <time>2017-03-19T16:03:28Z</time>
      </trkpt>
      <trkpt lat="50.24636" lon="4.76703">
        <ele>223.64</ele>
        <time>2017-03-19T16:03:41Z</time>
      </trkpt>
      <trkpt lat="50.24636" lon="4.7669">
        <ele>222.68</ele>
        <time>2017-03-19T16:03:55Z</time>
      </trkpt>
      <trkpt lat="50.24634" lon="4.76691">
        <ele>221.72</ele>
        <time>2017-03-19T16:04:07Z</time>
      </trkpt>
      <trkpt lat="50.24634" lon="4.76691">
        <ele>225.09</ele>
        <time>2017-03-19T16:04:10Z</time>
      </trkpt>
      <trkpt lat="50.24634" lon="4.76691">
        <ele>221.72</ele>
        <time>2017-03-19T16:04:18Z</time>
      </trkpt>
      <trkpt lat="50.24634" lon="4.76691">
        <ele>220.28</ele>
        <time>2017-03-19T16:04:23Z</time>
      </trkpt>
      <trkpt lat="50.24634" lon="4.7669">
        <ele>221.72</ele>
        <time>2017-03-19T16:04:25Z</time>
      </trkpt>
      <trkpt lat="50.24634" lon="4.76692">
        <ele>224.61</ele>
        <time>2017-03-19T16:04:47Z</time>
      </trkpt>
      <trkpt lat="50.24635" lon="4.76694">
        <ele>222.2</ele>
        <time>2017-03-19T16:05:03Z</time>
      </trkpt>
      <trkpt lat="50.24629" lon="4.76687">
        <ele>222.2</ele>
        <time>2017-03-19T16:05:15Z</time>
      </trkpt>
      <trkpt lat="50.24625" lon="4.76685">
        <ele>223.16</ele>
        <time>2017-03-19T16:05:19Z</time>
      </trkpt>
      <trkpt lat="50.24623" lon="4.76683">
        <ele>223.64</ele>
        <time>2017-03-19T16:05:22Z</time>
      </trkpt>
      <trkpt lat="50.24609" lon="4.76677">
        <ele>225.57</ele>
        <time>2017-03-19T16:05:37Z</time>
      </trkpt>
      <trkpt lat="50.24602" lon="4.76675">
        <ele>227.01</ele>
        <time>2017-03-19T16:05:43Z</time>
      </trkpt>
      <trkpt lat="50.24591" lon="4.76667">
        <ele>227.97</ele>
        <time>2017-03-19T16:05:55Z</time>
      </trkpt>
      <trkpt lat="50.2457" lon="4.76654">
        <ele>230.37</ele>
        <time>2017-03-19T16:06:14Z</time>
      </trkpt>
      <trkpt lat="50.24554" lon="4.76644">
        <ele>231.81</ele>
        <time>2017-03-19T16:06:30Z</time>
      </trkpt>
      <trkpt lat="50.24542" lon="4.76626">
        <ele>234.7</ele>
        <time>2017-03-19T16:06:48Z</time>
      </trkpt>
      <trkpt lat="50.2454" lon="4.76621">
        <ele>234.7</ele>
        <time>2017-03-19T16:06:53Z</time>
      </trkpt>
      <trkpt lat="50.24537" lon="4.76592">
        <ele>235.66</ele>
        <time>2017-03-19T16:07:10Z</time>
      </trkpt>
      <trkpt lat="50.24538" lon="4.76579">
        <ele>236.14</ele>
        <time>2017-03-19T16:07:18Z</time>
      </trkpt>
      <trkpt lat="50.24537" lon="4.76574">
        <ele>236.14</ele>
        <time>2017-03-19T16:07:21Z</time>
      </trkpt>
      <trkpt lat="50.24535" lon="4.7657">
        <ele>236.62</ele>
        <time>2017-03-19T16:07:24Z</time>
      </trkpt>
      <trkpt lat="50.24527" lon="4.76545">
        <ele>239.51</ele>
        <time>2017-03-19T16:07:39Z</time>
      </trkpt>
      <trkpt lat="50.24515" lon="4.76521">
        <ele>240.95</ele>
        <time>2017-03-19T16:07:56Z</time>
      </trkpt>
      <trkpt lat="50.245" lon="4.765">
        <ele>241.91</ele>
        <time>2017-03-19T16:08:15Z</time>
      </trkpt>
      <trkpt lat="50.24488" lon="4.76485">
        <ele>242.39</ele>
        <time>2017-03-19T16:08:29Z</time>
      </trkpt>
      <trkpt lat="50.24472" lon="4.76468">
        <ele>243.83</ele>
        <time>2017-03-19T16:08:46Z</time>
      </trkpt>
      <trkpt lat="50.24452" lon="4.76444">
        <ele>245.75</ele>
        <time>2017-03-19T16:09:06Z</time>
      </trkpt>
      <trkpt lat="50.24431" lon="4.76417">
        <ele>248.16</ele>
        <time>2017-03-19T16:09:27Z</time>
      </trkpt>
      <trkpt lat="50.24417" lon="4.7639">
        <ele>248.64</ele>
        <time>2017-03-19T16:09:45Z</time>
      </trkpt>
      <trkpt lat="50.24405" lon="4.76358">
        <ele>249.12</ele>
        <time>2017-03-19T16:10:05Z</time>
      </trkpt>
      <trkpt lat="50.24396" lon="4.76322">
        <ele>250.56</ele>
        <time>2017-03-19T16:10:24Z</time>
      </trkpt>
      <trkpt lat="50.2439" lon="4.76295">
        <ele>252</ele>
        <time>2017-03-19T16:10:39Z</time>
      </trkpt>
      <trkpt lat="50.24386" lon="4.76261">
        <ele>252</ele>
        <time>2017-03-19T16:10:57Z</time>
      </trkpt>
      <trkpt lat="50.24381" lon="4.76218">
        <ele>252.96</ele>
        <time>2017-03-19T16:11:18Z</time>
      </trkpt>
      <trkpt lat="50.24378" lon="4.76173">
        <ele>252.96</ele>
        <time>2017-03-19T16:11:41Z</time>
      </trkpt>
      <trkpt lat="50.24373" lon="4.76128">
        <ele>252</ele>
        <time>2017-03-19T16:12:04Z</time>
      </trkpt>
      <trkpt lat="50.24372" lon="4.76118">
        <ele>253.44</ele>
        <time>2017-03-19T16:12:09Z</time>
      </trkpt>
      <trkpt lat="50.24368" lon="4.76081">
        <ele>253.93</ele>
        <time>2017-03-19T16:12:29Z</time>
      </trkpt>
      <trkpt lat="50.2436" lon="4.76046">
        <ele>253.93</ele>
        <time>2017-03-19T16:12:48Z</time>
      </trkpt>
      <trkpt lat="50.24354" lon="4.76006">
        <ele>254.89</ele>
        <time>2017-03-19T16:13:08Z</time>
      </trkpt>
      <trkpt lat="50.24347" lon="4.75968">
        <ele>254.89</ele>
        <time>2017-03-19T16:13:27Z</time>
      </trkpt>
      <trkpt lat="50.24341" lon="4.75945">
        <ele>255.37</ele>
        <time>2017-03-19T16:13:40Z</time>
      </trkpt>
      <trkpt lat="50.24342" lon="4.7594">
        <ele>255.85</ele>
        <time>2017-03-19T16:13:43Z</time>
      </trkpt>
      <trkpt lat="50.24329" lon="4.75907">
        <ele>256.81</ele>
        <time>2017-03-19T16:14:02Z</time>
      </trkpt>
      <trkpt lat="50.2431" lon="4.75897">
        <ele>257.77</ele>
        <time>2017-03-19T16:14:19Z</time>
      </trkpt>
      <trkpt lat="50.24293" lon="4.75906">
        <ele>257.77</ele>
        <time>2017-03-19T16:14:36Z</time>
      </trkpt>
      <trkpt lat="50.24274" lon="4.75922">
        <ele>259.69</ele>
        <time>2017-03-19T16:14:55Z</time>
      </trkpt>
      <trkpt lat="50.24273" lon="4.75923">
        <ele>259.69</ele>
        <time>2017-03-19T16:14:56Z</time>
      </trkpt>
      <trkpt lat="50.24254" lon="4.75937">
        <ele>260.65</ele>
        <time>2017-03-19T16:15:14Z</time>
      </trkpt>
      <trkpt lat="50.24235" lon="4.75951">
        <ele>261.62</ele>
        <time>2017-03-19T16:15:31Z</time>
      </trkpt>
      <trkpt lat="50.24219" lon="4.75963">
        <ele>262.1</ele>
        <time>2017-03-19T16:15:46Z</time>
      </trkpt>
      <trkpt lat="50.24202" lon="4.75974">
        <ele>263.54</ele>
        <time>2017-03-19T16:16:00Z</time>
      </trkpt>
      <trkpt lat="50.24186" lon="4.7599">
        <ele>264.5</ele>
        <time>2017-03-19T16:16:16Z</time>
      </trkpt>
      <trkpt lat="50.24172" lon="4.76003">
        <ele>265.46</ele>
        <time>2017-03-19T16:16:30Z</time>
      </trkpt>
      <trkpt lat="50.24168" lon="4.76002">
        <ele>264.02</ele>
        <time>2017-03-19T16:16:33Z</time>
      </trkpt>
      <trkpt lat="50.24166" lon="4.76002">
        <ele>264.02</ele>
        <time>2017-03-19T16:16:35Z</time>
      </trkpt>
      <trkpt lat="50.24161" lon="4.76007">
        <ele>264.02</ele>
        <time>2017-03-19T16:16:40Z</time>
      </trkpt>
      <trkpt lat="50.24159" lon="4.76009">
        <ele>265.46</ele>
        <time>2017-03-19T16:16:42Z</time>
      </trkpt>
      <trkpt lat="50.2414" lon="4.76034">
        <ele>266.42</ele>
        <time>2017-03-19T16:17:01Z</time>
      </trkpt>
      <trkpt lat="50.24132" lon="4.76048">
        <ele>265.46</ele>
        <time>2017-03-19T16:17:10Z</time>
      </trkpt>
      <trkpt lat="50.24116" lon="4.76073">
        <ele>265.46</ele>
        <time>2017-03-19T16:17:28Z</time>
      </trkpt>
      <trkpt lat="50.24098" lon="4.76086">
        <ele>265.46</ele>
        <time>2017-03-19T16:17:44Z</time>
      </trkpt>
      <trkpt lat="50.24078" lon="4.76096">
        <ele>265.46</ele>
        <time>2017-03-19T16:18:00Z</time>
      </trkpt>
      <trkpt lat="50.24059" lon="4.76104">
        <ele>265.46</ele>
        <time>2017-03-19T16:18:17Z</time>
      </trkpt>
      <trkpt lat="50.24052" lon="4.76102">
        <ele>264.98</ele>
        <time>2017-03-19T16:18:24Z</time>
      </trkpt>
      <trkpt lat="50.24044" lon="4.76094">
        <ele>264.5</ele>
        <time>2017-03-19T16:18:38Z</time>
      </trkpt>
      <trkpt lat="50.24041" lon="4.76094">
        <ele>265.46</ele>
        <time>2017-03-19T16:18:51Z</time>
      </trkpt>
      <trkpt lat="50.24039" lon="4.76097">
        <ele>266.9</ele>
        <time>2017-03-19T16:19:11Z</time>
      </trkpt>
    </trkseg>
  </trk>
</gpx>